[[{"header":{"parameterUnit":"m.s-1","parameterCategory":1,"la1":31.0,"la2":29.5877,"lo1":-88.7671,"lo2":-86.6584,"dy":0.0162,"dx":0.0185,"nx":115,"ny":88,"refTime":"2023-07-30T18:00:00:Z","depth":0,"parameterNumber":2,"parameterNumberName":"U-component_of_WINDS"},"data":[0.0,0.0,0.0,0.0,0.0,0.0,0.0,0.0,0.0,0.0,0.0,0.0,0.0,0.0,0.0,0.0,0.0,0.0,0.0,0.0,0.0,0.0,0.0,0.0,0.0,0.0,0.0,0.0,0.0,0.0,0.0,0.0,0.0,0.0,0.0,0.0,0.0,0.0,0.0,0.0,0.0,0.0,0.0,0.0,0.0,0.0,0.0,0.0,0.0,0.0,0.0,0.0,0.0,0.0,0.0,0.0,0.0,0.0,0.0,0.0,0.0,0.0,0.0,0.0,0.0,0.0,0.0,0.0,0.0,0.0,0.0,0.0,0.0,0.0,0.0,0.0,0.0,0.0,0.0,0.0,0.0,0.0,0.0,0.0,0.0,0.0,0.0,0.0,0.0,0.0,0.0,0.0,0.0,0.0,0.0,0.0,0.0,0.0,0.0,0.0,0.0,0.0,0.0,0.0,0.0,0.0,0.0,0.0,0.0,0.0,0.0,0.0,0.0,0.0,0.0,0.0,0.0,0.0,0.0,0.0,0.0,0.0,0.0,0.0,0.0,0.0,0.0,0.0,0.0,0.0,0.0,0.0,0.0,0.0,0.0,0.0,0.0,0.0,0.0,0.0,0.0,0.0,0.0,0.0,0.0,0.0,0.0,0.0,0.0,0.0,0.0,0.0,0.0,0.0,0.0,0.0,0.0,0.0,0.0,0.0,0.0,0.0,0.0,0.0,0.0,0.0,0.0,0.0,0.0,0.0,0.0,0.0,0.0,0.0,0.0,0.0,0.0,0.0,0.0,0.0,0.0,0.0,0.0,0.0,0.0,0.0,0.0,0.0,0.0,0.0,0.0,0.0,0.0,0.0,0.0,0.0,0.0,0.0,0.0,0.0,0.0,0.0,0.0,0.0,0.0,0.0,0.0,0.0,0.0,0.0,0.0,0.0,0.0,0.0,0.0,0.0,0.0,0.0,0.0,0.0,0.0,0.0,0.0,0.0,0.0,0.0,0.0,0.0,0.0,0.0,0.0,0.0,0.0,0.0,0.0,0.0,0.0,0.0,0.0,0.0,0.0,0.0,0.0,0.0,0.0,0.0,0.0,0.0,0.0,0.0,0.0,0.0,0.0,0.0,0.0,0.0,0.0,0.0,0.0,0.0,0.0,0.0,0.0,0.0,0.0,0.0,0.0,0.0,0.0,0.0,0.0,0.0,0.0,0.0,0.0,0.0,0.0,0.0,0.0,0.0,0.0,0.0,0.0,0.0,0.0,0.0,0.0,0.0,0.0,0.0,0.0,0.0,0.0,0.0,0.0,0.0,0.0,0.0,0.0,0.0,0.0,0.0,0.0,0.0,0.0,0.0,0.0,0.0,0.0,0.0,0.0,0.0,0.0,0.0,0.0,0.0,0.0,0.0,0.0,0.0,0.0,0.0,0.0,0.0,0.0,0.0,0.0,0.0,0.0,0.0,0.0,0.0,0.0,0.0,0.0,0.0,0.0,0.0,0.0,0.0,0.0,0.0,0.0,0.0,0.0,0.0,0.0,0.0,0.0,0.0,0.0,0.0,0.0,0.0,0.0,0.0,0.0,0.0,0.0,0.0,0.0,0.0,0.0,0.0,0.0,0.0,0.0,0.0,0.0,0.0,0.0,0.0,0.0,0.0,0.0,0.0,0.0,0.0,0.0,0.0,0.0,0.0,0.0,0.0,0.0,0.0,0.0,0.0,0.0,0.0,0.0,0.0,0.0,0.0,0.0,0.0,0.0,0.0,0.0,0.0,0.0,0.0,0.0,0.0,0.0,0.0,0.0,0.0,0.0,0.0,0.0,0.0,0.0,0.0,0.0,0.0,0.0,0.0,0.0,0.0,0.0,0.0,0.0,0.0,0.0,0.0,0.0,0.0,0.0,0.0,0.0,0.0,0.0,0.0,0.0,0.0,0.0,0.0,0.0,0.0,0.0,0.0,0.0,0.0,0.0,0.0,0.0,0.0,0.0,0.0,0.0,0.0,0.0,0.0,0.0,0.0,0.0,0.0,0.0,0.0,0.0,0.0,0.0,0.0,0.0,0.0,0.0,0.0,0.0,0.0,0.0,0.0,0.0,0.0,0.0,0.0,0.0,0.0,0.0,0.0,0.0,0.0,0.0,0.0,0.0,0.0,0.0,0.0,0.0,0.0,0.0,0.0,0.0,0.0,0.0,0.0,0.0,0.0,0.0,0.0,0.0,0.0,0.0,0.0,0.0,0.0,0.0,0.0,0.0,0.0,0.0,0.0,0.0,0.0,0.0,0.0,0.0,0.0,0.0,0.0,0.0,0.0,0.0,0.0,0.0,0.0,0.0,0.0,0.0,0.0,0.0,0.0,0.0,0.0,0.0,0.0,0.0,0.0,0.0,0.0,0.0,0.0,0.0,0.0,0.0,0.0,0.0,0.0,0.0,0.0,0.0,0.0,0.0,0.0,0.0,0.0,0.0,0.0,0.0,0.0,0.0,0.0,0.0,0.0,0.0,0.0,0.0,0.0,0.0,0.0,0.0,0.0,0.0,0.0,0.0,0.0,0.0,0.0,0.0,0.0,0.0,0.0,0.0,0.0,0.0,0.0,0.0,0.0,0.0,0.0,0.0,0.0,0.0,0.0,0.0,0.0,0.0,0.0,0.0,0.0,0.0,0.0,0.0,0.0,0.0,0.0,0.0,0.0,0.0,0.0,0.0,0.0,0.0,0.0,0.0,0.0,0.0,0.0,0.0,0.0,0.0,0.0,0.0,0.0,0.0,0.0,0.0,0.0,0.0,0.0,0.0,0.0,0.0,0.0,0.0,0.0,0.0,0.0,0.0,0.0,0.0,0.0,0.0,0.0,0.0,0.0,0.0,0.0,0.0,0.0,0.0,0.0,0.0,0.0,0.0,0.0,0.0,0.0,0.0,0.0,0.0,0.0,0.0,0.0,0.0,0.0,0.0,0.0,0.0,0.0,0.0,0.0,0.0,0.0,0.0,0.0,0.0,0.0,0.0,0.0,0.0,0.0,0.0,0.0,0.0,0.0,0.0,0.0,0.0,0.0,0.0,0.0,0.0,0.0,0.0,0.0,0.0,0.0,0.0,0.0,0.0,0.0,0.0,0.0,0.0,0.0,0.0,0.0,0.0,0.0,0.0,0.0,0.0,0.0,0.0,0.0,0.0,0.0,0.0,0.0,0.0,0.0,0.0,0.0,0.0,0.0,0.0,0.0,0.0,0.0,0.0,0.0,0.0,0.0,0.0,0.0,0.0,0.0,0.0,0.0,0.0,0.0,0.0,0.0,0.0,0.0,0.0,0.0,0.0,0.0,0.0,0.0,0.0,0.0,0.0,0.0,0.0,0.0,0.0,0.0,0.0,0.0,0.0,0.0,0.0,0.0,0.0,0.0,0.0,0.0,0.0,0.0,0.0,0.0,0.0,0.0,0.0,0.0,0.0,0.0,0.0,0.0,0.0,0.0,0.0,0.0,0.0,0.0,0.0,0.0,0.0,0.0,0.0,0.0,0.0,0.0,0.0,0.0,0.0,0.0,0.0,0.0,0.0,0.0,0.0,0.0,0.0,0.0,0.0,0.0,0.0,0.0,0.0,0.0,0.0,0.0,0.0,0.0,0.0,0.0,0.0,0.0,0.0,0.0,0.0,0.0,0.0,0.0,0.0,0.0,0.0,0.0,0.0,0.0,0.0,0.0,0.0,0.0,0.0,0.0,0.0,0.0,0.0,0.0,0.0,0.0,0.0,0.0,0.0,0.0,0.0,0.0,0.0,0.0,0.0,0.0,0.0,0.0,0.0,0.0,0.0,0.0,0.0,0.0,0.0,0.0,0.0,0.0,0.0,0.0,0.0,0.0,0.0,0.0,0.0,0.0,0.0,0.0,0.0,0.0,0.0,0.0,0.0,0.0,0.0,0.0,0.0,0.0,0.0,0.0,0.0,0.0,0.0,0.0,0.0,0.0,0.0,0.0,0.0,0.0,0.0,0.0,0.0,0.0,0.0,0.0,0.0,0.0,0.0,0.0,0.0,0.0,0.0,0.0,0.0,0.0,0.0,0.0,0.0,0.0,0.0,0.0,0.0,0.0,0.0,0.0,0.0,0.0,0.0,0.0,0.0,0.0,0.0,0.0,0.0,0.0,0.0,0.0,0.0,0.0,0.0,0.0,0.0,0.0,0.0,0.0,0.0,0.0,0.0,0.0,0.0,0.0,0.0,0.0,0.0,0.0,0.0,0.0,0.0,0.0,0.0,0.0,0.0,0.0,0.0,0.0,2.0607,0.0,0.0,0.0,0.0,0.0,0.0,0.0,0.0,0.0,0.0,0.0,0.0,0.0,0.0,0.0,0.0,0.0,0.0,0.0,0.0,0.0,0.0,0.0,0.0,0.0,0.0,0.0,0.0,0.0,0.0,0.0,0.0,0.0,0.0,0.0,0.0,0.0,0.0,0.0,0.0,0.0,0.0,0.0,0.0,0.0,0.0,0.0,0.0,0.0,0.0,0.0,0.0,0.0,0.0,0.0,0.0,0.0,0.0,0.0,0.0,0.0,0.0,0.0,0.0,0.0,0.0,0.0,0.0,0.0,0.0,0.0,0.0,0.0,0.0,0.0,0.0,0.0,0.0,0.0,0.0,0.0,0.0,0.0,0.0,0.0,0.0,0.0,0.0,0.0,0.0,0.0,0.0,0.0,0.0,0.0,0.0,0.0,0.0,0.0,0.0,0.0,0.0,0.0,0.0,0.0,0.0,0.0,0.0,0.0,0.0,2.0609,2.059,2.0609,2.0607,2.0605,0.0,0.0,0.0,0.0,0.0,0.0,0.0,0.0,0.0,0.0,0.0,0.0,0.0,0.0,0.0,0.0,0.0,0.0,0.0,0.0,0.0,0.0,0.0,0.0,0.0,0.0,0.0,0.0,0.0,0.0,0.0,0.0,0.0,0.0,0.0,0.0,0.0,0.0,0.0,0.0,0.0,0.0,0.0,0.0,0.0,0.0,0.0,0.0,0.0,0.0,0.0,0.0,0.0,0.0,0.0,0.0,0.0,0.0,0.0,0.0,0.0,0.0,0.0,0.0,0.0,0.0,0.0,0.0,0.0,0.0,0.0,0.0,0.0,0.0,0.0,0.0,0.0,0.0,0.0,0.0,0.0,0.0,0.0,0.0,0.0,0.0,0.0,0.0,0.0,0.0,0.0,0.0,0.0,0.0,0.0,0.0,0.0,0.0,0.0,0.0,0.0,0.0,0.0,0.0,0.0,0.0,0.0,0.0,0.0,0.0,0.0,0.0,2.0861,2.0876,2.0872,0.0,0.0,0.0,0.0,0.0,0.0,0.0,0.0,0.0,0.0,0.0,0.0,0.0,0.0,0.0,0.0,0.0,0.0,0.0,0.0,0.0,0.0,0.0,0.0,0.0,0.0,0.0,0.0,0.0,0.0,0.0,0.0,0.0,0.0,0.0,0.0,0.0,0.0,0.0,0.0,0.0,0.0,0.0,0.0,0.0,0.0,0.0,0.0,0.0,0.0,0.0,0.0,0.0,0.0,0.0,0.0,0.0,0.0,0.0,0.0,0.0,0.0,0.0,0.0,0.0,0.0,0.0,0.0,0.0,0.0,0.0,0.0,0.0,0.0,0.0,0.0,0.0,0.0,0.0,0.0,0.0,0.0,0.0,0.0,0.0,0.0,0.0,0.0,0.0,0.0,0.0,0.0,0.0,0.0,0.0,0.0,0.0,0.0,0.0,0.0,0.0,0.0,0.0,0.0,0.0,0.0,0.0,0.0,0.0,0.0,2.0958,2.1669,2.1674,0.0,2.1653,0.0,0.0,0.0,0.0,0.0,0.0,0.0,0.0,0.0,0.0,0.0,0.0,0.0,0.0,0.0,0.0,0.0,0.0,0.0,0.0,0.0,0.0,0.0,0.0,0.0,0.0,0.0,0.0,0.0,0.0,0.0,0.0,0.0,0.0,0.0,0.0,0.0,0.0,0.0,0.0,0.0,0.0,0.0,0.0,0.0,0.0,0.0,0.0,0.0,0.0,0.0,0.0,0.0,0.0,0.0,0.0,0.0,0.0,0.0,0.0,0.0,0.0,0.0,0.0,0.0,0.0,0.0,0.0,0.0,0.0,0.0,0.0,0.0,0.0,0.0,0.0,0.0,0.0,0.0,0.0,0.0,0.0,0.0,0.0,0.0,0.0,0.0,0.0,0.0,0.0,0.0,0.0,0.0,0.0,0.0,0.0,0.0,0.0,0.0,0.0,0.0,0.0,0.0,0.0,0.0,0.0,0.0,0.0,0.0,0.0,2.0976,2.1769,2.1781,2.1552,0.0,0.0,0.0,0.0,0.0,0.0,0.0,0.0,0.0,0.0,0.0,0.0,0.0,0.0,0.0,0.0,0.0,0.0,0.0,0.0,0.0,0.0,0.0,0.0,0.0,0.0,0.0,0.0,0.0,0.0,0.0,0.0,0.0,0.0,0.0,0.0,0.0,0.0,0.0,0.0,0.0,0.0,0.0,0.0,0.0,0.0,0.0,0.0,0.0,0.0,0.0,0.0,0.0,0.0,0.0,0.0,0.0,0.0,0.0,0.0,0.0,0.0,0.0,0.0,0.0,0.0,0.0,0.0,0.0,0.0,0.0,0.0,0.0,0.0,0.0,0.0,0.0,0.0,0.0,0.0,0.0,0.0,0.0,0.0,0.0,0.0,0.0,0.0,0.0,0.0,0.0,0.0,0.0,0.0,0.0,0.0,0.0,0.0,0.0,0.0,0.0,0.0,0.0,0.0,0.0,0.0,0.0,0.0,0.0,0.0,2.1713,2.1577,2.2103,2.1937,2.1487,2.0861,0.0,0.0,0.0,0.0,0.0,0.0,0.0,0.0,0.0,0.0,0.0,0.0,0.0,0.0,0.0,0.0,0.0,0.0,0.0,0.0,0.0,0.0,0.0,0.0,0.0,0.0,0.0,0.0,0.0,0.0,0.0,0.0,0.0,0.0,0.0,0.0,0.0,0.0,0.0,0.0,0.0,0.0,0.0,0.0,0.0,0.0,0.0,0.0,0.0,0.0,0.0,0.0,0.0,0.0,0.0,0.0,0.0,0.0,0.0,0.0,0.0,0.0,0.0,0.0,0.0,0.0,0.0,0.0,0.0,0.0,0.0,0.0,0.0,0.0,0.0,0.0,0.0,0.0,0.0,0.0,0.0,0.0,0.0,0.0,0.0,0.0,0.0,0.0,0.0,0.0,0.0,0.0,0.0,0.0,0.0,0.0,0.0,0.0,0.0,0.0,0.0,0.0,0.0,0.0,0.0,0.0,0.0,0.0,2.4213,2.34,2.299,2.2971,2.224,2.1759,0.0,0.0,0.0,0.0,0.0,0.0,0.0,0.0,0.0,0.0,0.0,0.0,0.0,0.0,0.0,0.0,0.0,0.0,0.0,0.0,0.0,0.0,0.0,0.0,0.0,0.0,0.0,0.0,0.0,0.0,0.0,0.0,0.0,0.0,0.0,0.0,0.0,0.0,0.0,0.0,0.0,0.0,0.0,0.0,0.0,0.0,0.0,0.0,0.0,0.0,0.0,0.0,0.0,0.0,0.0,0.0,0.0,0.0,0.0,0.0,0.0,0.0,0.0,0.0,0.0,0.0,0.0,0.0,0.0,0.0,0.0,0.0,0.0,0.0,0.0,0.0,0.0,0.0,0.0,0.0,0.0,0.0,0.0,0.0,0.0,0.0,0.0,0.0,0.0,0.0,0.0,0.0,0.0,0.0,0.0,0.0,0.0,0.0,0.0,0.0,0.0,0.0,0.0,0.0,0.0,0.0,0.0,0.0,0.0,2.355,2.3257,2.2828,2.2318,2.3036,2.3174,0.0,0.0,0.0,0.0,0.0,0.0,0.0,0.0,0.0,0.0,0.0,0.0,0.0,0.0,0.0,0.0,0.0,0.0,0.0,0.0,0.0,0.0,0.0,0.0,0.0,0.0,0.0,0.0,0.0,0.0,0.0,0.0,0.0,0.0,0.0,0.0,0.0,0.0,0.0,0.0,0.0,0.0,0.0,0.0,0.0,0.0,0.0,0.0,0.0,0.0,0.0,0.0,0.0,0.0,0.0,0.0,0.0,0.0,0.0,0.0,0.0,0.0,0.0,0.0,0.0,0.0,0.0,0.0,0.0,0.0,0.0,0.0,0.0,0.0,0.0,0.0,0.0,0.0,0.0,0.0,0.0,0.0,0.0,0.0,0.0,0.0,0.0,0.0,0.0,0.0,0.0,0.0,0.0,0.0,0.0,0.0,0.0,0.0,0.0,0.0,0.0,0.0,0.0,0.0,0.0,0.0,0.0,0.0,0.0,2.3527,0.0,2.3508,2.2725,2.3786,2.396,0.0,0.0,0.0,0.0,0.0,0.0,0.0,0.0,0.0,0.0,0.0,0.0,0.0,0.0,0.0,0.0,0.0,0.0,0.0,0.0,0.0,0.0,0.0,0.0,0.0,0.0,0.0,0.0,0.0,0.0,0.0,0.0,0.0,0.0,0.0,0.0,0.0,0.0,0.0,0.0,0.0,0.0,0.0,0.0,0.0,0.0,0.0,0.0,0.0,0.0,0.0,0.0,0.0,0.0,0.0,0.0,0.0,0.0,0.0,0.0,0.0,0.0,0.0,0.0,0.0,0.0,0.0,0.0,0.0,0.0,0.0,0.0,0.0,0.0,0.0,0.0,0.0,0.0,0.0,0.0,0.0,0.0,0.0,0.0,0.0,0.0,0.0,0.0,0.0,0.0,0.0,0.0,0.0,0.0,0.0,0.0,0.0,0.0,0.0,0.0,0.0,0.0,0.0,0.0,0.0,0.0,0.0,0.0,2.433,2.4374,2.518,2.5125,2.4427,2.4394,2.4008,0.0,0.0,0.0,0.0,0.0,0.0,0.0,0.0,0.0,0.0,0.0,0.0,0.0,0.0,0.0,0.0,0.0,0.0,0.0,0.0,0.0,0.0,0.0,0.0,0.0,0.0,0.0,0.0,0.0,0.0,0.0,0.0,0.0,0.0,0.0,0.0,0.0,0.0,0.0,0.0,0.0,0.0,0.0,0.0,0.0,0.0,0.0,0.0,0.0,0.0,0.0,0.0,0.0,0.0,0.0,0.0,0.0,0.0,0.0,0.0,0.0,0.0,0.0,0.0,0.0,0.0,0.0,0.0,0.0,0.0,0.0,0.0,0.0,0.0,0.0,0.0,0.0,0.0,0.0,0.0,0.0,0.0,0.0,0.0,0.0,0.0,0.0,0.0,0.0,0.0,0.0,0.0,0.0,0.0,0.0,0.0,0.0,0.0,0.0,0.0,0.0,0.0,0.0,0.0,0.0,0.0,0.0,0.0,0.0,2.3564,2.4302,2.4623,2.435,2.486,2.5007,0.0,0.0,0.0,0.0,0.0,0.0,0.0,0.0,0.0,0.0,0.0,0.0,0.0,0.0,0.0,0.0,0.0,0.0,0.0,0.0,0.0,0.0,0.0,0.0,0.0,0.0,0.0,0.0,0.0,0.0,0.0,0.0,0.0,0.0,0.0,0.0,0.0,0.0,0.0,0.0,0.0,0.0,0.0,0.0,0.0,0.0,0.0,0.0,0.0,0.0,0.0,0.0,0.0,0.0,0.0,0.0,0.0,0.0,0.0,0.0,0.0,0.0,0.0,0.0,0.0,0.0,0.0,0.0,0.0,0.0,0.0,0.0,0.0,0.0,0.0,0.0,0.0,0.0,0.0,0.0,0.0,0.0,0.0,0.0,0.0,0.0,0.0,0.0,0.0,0.0,0.0,0.0,0.0,0.0,0.0,0.0,0.0,0.0,0.0,0.0,0.0,0.0,0.0,0.0,0.0,0.0,0.0,0.0,0.0,2.3649,2.4355,2.478,2.4785,2.5234,2.5432,2.5395,0.0,0.0,0.0,0.0,0.0,0.0,0.0,0.0,0.0,0.0,0.0,0.0,0.0,0.0,0.0,0.0,0.0,0.0,0.0,0.0,0.0,0.0,0.0,0.0,0.0,0.0,0.0,0.0,0.0,0.0,0.0,0.0,0.0,0.0,0.0,0.0,0.0,0.0,0.0,0.0,0.0,0.0,0.0,0.0,0.0,0.0,0.0,0.0,0.0,0.0,0.0,0.0,0.0,0.0,0.0,0.0,0.0,0.0,0.0,0.0,0.0,0.0,0.0,0.0,0.0,0.0,0.0,0.0,0.0,0.0,0.0,0.0,0.0,0.0,0.0,0.0,0.0,0.0,0.0,0.0,0.0,0.0,0.0,0.0,0.0,0.0,0.0,0.0,0.0,0.0,0.0,0.0,0.0,0.0,0.0,0.0,0.0,0.0,0.0,0.0,0.0,0.0,0.0,0.0,0.0,0.0,0.0,0.0,2.4375,2.5185,2.5556,2.557,2.5471,2.5387,0.0,0.0,0.0,0.0,0.0,0.0,0.0,0.0,0.0,0.0,0.0,0.0,0.0,0.0,0.0,0.0,0.0,0.0,0.0,0.0,0.0,0.0,0.0,0.0,0.0,0.0,0.0,0.0,0.0,0.0,0.0,0.0,0.0,0.0,0.0,0.0,0.0,0.0,0.0,0.0,0.0,0.0,0.0,0.0,0.0,0.0,0.0,0.0,0.0,0.0,0.0,0.0,0.0,0.0,0.0,0.0,0.0,0.0,0.0,0.0,0.0,0.0,0.0,0.0,0.0,0.0,0.0,0.0,0.0,0.0,0.0,0.0,0.0,0.0,0.0,0.0,0.0,0.0,0.0,0.0,0.0,0.0,0.0,0.0,0.0,0.0,0.0,0.0,0.0,0.0,0.0,0.0,0.0,0.0,0.0,0.0,0.0,0.0,0.0,0.0,0.0,0.0,0.0,0.0,0.0,0.0,0.0,0.0,0.0,2.5274,2.544,2.5485,2.5461,2.5429,2.5378,0.0,0.0,0.0,0.0,0.0,0.0,0.0,0.0,0.0,0.0,0.0,0.0,0.0,0.0,0.0,0.0,0.0,0.0,0.0,0.0,0.0,0.0,0.0,0.0,0.0,0.0,0.0,0.0,0.0,0.0,0.0,0.0,0.0,0.0,0.0,0.0,0.0,0.0,0.0,0.0,0.0,0.0,0.0,0.0,0.0,0.0,0.0,0.0,0.0,0.0,0.0,0.0,0.0,0.0,0.0,0.0,0.0,0.0,0.0,0.0,0.0,0.0,0.0,0.0,0.0,0.0,0.0,0.0,0.0,0.0,0.0,0.0,0.0,0.0,0.0,0.0,0.0,0.0,0.0,0.0,0.0,0.0,0.0,0.0,0.0,0.0,0.0,0.0,0.0,0.0,0.0,0.0,0.0,0.0,0.0,0.0,0.0,0.0,0.0,0.0,0.0,0.0,0.0,0.0,0.0,0.0,0.0,0.0,2.5424,2.507,2.5331,2.5464,2.5393,2.5378,2.5303,0.0,0.0,0.0,0.0,0.0,0.0,0.0,0.0,0.0,0.0,0.0,0.0,0.0,0.0,0.0,0.0,0.0,0.0,0.0,0.0,0.0,0.0,0.0,0.0,0.0,0.0,0.0,0.0,0.0,0.0,0.0,0.0,0.0,0.0,0.0,0.0,0.0,0.0,0.0,0.0,0.0,0.0,0.0,0.0,0.0,0.0,0.0,0.0,0.0,0.0,0.0,0.0,0.0,0.0,0.0,0.0,0.0,0.0,0.0,0.0,0.0,0.0,0.0,0.0,0.0,0.0,0.0,0.0,0.0,0.0,0.0,0.0,0.0,0.0,0.0,0.0,0.0,0.0,0.0,0.0,0.0,0.0,0.0,0.0,0.0,0.0,0.0,0.0,0.0,0.0,0.0,0.0,0.0,0.0,0.0,0.0,0.0,0.0,0.0,0.0,0.0,0.0,0.0,0.0,0.0,0.0,0.0,0.0,2.5179,2.4588,2.5266,2.565,2.5646,2.5438,2.5264,0.0,0.0,0.0,0.0,0.0,0.0,0.0,0.0,0.0,0.0,0.0,0.0,0.0,0.0,0.0,0.0,0.0,0.0,0.0,0.0,0.0,0.0,0.0,0.0,0.0,0.0,0.0,0.0,0.0,0.0,0.0,0.0,0.0,0.0,0.0,0.0,0.0,0.0,0.0,0.0,0.0,0.0,0.0,0.0,0.0,0.0,0.0,0.0,0.0,0.0,0.0,0.0,0.0,0.0,0.0,0.0,0.0,0.0,0.0,0.0,0.0,0.0,0.0,0.0,0.0,0.0,0.0,0.0,0.0,0.0,0.0,0.0,0.0,0.0,0.0,0.0,0.0,0.0,0.0,0.0,0.0,0.0,0.0,0.0,0.0,0.0,0.0,0.0,0.0,0.0,0.0,0.0,0.0,0.0,0.0,0.0,0.0,0.0,0.0,0.0,0.0,0.0,0.0,0.0,0.0,0.0,0.0,0.0,2.5171,2.6304,2.6463,2.6784,2.7335,2.6025,2.5262,0.0,0.0,0.0,0.0,0.0,0.0,0.0,0.0,0.0,0.0,0.0,0.0,0.0,0.0,0.0,0.0,0.0,0.0,0.0,0.0,0.0,0.0,0.0,0.0,0.0,0.0,0.0,0.0,0.0,0.0,0.0,0.0,0.0,0.0,0.0,0.0,0.0,0.0,0.0,0.0,0.0,0.0,0.0,0.0,0.0,0.0,0.0,0.0,2.3235,0.0,0.0,0.0,0.0,0.0,0.0,0.0,0.0,0.0,0.0,0.0,0.0,0.0,0.0,0.0,0.0,0.0,0.0,0.0,0.0,0.0,0.0,0.0,0.0,0.0,0.0,0.0,0.0,0.0,0.0,0.0,0.0,0.0,0.0,0.0,0.0,0.0,0.0,0.0,0.0,0.0,0.0,0.0,0.0,0.0,0.0,0.0,0.0,0.0,0.0,0.0,0.0,0.0,0.0,0.0,0.0,0.0,0.0,0.0,2.5354,2.6262,2.6583,2.6751,2.6698,2.6168,2.5822,0.0,0.0,0.0,0.0,0.0,0.0,0.0,0.0,0.0,0.0,0.0,0.0,0.0,0.0,0.0,0.0,0.0,0.0,0.0,0.0,0.0,0.0,0.0,0.0,0.0,0.0,0.0,0.0,0.0,0.0,0.0,0.0,0.0,0.0,0.0,0.0,0.0,0.0,0.0,0.0,0.0,0.0,0.0,0.0,0.0,0.0,0.0,0.0,0.0,0.0,0.0,0.0,0.0,0.0,0.0,0.0,0.0,0.0,0.0,0.0,0.0,0.0,0.0,0.0,0.0,0.0,0.0,0.0,0.0,0.0,0.0,0.0,0.0,0.0,0.0,0.0,0.0,0.0,0.0,0.0,0.0,0.0,0.0,0.0,0.0,0.0,0.0,0.0,0.0,0.0,0.0,0.0,0.0,0.0,0.0,0.0,0.0,0.0,0.0,0.0,0.0,0.0,0.0,0.0,0.0,0.0,0.0,2.5402,2.5537,2.579,2.6389,2.6466,2.5976,2.6288,2.6466,2.6458,0.0,0.0,0.0,0.0,0.0,0.0,0.0,0.0,0.0,0.0,0.0,0.0,0.0,0.0,0.0,0.0,0.0,0.0,0.0,0.0,0.0,0.0,0.0,0.0,0.0,0.0,0.0,0.0,0.0,0.0,0.0,0.0,0.0,0.0,0.0,0.0,0.0,0.0,2.3873,2.3726,0.0,0.0,0.0,0.0,0.0,0.0,0.0,0.0,2.3063,0.0,0.0,0.0,0.0,0.0,0.0,0.0,0.0,0.0,0.0,0.0,0.0,0.0,0.0,0.0,0.0,0.0,0.0,0.0,0.0,0.0,0.0,0.0,0.0,0.0,0.0,0.0,0.0,0.0,0.0,0.0,0.0,0.0,0.0,0.0,0.0,0.0,0.0,0.0,0.0,0.0,0.0,0.0,0.0,0.0,0.0,0.0,0.0,0.0,0.0,0.0,0.0,0.0,0.0,0.0,0.0,2.5464,2.4846,2.5181,2.6553,2.666,2.7267,2.8394,2.7148,2.6683,2.7119,0.0,0.0,0.0,0.0,0.0,0.0,0.0,0.0,0.0,0.0,0.0,0.0,0.0,0.0,0.0,0.0,0.0,0.0,0.0,0.0,0.0,0.0,0.0,0.0,0.0,0.0,0.0,0.0,0.0,0.0,0.0,0.0,0.0,0.0,0.0,0.0,0.0,0.0,0.0,2.2761,2.2668,0.0,0.0,0.0,0.0,0.0,0.0,0.0,0.0,2.1837,0.0,0.0,0.0,0.0,0.0,0.0,0.0,0.0,0.0,0.0,0.0,0.0,0.0,0.0,0.0,0.0,0.0,0.0,0.0,0.0,0.0,0.0,0.0,0.0,0.0,0.0,0.0,0.0,0.0,0.0,0.0,0.0,0.0,0.0,0.0,0.0,0.0,0.0,0.0,0.0,0.0,0.0,0.0,0.0,0.0,0.0,0.0,0.0,0.0,0.0,0.0,0.0,0.0,0.0,0.0,2.5448,2.5563,2.5978,2.6738,2.7563,2.8125,2.8382,2.7551,2.6982,0.0,0.0,0.0,0.0,0.0,0.0,0.0,0.0,0.0,0.0,0.0,0.0,0.0,0.0,0.0,0.0,0.0,0.0,0.0,0.0,0.0,0.0,0.0,0.0,0.0,0.0,0.0,0.0,0.0,0.0,0.0,0.0,0.0,0.0,0.0,0.0,0.0,0.0,0.0,0.0,2.2815,2.2879,2.2482,0.0,0.0,0.0,0.0,0.0,0.0,2.2416,2.2082,0.0,0.0,0.0,0.0,0.0,0.0,0.0,0.0,0.0,0.0,0.0,0.0,0.0,0.0,0.0,0.0,0.0,0.0,0.0,0.0,0.0,0.0,0.0,0.0,0.0,0.0,0.0,0.0,0.0,0.0,0.0,0.0,0.0,0.0,0.0,0.0,0.0,0.0,0.0,0.0,0.0,0.0,0.0,0.0,0.0,0.0,0.0,0.0,0.0,0.0,0.0,0.0,0.0,0.0,0.0,2.544,2.6316,2.6769,2.6787,2.8145,2.8653,2.808,2.7623,2.7077,0.0,0.0,0.0,0.0,0.0,0.0,0.0,0.0,0.0,0.0,0.0,0.0,0.0,0.0,0.0,0.0,0.0,0.0,0.0,0.0,0.0,0.0,0.0,0.0,0.0,0.0,0.0,0.0,0.0,0.0,0.0,0.0,0.0,0.0,0.0,0.0,0.0,0.0,0.0,0.0,0.0,2.3298,2.2508,2.2946,0.0,0.0,0.0,0.0,2.3544,2.2785,0.0,0.0,0.0,0.0,0.0,0.0,0.0,0.0,0.0,0.0,0.0,0.0,0.0,0.0,0.0,0.0,0.0,0.0,0.0,0.0,0.0,0.0,0.0,0.0,0.0,0.0,0.0,0.0,0.0,0.0,0.0,0.0,0.0,0.0,0.0,0.0,0.0,0.0,0.0,0.0,0.0,0.0,0.0,0.0,0.0,0.0,0.0,0.0,0.0,0.0,0.0,0.0,0.0,0.0,0.0,0.0,2.5517,2.6304,2.6732,2.6823,2.7547,2.828,2.8902,2.7338,2.6716,0.0,0.0,0.0,0.0,0.0,0.0,0.0,0.0,0.0,0.0,0.0,0.0,0.0,0.0,0.0,0.0,0.0,0.0,0.0,0.0,0.0,0.0,0.0,0.0,0.0,0.0,0.0,0.0,0.0,0.0,0.0,0.0,0.0,0.0,0.0,0.0,0.0,0.0,0.0,0.0,0.0,2.357,2.3436,2.3318,2.3313,0.0,0.0,2.3365,2.3427,2.2476,0.0,0.0,0.0,0.0,0.0,0.0,0.0,0.0,0.0,0.0,0.0,0.0,0.0,0.0,0.0,0.0,0.0,0.0,0.0,0.0,0.0,0.0,0.0,0.0,0.0,0.0,0.0,0.0,0.0,0.0,0.0,0.0,0.0,0.0,0.0,0.0,0.0,0.0,0.0,0.0,0.0,0.0,0.0,0.0,0.0,0.0,0.0,0.0,0.0,0.0,0.0,0.0,0.0,0.0,0.0,2.5432,2.548,2.6771,2.743,2.7469,2.8602,2.9378,2.9704,2.8511,2.7665,0.0,0.0,0.0,0.0,0.0,0.0,0.0,0.0,0.0,0.0,0.0,0.0,0.0,0.0,0.0,0.0,0.0,0.0,0.0,0.0,0.0,0.0,0.0,0.0,0.0,0.0,0.0,0.0,0.0,0.0,0.0,0.0,0.0,0.0,0.0,0.0,0.0,0.0,0.0,0.0,0.0,0.0,2.361,2.3553,0.0,0.0,0.0,2.3319,2.3236,0.0,0.0,0.0,0.0,0.0,0.0,0.0,0.0,0.0,0.0,0.0,0.0,0.0,0.0,0.0,0.0,0.0,0.0,0.0,0.0,0.0,0.0,0.0,0.0,0.0,0.0,0.0,0.0,0.0,0.0,0.0,0.0,0.0,0.0,0.0,0.0,0.0,0.0,0.0,0.0,0.0,0.0,0.0,0.0,0.0,0.0,0.0,0.0,0.0,0.0,0.0,0.0,0.0,0.0,0.0,0.0,0.0,2.5445,2.7119,2.7952,2.7932,2.9452,3.0254,3.0188,2.9377,0.0,0.0,0.0,0.0,0.0,0.0,0.0,0.0,0.0,0.0,0.0,0.0,0.0,0.0,0.0,0.0,0.0,0.0,0.0,0.0,0.0,0.0,0.0,0.0,0.0,0.0,0.0,2.2541,0.0,0.0,0.0,0.0,0.0,0.0,0.0,0.0,0.0,0.0,0.0,0.0,0.0,0.0,2.402,2.3717,2.3667,2.3616,0.0,0.0,2.3289,2.3102,2.2807,2.2473,0.0,0.0,0.0,0.0,0.0,0.0,0.0,0.0,0.0,0.0,0.0,0.0,0.0,0.0,0.0,0.0,0.0,0.0,0.0,0.0,0.0,0.0,0.0,0.0,0.0,0.0,0.0,0.0,0.0,0.0,0.0,0.0,0.0,0.0,0.0,0.0,0.0,0.0,0.0,0.0,0.0,0.0,0.0,0.0,0.0,0.0,0.0,0.0,0.0,0.0,0.0,0.0,0.0,0.0,2.5374,2.5543,2.7091,2.7923,2.7933,2.9416,3.0207,3.0188,2.9231,2.8328,0.0,0.0,0.0,0.0,0.0,0.0,0.0,0.0,0.0,0.0,0.0,0.0,0.0,0.0,0.0,0.0,0.0,0.0,0.0,0.0,0.0,0.0,0.0,0.0,0.0,0.0,0.0,0.0,0.0,0.0,0.0,0.0,0.0,0.0,0.0,0.0,0.0,0.0,0.0,0.0,0.0,2.4098,2.3923,2.3717,2.354,0.0,2.3289,2.3151,2.3035,2.259,2.2124,2.1797,0.0,0.0,0.0,0.0,0.0,0.0,0.0,0.0,0.0,0.0,0.0,0.0,0.0,0.0,0.0,0.0,0.0,0.0,0.0,0.0,0.0,0.0,0.0,0.0,0.0,0.0,0.0,0.0,0.0,0.0,0.0,0.0,0.0,0.0,0.0,0.0,0.0,0.0,0.0,0.0,0.0,0.0,0.0,0.0,0.0,0.0,0.0,0.0,0.0,0.0,0.0,0.0,0.0,2.5663,2.6242,2.7334,2.8144,2.8651,2.9666,3.0185,3.0133,2.968,2.902,0.0,0.0,0.0,0.0,0.0,0.0,0.0,0.0,0.0,0.0,0.0,0.0,0.0,0.0,0.0,0.0,0.0,0.0,0.0,0.0,0.0,0.0,0.0,0.0,0.0,0.0,0.0,0.0,2.3014,2.2923,2.387,0.0,0.0,0.0,0.0,0.0,0.0,0.0,0.0,0.0,0.0,2.4154,2.404,2.3819,0.0,0.0,2.3265,2.3102,2.285,2.2571,2.2198,2.1645,2.1495,0.0,0.0,0.0,0.0,0.0,0.0,0.0,0.0,0.0,0.0,0.0,0.0,0.0,0.0,0.0,0.0,0.0,0.0,0.0,0.0,0.0,0.0,0.0,0.0,0.0,0.0,0.0,0.0,0.0,0.0,0.0,0.0,0.0,0.0,0.0,0.0,0.0,0.0,0.0,0.0,0.0,0.0,0.0,0.0,0.0,0.0,0.0,0.0,0.0,0.0,0.0,0.0,2.5809,2.6702,2.7489,2.8277,2.906,2.978,3.0157,3.0094,2.9905,2.9391,0.0,0.0,0.0,0.0,0.0,0.0,0.0,0.0,0.0,0.0,0.0,0.0,0.0,0.0,0.0,0.0,0.0,0.0,0.0,0.0,0.0,0.0,0.0,0.0,0.0,0.0,0.0,0.0,2.3639,2.3416,2.3862,0.0,0.0,0.0,0.0,0.0,0.0,0.0,0.0,0.0,0.0,2.4265,2.4229,2.3961,2.3667,2.3394,2.3271,2.3095,2.2747,2.2588,2.2298,2.1675,0.0,0.0,0.0,0.0,0.0,0.0,0.0,0.0,0.0,0.0,0.0,0.0,0.0,0.0,0.0,0.0,0.0,0.0,0.0,0.0,0.0,0.0,0.0,0.0,0.0,0.0,0.0,2.5601,0.0,0.0,2.5601,0.0,0.0,0.0,0.0,0.0,0.0,0.0,0.0,0.0,0.0,0.0,0.0,0.0,0.0,0.0,0.0,0.0,0.0,0.0,0.0,0.0,0.0,2.5772,2.6702,2.7528,2.8255,2.9017,2.9721,3.0094,3.0083,2.9769,2.9194,2.8368,0.0,0.0,0.0,0.0,0.0,0.0,0.0,0.0,0.0,0.0,0.0,0.0,0.0,0.0,0.0,0.0,0.0,0.0,0.0,0.0,0.0,0.0,0.0,0.0,0.0,0.0,2.4403,2.4229,2.4002,0.0,0.0,0.0,0.0,0.0,0.0,0.0,0.0,0.0,2.4173,2.4366,2.4414,2.4476,2.4173,2.3795,2.3522,2.3307,2.3077,2.2764,2.2588,2.2343,0.0,0.0,0.0,0.0,0.0,0.0,0.0,0.0,0.0,0.0,0.0,0.0,0.0,0.0,0.0,0.0,0.0,0.0,0.0,0.0,0.0,0.0,0.0,0.0,0.0,0.0,0.0,2.5568,2.5531,0.0,0.0,0.0,0.0,0.0,0.0,0.0,0.0,0.0,0.0,0.0,2.5203,2.5088,0.0,0.0,0.0,0.0,0.0,0.0,0.0,0.0,0.0,0.0,0.0,0.0,2.6369,2.8307,2.8078,2.8544,2.9824,3.0008,3.0079,3.0038,2.9278,2.8108,2.6526,0.0,0.0,0.0,0.0,0.0,0.0,0.0,0.0,0.0,0.0,0.0,0.0,0.0,0.0,0.0,0.0,0.0,0.0,0.0,0.0,0.0,0.0,0.0,0.0,0.0,2.4097,0.0,0.0,0.0,0.0,0.0,0.0,0.0,0.0,0.0,0.0,2.3034,2.3025,2.4099,2.4262,2.4258,2.4229,2.3961,2.3689,0.0,0.0,0.0,0.0,0.0,0.0,0.0,0.0,0.0,0.0,0.0,0.0,0.0,0.0,2.0603,2.1022,2.1334,2.1502,2.1393,0.0,0.0,0.0,0.0,0.0,0.0,0.0,0.0,0.0,0.0,0.0,0.0,0.0,0.0,2.5544,2.5505,2.549,0.0,0.0,0.0,0.0,0.0,0.0,0.0,0.0,2.5172,2.5137,2.5132,2.5025,2.4953,2.4953,2.4879,2.4851,0.0,0.0,0.0,0.0,0.0,0.0,0.0,0.0,2.7121,2.875,2.8492,2.8925,3.0203,3.0133,3.0034,2.9937,2.9244,2.7923,2.5944,2.6261,2.5786,0.0,0.0,0.0,0.0,0.0,0.0,0.0,0.0,0.0,0.0,0.0,0.0,0.0,0.0,0.0,0.0,0.0,0.0,0.0,0.0,0.0,0.0,0.0,2.4339,0.0,0.0,0.0,0.0,0.0,0.0,0.0,0.0,0.0,2.3427,2.2642,2.2507,2.389,2.3861,2.3803,2.4099,0.0,0.0,0.0,0.0,0.0,0.0,0.0,2.2304,2.1797,2.1464,2.1007,2.0258,1.9609,1.9038,1.8586,0.0,0.0,1.997,2.0338,2.0518,2.0487,2.0636,2.0799,2.0799,2.0989,2.1241,0.0,0.0,0.0,0.0,2.5386,0.0,0.0,0.0,2.5499,2.5492,0.0,2.541,0.0,0.0,0.0,0.0,2.5387,2.5332,0.0,0.0,2.5132,2.5076,2.505,2.4964,2.4898,2.4884,2.4768,2.4745,2.4745,2.4884,2.4996,0.0,0.0,0.0,0.0,0.0,2.7913,2.8109,2.8683,2.9428,3.0273,3.0113,2.9937,2.9851,2.9608,2.8535,2.6677,2.6374,2.5895,2.5074,2.4936,0.0,0.0,0.0,0.0,0.0,0.0,0.0,0.0,0.0,0.0,0.0,0.0,0.0,0.0,0.0,0.0,0.0,0.0,0.0,0.0,2.4266,0.0,0.0,0.0,0.0,0.0,0.0,0.0,0.0,0.0,2.2472,2.3293,2.1954,2.16,2.351,0.0,0.0,0.0,0.0,2.3649,2.35,2.3259,2.2995,2.2738,2.2632,2.2398,2.1886,0.0,0.0,1.9929,1.9121,1.8641,1.8574,1.8495,1.8598,1.9426,1.9546,1.9564,1.9783,1.9884,1.9958,2.0125,2.0286,2.0496,2.6037,0.0,0.0,0.0,0.0,2.512,2.5197,2.551,2.5449,2.5401,2.534,2.5235,0.0,0.0,0.0,0.0,0.0,0.0,2.5587,2.6032,2.5392,2.5425,2.5965,2.5302,2.4945,2.4903,2.4817,2.5027,2.5541,2.5592,2.5699,2.588,0.0,0.0,0.0,0.0,2.7624,2.8857,2.9011,2.9459,3.0292,3.0161,2.969,2.887,2.927,2.8311,2.5849,2.6115,2.5651,2.4263,2.459,0.0,0.0,0.0,0.0,0.0,0.0,0.0,0.0,0.0,0.0,0.0,0.0,0.0,0.0,0.0,0.0,0.0,0.0,0.0,2.4192,2.4134,2.4057,0.0,0.0,0.0,0.0,0.0,0.0,0.0,0.0,0.0,2.3111,2.1804,2.1333,0.0,0.0,2.2878,2.3728,2.371,2.3553,2.3324,2.3028,0.0,2.2712,2.2398,2.2101,2.1899,2.1617,2.1284,2.0893,2.0422,2.0003,1.9852,1.9294,1.8877,1.908,1.9018,1.8898,1.8921,1.9109,1.9317,1.9419,1.9681,2.001,2.6685,2.5767,2.5513,2.5336,2.5231,2.5581,2.5822,2.5953,2.6264,2.6333,2.6209,2.6101,2.6041,2.5996,2.571,0.0,0.0,0.0,2.6014,2.639,2.5844,2.5666,2.5806,2.5264,2.5134,2.5376,2.5307,2.5812,2.6854,2.652,2.6739,2.745,0.0,2.62,2.6749,2.7323,2.7952,2.8734,2.9289,2.9805,3.0228,3.0098,2.9512,2.8461,2.9063,2.8437,2.6415,2.6559,2.6067,2.4748,2.5273,2.545,0.0,0.0,0.0,0.0,0.0,0.0,0.0,0.0,0.0,0.0,0.0,2.3789,2.4014,0.0,0.0,0.0,2.4172,2.4191,2.4192,2.4057,0.0,0.0,0.0,0.0,0.0,0.0,0.0,2.3289,2.3064,2.2823,2.2604,2.1696,2.1481,2.2513,2.2469,2.2634,2.3424,0.0,2.3435,2.3265,2.2995,2.2764,2.2685,2.2354,2.2144,2.2132,2.2082,2.1921,2.1796,2.1245,2.0781,2.0612,1.9838,1.9156,1.9168,1.884,1.8489,1.8347,1.862,1.8874,1.8983,1.9295,1.969,2.7339,2.7047,2.6409,2.5785,2.5264,2.6104,2.6535,2.6734,2.7525,2.7785,2.7586,2.7518,2.7418,2.7255,2.6648,0.0,2.6588,2.6588,2.6586,2.6477,2.6376,2.5956,2.5294,2.5162,2.5532,2.6321,2.6233,2.696,2.8297,2.7587,2.7941,2.9304,2.811,2.6726,2.5488,2.7746,2.8651,2.8018,2.9502,3.0248,3.0188,2.9988,2.9448,2.8537,2.9024,2.8817,2.7743,2.7385,2.6826,2.605,2.6454,2.6366,2.572,0.0,0.0,0.0,0.0,0.0,0.0,0.0,0.0,0.0,0.0,0.0,0.0,0.0,0.0,0.0,2.4113,0.0,2.4265,2.4014,0.0,0.0,0.0,2.3241,2.3119,2.297,2.2927,2.3077,0.0,0.0,2.1966,2.1739,2.1915,2.2773,2.2398,2.2371,2.3183,2.3313,2.3336,2.3265,2.3028,2.2773,2.2596,2.2473,2.2429,2.2556,2.2684,2.2765,2.2607,2.1884,2.1286,2.1262,2.0284,1.9515,1.9473,1.8981,1.84,1.8121,1.8333,1.8606,1.8788,1.9132,1.9551,2.8501,2.782,2.8289,2.7793,2.6701,2.6976,2.7167,2.7306,2.7555,2.7592,2.7424,2.7324,2.7245,2.7213,2.7146,2.7224,2.7331,2.735,2.7641,2.8127,2.689,2.6877,2.7813,2.6588,2.6731,2.7998,2.7964,2.8351,2.9157,2.9006,2.8721,2.8378,2.8221,2.8016,2.7778,2.7897,2.8179,2.8676,2.9685,3.0171,3.0049,2.9943,2.9677,2.9251,2.9341,2.8817,2.767,2.6918,2.632,2.5886,2.592,2.6021,2.6216,2.7109,0.0,0.0,0.0,0.0,0.0,0.0,0.0,0.0,0.0,2.3407,2.3589,0.0,2.3795,0.0,2.3996,2.4192,2.4754,2.4024,0.0,0.0,2.3271,2.3119,2.3045,2.2919,2.2876,2.302,2.2859,2.2746,2.2772,2.2574,2.2495,2.2721,2.2169,2.2081,2.3063,2.307,2.297,2.302,2.2764,2.2497,2.2483,2.2622,2.287,2.3129,2.3468,2.3705,2.3721,2.3394,2.2975,2.2498,2.144,2.0541,2.0175,1.9262,1.852,1.8279,1.8528,1.875,1.8792,1.9121,1.9515,2.9173,2.8674,2.914,2.9113,2.869,2.8544,2.8324,2.816,2.8536,2.8631,2.8458,2.8237,2.7941,2.7658,2.7796,2.7929,2.8089,2.8118,2.8379,2.8764,2.8213,2.8255,2.8734,2.8154,2.8575,2.9794,2.9641,3.0133,3.1085,3.0346,2.9829,2.9566,2.8663,2.8465,2.8857,2.8354,2.8474,2.9292,3.0579,3.1004,3.0544,3.0461,3.0302,3.0034,2.9578,2.9126,2.8688,2.7833,2.7067,2.6473,2.6675,2.6748,2.6616,2.7344,2.7736,0.0,0.0,0.0,0.0,0.0,0.0,0.0,0.0,0.0,0.0,0.0,2.3898,2.4513,2.4504,2.4741,2.552,2.4522,2.3832,2.3808,2.3312,2.2927,2.2919,2.2816,2.279,2.2876,2.279,2.2738,2.285,2.2747,2.2685,2.2676,2.2569,2.2579,2.2825,2.2842,2.2816,2.2842,2.2623,2.2485,2.2671,2.3045,2.3472,2.3984,2.4317,2.442,2.4155,2.3891,2.3445,2.2621,2.1718,2.0942,2.0462,1.9617,1.8865,1.8697,1.8798,1.8879,1.8906,1.9156,1.9545,2.9698,2.9662,2.9681,3.0113,3.0754,3.0245,2.9693,2.9193,2.9931,3.0124,2.9923,2.9623,2.9169,2.867,2.8708,2.8832,2.9001,2.9076,2.9034,2.8981,2.9779,2.9747,2.9055,2.9737,3.0587,3.1479,3.1205,3.1765,3.3039,3.1477,3.0927,3.1302,2.9444,2.886,2.9553,2.9286,2.9385,2.9956,3.1631,3.2046,3.1197,3.109,3.0941,3.0665,2.9718,2.9406,2.9776,2.8991,2.8178,2.7399,2.779,2.7682,2.6957,2.7338,2.7587,0.0,2.7265,0.0,0.0,0.0,0.0,0.0,0.0,0.0,0.0,2.3626,2.436,2.5431,2.5339,2.5543,2.6283,2.5255,2.4484,2.4284,2.358,2.3076,2.2989,2.2876,2.285,2.2929,2.279,2.2659,2.2659,2.2685,2.2685,2.2684,2.3189,2.3346,2.2807,2.2904,2.3108,2.2961,2.2771,2.2852,2.3053,2.3552,2.4099,2.4693,2.479,2.4726,2.4109,2.3696,2.3092,2.2179,2.1565,2.106,2.0513,1.987,1.9354,1.913,1.9153,1.9159,1.9089,1.9284,1.9581,3.0708,3.1201,3.1201,3.1433,3.1744,3.1035,3.0603,3.0453,3.0767,3.0825,3.0697,3.0523,3.0723,3.1136,3.0715,3.0509,3.0489,3.065,3.0357,2.9715,3.0568,3.0871,3.0739,3.089,3.1762,3.3089,3.2297,3.1989,3.2227,3.1712,3.114,3.0478,3.0822,3.1057,3.1251,0.0,0.0,0.0,3.1751,3.1864,3.1073,3.0884,3.0706,3.0504,2.9628,0.0,2.8925,2.81,2.777,2.7987,2.7496,0.0,0.0,0.0,0.0,0.0,0.0,0.0,0.0,0.0,0.0,0.0,2.4188,2.4333,2.4534,2.5076,2.5774,2.6646,2.6195,2.6104,2.6694,2.5861,2.4954,2.4314,2.4485,2.44,2.3794,2.3581,2.3526,2.3608,2.2976,2.2598,2.2721,2.2773,2.2773,2.2798,2.3438,2.3682,2.3248,2.3708,2.4198,2.4333,2.3981,2.359,2.3034,2.3901,2.4525,2.4574,2.4312,2.4065,2.3779,2.3088,2.2467,2.1894,2.1424,2.0948,2.054,2.0042,1.9617,1.9581,1.9581,1.9546,1.9429,1.9509,1.9812,3.1433,3.1691,3.1691,3.1805,0.0,3.165,3.1483,3.1427,3.1204,3.1016,3.0827,3.0317,3.0534,3.1176,3.0581,3.0715,3.135,3.0771,3.0727,3.1107,3.1522,3.1956,3.239,3.2844,3.3468,3.4263,3.3674,3.3346,3.3285,3.2627,3.1829,3.0964,3.1347,3.1389,3.1108,3.1991,3.235,3.2081,3.2555,3.2575,3.2081,3.1547,3.1384,3.1663,3.0757,0.0,0.0,0.0,0.0,0.0,0.0,0.0,0.0,2.763,2.7417,2.7006,2.6485,2.61,2.5832,2.5396,2.5044,2.4855,2.5146,2.5236,2.5017,2.524,2.5888,2.6979,2.6677,2.6668,2.7342,2.6553,2.5768,2.5244,2.5125,2.493,2.4527,2.4373,2.4207,2.3839,2.3416,2.3055,2.272,2.2825,2.2885,2.2937,2.3883,2.4505,2.4185,2.4286,2.4492,2.4475,2.4337,2.4166,2.413,2.4381,2.4937,2.5045,2.4788,2.427,2.3833,2.3181,2.2478,2.1736,2.1264,2.0901,2.0354,2.0023,1.9812,1.9726,1.9711,1.9771,1.9782,1.9839,1.996,3.2143,3.2228,3.2377,3.2404,3.2381,3.2486,3.2437,3.2294,3.16,0.0,0.0,3.0485,3.0532,3.1129,3.0536,3.0934,3.2035,3.0941,3.1167,3.2505,3.2807,3.3336,3.4036,3.4754,3.5001,3.4831,3.4559,3.4287,3.3966,3.3227,3.2445,3.1742,3.1783,3.1569,3.1214,3.2539,3.3301,3.3347,3.3481,3.3406,3.3142,3.2344,3.2214,3.2841,3.1703,3.1024,3.0767,2.998,2.9178,2.8434,2.8362,2.8248,2.8029,2.7792,2.7532,2.7162,2.6759,2.6452,2.617,2.6026,2.5864,2.5663,2.5885,2.5865,2.5372,2.5357,2.5869,2.7084,2.7041,2.7232,2.7883,2.7256,2.6643,2.6301,2.5837,2.545,2.5212,2.5028,2.4752,2.4253,2.3784,2.3388,2.2924,2.2894,2.3006,2.3206,2.4242,2.5248,2.5162,2.5039,2.4772,2.426,2.4305,2.4555,2.4796,2.4843,2.5067,2.5587,2.5243,2.4617,2.3863,2.3204,2.2401,2.1285,2.1105,2.091,2.0381,2.0304,2.0193,2.0035,1.9965,1.9975,2.0096,2.0137,2.0224,3.332,3.3846,3.4637,3.4694,3.422,3.4132,3.3783,3.3236,3.2429,3.2447,3.3105,3.2889,3.3178,3.3803,3.306,3.2839,3.3088,3.291,3.3011,3.341,3.4806,3.5562,3.5675,3.5788,3.5426,3.4628,3.3805,3.263,3.1443,3.2321,3.2385,3.182,3.2882,3.3541,3.3593,3.3846,3.3957,3.3981,3.4035,3.3696,3.2865,3.2612,3.2537,3.2573,3.1013,3.0049,2.9891,2.9071,2.8505,2.8345,2.8788,2.8989,2.8823,2.8578,2.8211,2.7708,2.6909,2.6314,2.6046,2.577,2.56,2.5454,2.5492,2.573,2.6185,2.6631,2.7051,2.7413,2.7531,2.7712,2.7801,2.7643,2.7216,2.6627,2.6882,2.6844,2.607,2.5317,2.5129,2.5562,2.3813,2.2982,2.3529,2.3185,2.3058,2.3606,2.4458,2.5092,2.5781,2.6184,2.5615,2.4563,2.4661,2.4712,2.4464,2.4526,2.4991,2.5395,2.4906,2.4185,2.3268,2.2477,2.1761,2.0725,2.1008,2.1172,2.1095,2.1152,2.1152,2.107,2.0751,2.0485,2.0534,2.0603,2.0673,3.5187,3.5406,3.5516,3.5118,3.4446,3.4536,3.4151,3.3633,3.4517,3.4348,3.3463,3.2893,3.3072,3.3639,3.2957,3.3088,3.3889,3.3527,3.389,3.4816,3.5587,3.6193,3.6651,3.6651,3.6443,3.6045,3.545,3.4736,3.4069,3.4448,3.4236,3.3537,3.4146,3.4669,3.5156,3.5256,3.522,3.5064,3.3991,3.342,3.3375,3.2834,3.2763,3.3148,3.1829,3.0839,3.0296,2.944,2.8945,2.8788,2.904,2.9266,2.9457,2.935,2.8866,2.7981,2.7468,2.6905,2.6206,2.6026,2.5897,2.5844,2.5828,2.601,2.6486,2.6657,2.699,2.7442,2.7574,2.76,2.7604,2.7689,2.7502,2.687,2.7274,2.7326,2.683,2.6378,2.6073,2.6027,2.5039,2.433,2.4414,2.4057,2.395,2.4514,2.5045,2.551,2.5782,2.6044,2.599,2.5325,2.548,2.548,2.5022,2.5089,2.5334,2.5492,2.5083,2.4535,2.3894,2.3011,2.217,2.1982,2.1728,2.1507,2.1753,2.1846,2.1883,2.1837,2.1466,2.1217,2.1392,2.1544,2.1604,3.6435,3.6159,3.6096,3.5715,3.515,3.5405,3.5061,3.4553,3.6528,3.6283,3.4365,3.3364,3.317,3.344,3.3093,3.3599,3.4585,3.4367,3.5011,3.6348,3.6441,3.6896,3.7638,3.7562,3.7359,3.7209,3.6924,3.6578,3.6205,3.6178,3.5936,3.5395,3.5373,3.5645,3.6124,3.6366,3.6325,3.5891,3.4321,3.3695,3.4027,3.3186,3.3022,3.3552,3.2653,3.1794,3.1078,3.022,2.9647,2.9444,2.9526,2.9744,3.0033,2.997,2.9506,2.8595,2.8081,2.7415,2.6395,2.6391,2.6419,2.6366,2.6366,2.6526,2.6756,2.6553,2.6657,2.7261,2.7373,2.7373,2.7386,2.76,2.7582,2.723,2.7478,2.7557,2.7279,2.7029,2.6774,2.6341,2.5908,2.5333,2.515,2.4837,2.4758,2.5085,2.5646,2.5876,2.5646,2.5855,2.6013,2.5911,2.5793,2.5545,2.5573,2.5277,2.5264,2.5433,2.5339,2.4932,2.4492,2.3452,2.2847,2.291,2.2385,2.2086,2.2424,2.254,2.2516,2.2384,2.2082,2.2086,2.2449,2.2588,2.2607,3.6056,3.5578,3.6823,3.7534,3.7534,3.7796,3.7399,3.6878,3.7793,3.7662,3.6596,3.5897,3.5127,3.4636,3.5071,3.5464,3.5799,3.6325,3.7061,3.7962,3.8075,3.8544,3.9226,3.8606,3.7746,3.7111,3.697,3.6273,3.4951,3.5827,3.6211,3.6113,3.6644,3.6693,3.6355,3.6772,3.6741,3.6172,3.5811,3.5302,3.4611,3.3887,3.3504,3.352,3.2672,3.2105,3.1815,3.1009,3.0339,3.0106,3.0527,3.0748,3.0647,3.047,3.0255,2.9921,2.8569,2.7274,2.6391,2.6836,2.7061,2.6944,2.6911,2.7028,2.7322,2.682,2.6572,2.6957,2.704,2.712,2.7213,2.7448,2.7526,2.7355,2.7677,2.7766,2.7192,2.6561,2.6358,2.6886,2.5678,2.4842,2.5572,2.5055,2.4645,2.5238,2.5865,2.6118,2.5818,2.6005,2.6016,2.5586,2.48,2.4374,2.4606,2.4202,2.4502,2.5196,2.5378,2.4994,2.4241,2.3748,2.3351,2.3041,2.2723,2.29,2.3172,2.3257,2.315,2.2985,2.2896,2.2968,2.3282,2.3414,2.3375,3.7548,3.7195,3.7458,3.7497,3.7436,3.7947,3.7778,3.7249,3.8488,3.8338,3.7211,3.7249,3.6836,3.6104,3.6396,3.6546,3.6667,3.7408,3.7933,3.8394,3.9295,3.9952,4.0272,4.0478,4.0188,3.9656,3.9119,3.8331,3.7555,3.7467,3.7466,3.7439,3.7735,3.7731,3.7471,3.7699,3.7667,3.7371,3.6848,3.6354,3.586,3.4812,3.3971,3.3386,3.2462,3.193,3.1799,3.0993,3.0665,3.0928,3.1185,3.1372,3.1533,3.1372,3.0984,3.0284,2.8653,2.7549,2.7192,2.6969,2.6814,2.6762,2.7161,2.73,2.7041,2.7549,2.7654,2.6894,2.6923,2.6989,2.7055,2.722,2.7333,2.7279,2.7509,2.7569,2.7369,2.6908,2.6811,2.7129,2.6345,2.5827,2.6313,2.6017,2.5662,2.5743,2.6066,2.6076,2.5458,2.5642,2.5615,2.5021,2.4366,2.4362,2.4777,2.4475,2.4498,2.4958,2.5278,2.4994,2.4547,2.3936,2.3639,2.3576,2.3418,2.3573,2.4138,2.4104,2.398,2.3857,2.4004,2.4092,2.3377,2.3919,2.4398,3.84,3.8144,3.7923,3.7692,3.7437,3.8119,3.8128,3.7853,3.9045,3.8858,3.7882,3.8364,3.8289,3.7746,3.753,3.7418,3.753,3.8281,3.877,3.9089,4.0253,4.0772,4.0757,4.1282,4.1297,4.082,4.0081,3.9743,3.9593,3.901,3.8601,3.8601,3.8601,3.8492,3.8361,3.8456,3.8407,3.8101,3.7555,3.7076,3.6669,3.5678,3.4627,3.3665,3.2667,3.2163,3.2067,3.1505,3.1298,3.1593,3.1561,3.1637,3.1768,3.1691,3.1199,3.0241,2.9039,2.8205,2.8056,2.7629,2.7425,2.7513,2.8,2.8104,2.782,2.8226,2.8195,2.7503,2.7029,2.6842,2.6891,2.7061,2.7144,2.7105,2.731,2.7417,2.7247,2.7023,2.7006,2.7152,2.6621,2.6489,2.6657,2.6469,2.6206,2.5983,2.6028,2.5909,2.5196,2.5334,2.5373,2.4665,2.4351,2.4409,2.5016,2.4623,2.4563,2.4869,2.5123,2.5123,2.4926,2.432,2.4038,2.4058,2.3823,2.3838,2.434,2.4527,2.4639,2.4918,2.4852,2.4624,2.4265,2.4879,2.5451,3.7899,3.7484,3.8206,3.8505,3.8536,3.8934,3.9117,3.895,3.9343,3.9401,3.9245,3.9268,3.9324,3.9137,3.8465,3.8239,3.8375,3.9145,3.9896,4.0516,4.0753,4.0675,4.043,4.0449,4.0058,3.9586,3.9349,3.9313,3.9641,3.9486,3.9402,3.9315,3.9224,3.8914,3.8422,3.8773,3.8775,3.8106,3.7877,3.7467,3.6786,3.6433,3.5574,3.4325,3.3445,3.2921,3.2809,3.2809,3.2482,3.1914,3.1754,3.1531,3.1117,3.1032,3.0616,2.9889,2.9683,2.9331,2.8758,2.9042,2.9437,2.958,2.9492,2.9676,2.9407,2.8592,2.8224,2.8755,2.7448,2.6724,2.6858,2.6995,2.7062,2.7057,2.7181,2.7068,2.6742,2.6825,2.6708,2.6641,2.647,2.6303,2.6108,2.603,2.5999,2.5896,2.5821,2.567,2.5535,2.5438,2.5275,2.4962,2.4509,2.4196,2.4837,2.4496,2.4341,2.4713,2.4966,2.4966,2.4751,2.4558,2.4589,2.4549,2.4384,2.4368,2.4542,2.4735,2.4902,2.4904,2.4422,2.4232,2.4694,2.5648,2.6085,3.8434,3.8631,3.8478,3.8771,3.9294,3.8988,3.8902,3.8989,3.9082,3.911,3.911,3.9082,3.9082,3.9064,3.8822,3.8827,3.9102,3.9765,4.0288,4.075,4.1008,4.1136,4.1165,4.1059,4.1046,4.0919,4.0464,4.0244,4.0071,3.9552,3.9229,3.9103,3.8688,3.8274,3.8111,3.8186,3.8079,3.7863,3.7685,3.7397,3.7039,3.6468,3.5651,3.4693,3.391,3.3286,3.2722,3.2657,3.2489,3.2108,3.193,3.1637,3.1235,3.1015,3.0811,3.0453,2.9978,2.9555,2.9326,2.9048,2.8965,2.9135,2.9571,2.9638,2.9349,2.913,2.9036,2.8706,2.7935,2.7324,2.7279,2.7011,2.6826,2.7072,2.7021,2.6989,2.7006,2.6859,2.6691,2.6725,2.6572,2.6251,2.6016,2.5864,2.5766,2.5707,2.5583,2.5496,2.5426,2.5317,2.5146,2.5013,2.4674,2.443,2.4601,2.4257,2.406,2.4508,2.4846,2.4926,2.4846,2.4831,2.4791,2.4751,2.4686,2.4686,2.4791,2.4823,2.5003,2.4734,2.4269,2.4441,2.5092,2.5727,2.6049,3.9329,3.9621,3.8896,3.8961,3.944,3.8789,3.8541,3.8683,3.8743,3.8773,3.8725,3.8695,3.8823,3.9007,3.8793,3.9195,3.9872,3.9917,4.0335,4.1146,4.1026,4.1083,4.1292,4.1199,4.1115,4.119,4.1245,4.1051,4.0782,4.0166,3.9733,3.9445,3.8672,3.8151,3.7864,3.7721,3.7631,3.7595,3.7411,3.7261,3.7055,3.6496,3.5752,3.4906,3.4364,3.3617,3.2611,3.2472,3.2318,3.2073,3.1839,3.1487,3.0982,3.099,3.09,3.0634,3.0202,2.9886,2.9852,2.9413,2.922,2.9359,2.9794,2.9884,2.9602,2.9736,2.9698,2.9347,2.8223,2.7628,2.7771,2.7105,2.6571,2.6892,2.6758,2.6708,2.694,2.6674,2.6538,2.6539,2.6367,2.6115,2.5884,2.5728,2.5632,2.5506,2.5381,2.5294,2.5217,2.5084,2.495,2.4846,2.4719,2.4511,2.4549,2.4262,2.4099,2.4505,2.4726,2.4846,2.4942,2.4966,2.4966,2.495,2.491,2.491,2.4926,2.4955,2.4808,2.4575,2.4473,2.4572,2.511,2.5586,2.5961,4.042,4.0293,3.9517,3.9193,3.9265,3.85,3.8168,3.835,3.8474,3.8506,3.8427,3.8325,3.8816,3.914,3.8743,3.9279,4.0427,3.9706,4.0277,4.1936,4.0898,4.0538,4.0964,4.0842,4.0431,3.9824,4.0833,4.1405,4.1405,4.1205,4.0809,4.0127,3.9282,3.8456,3.7721,3.7595,3.7503,3.7392,3.7185,3.6974,3.6776,3.647,3.5832,3.4947,3.4692,3.3933,3.2494,3.2371,3.2142,3.1869,3.1534,3.0975,3.0582,3.0931,3.0986,3.0405,3.0368,3.0368,3.0225,3.0352,3.0418,3.0442,3.0575,3.058,3.0679,3.0068,2.9878,3.0381,2.8913,2.7744,2.8343,2.7394,2.6495,2.6537,2.6486,2.6347,2.6293,2.6239,2.6118,2.6052,2.5994,2.581,2.5651,2.5593,2.5502,2.5326,2.5217,2.5107,2.5005,2.4902,2.4726,2.4605,2.4533,2.4492,2.441,2.4369,2.441,2.4482,2.4564,2.4686,2.4766,2.4846,2.4871,2.4831,2.4886,2.4886,2.4958,2.4948,2.4869,2.4738,2.4649,2.473,2.5227,2.5726,2.6003,4.0671,4.0903,3.9643,3.9751,4.0285,3.8672,3.8385,3.9226,3.8869,3.8618,3.869,3.9119,3.9209,3.9084,3.9191,4.0001,4.0921,4.0113,4.0615,4.1959,4.1393,4.1142,4.1324,4.0727,4.0473,4.0849,4.1669,4.2109,4.1904,4.1435,4.0695,3.9911,3.905,3.8231,3.7574,3.7337,3.7185,3.7087,3.6851,3.655,3.6256,3.5616,3.5028,3.4567,3.3998,3.3422,3.2883,3.2451,3.2156,3.1918,3.1633,3.1314,3.1079,3.1155,3.0942,3.032,3.0231,3.029,3.0231,3.0316,3.0443,3.0427,3.012,3.0225,3.0717,2.9711,2.9627,3.0593,2.9226,2.8417,2.8943,2.839,2.7417,2.6741,2.6434,2.6324,2.6343,2.6148,2.5905,2.575,2.5721,2.5594,2.5468,2.5404,2.5333,2.5201,2.5107,2.5029,2.4902,2.4742,2.4645,2.4523,2.4451,2.4395,2.4369,2.4343,2.4343,2.44,2.4482,2.458,2.4645,2.4726,2.4751,2.4751,2.4806,2.4831,2.4902,2.4894,2.4776,2.4941,2.4971,2.5173,2.5513,2.5826,2.6118,4.1328,4.1497,4.028,4.0259,4.0873,3.907,3.8795,3.9492,3.9124,3.8854,3.8921,3.9345,3.9527,3.939,3.9545,4.0258,4.1138,4.0494,4.0849,4.1868,4.123,4.1097,4.1391,4.0843,4.0849,4.1582,4.2091,4.2282,4.2163,4.1618,4.0937,4.0076,3.9279,3.8439,3.7623,3.7115,3.6873,3.6731,3.6385,3.6088,3.5769,3.5193,3.4734,3.4471,3.3968,3.3661,3.3516,3.2912,3.2484,3.235,3.2293,3.1961,3.125,3.132,3.112,3.0245,3.006,3.0119,3.0119,3.0162,3.0274,3.0344,3.0055,3.0111,3.054,2.9765,2.9892,3.0463,2.9603,2.8969,2.931,2.8784,2.8004,2.7281,2.7105,2.6829,2.6651,2.6332,2.5987,2.5733,2.554,2.541,2.5288,2.5194,2.5123,2.5029,2.495,2.4855,2.4726,2.4605,2.4523,2.4441,2.4385,2.4343,2.4302,2.4261,2.4261,2.4317,2.44,2.4498,2.458,2.4645,2.4655,2.463,2.4686,2.4605,2.4655,2.4599,2.4552,2.4822,2.51,2.5457,2.5743,2.6002,2.6286,4.2145,4.1955,4.115,4.0731,4.0683,3.9658,3.9245,3.9268,3.9213,3.9153,3.906,3.9355,3.9721,4.0044,3.9623,4.0175,4.1209,4.0674,4.0752,4.122,4.0737,4.0499,4.1019,4.1037,4.1333,4.1853,4.2012,4.2005,4.1987,4.1856,4.1495,4.051,3.9823,3.9042,3.7988,3.7091,3.6596,3.636,3.589,3.5531,3.5374,3.4961,3.4828,3.4607,3.4364,3.4202,3.4023,3.3518,3.3118,3.3051,3.311,3.2523,3.1383,3.1578,3.1269,2.9984,2.9907,2.9946,2.9946,3.0033,3.0189,3.0316,3.0168,3.0468,3.0608,3.0327,3.0203,3.0673,2.9969,2.9459,2.9395,2.8944,2.8392,2.8076,2.781,2.7465,2.6891,2.6558,2.6091,2.5642,2.5389,2.5233,2.5108,2.5013,2.4902,2.4822,2.4726,2.4645,2.4523,2.4482,2.4457,2.4359,2.4276,2.4234,2.4177,2.4036,2.3994,2.3952,2.4051,2.4135,2.4234,2.4302,2.4313,2.4328,2.4431,2.439,2.4379,2.4394,2.443,2.4594,2.5025,2.555,2.5973,2.6261,2.6719,4.123,4.1041,4.0384,4.0294,4.0435,3.9309,3.9261,3.995,3.9595,3.9433,3.9617,4.0245,4.0363,4.0157,3.9965,4.0321,4.0735,4.0353,4.0233,4.0694,4.0597,4.0849,4.1488,4.1669,4.1757,4.1945,4.1945,4.1945,4.1841,4.1701,4.1244,4.0463,4.0053,3.9276,3.8074,3.7361,3.6775,3.6097,3.5074,3.4891,3.5023,3.3931,3.37,3.4431,3.3925,3.3795,3.3919,3.3721,3.3403,3.311,3.2999,3.2838,3.2176,3.1887,3.1308,3.0456,2.9894,2.9726,2.9874,2.9858,2.9902,3.0011,2.9668,2.9564,3.0309,2.9807,2.9823,3.017,3.0195,3.0112,2.9995,2.9814,2.9411,2.8632,2.7834,2.6955,2.6243,2.5805,2.5561,2.5275,2.5153,2.5021,2.4909,2.4798,2.467,2.4605,2.4523,2.4467,2.4261,2.4234,2.4177,2.4193,2.4109,2.4109,2.4009,2.3824,2.3681,2.358,2.3551,2.3566,2.3653,2.3696,2.3681,2.3681,2.3975,2.4036,2.4228,2.4331,2.4394,2.4549,2.527,2.5966,2.6377,2.6778,2.7355,4.0655,4.0607,4.0208,4.0229,4.0426,3.959,3.9525,3.987,3.9822,3.9692,3.9817,4.0496,4.0647,4.0296,4.0418,4.0405,4.0446,4.0264,4.0203,4.0251,4.0417,4.0754,4.1209,4.1488,4.1612,4.1639,4.1666,4.1587,4.1472,4.1156,4.0804,4.0416,3.9805,3.8936,3.792,3.6891,3.6134,3.527,3.4399,3.4176,3.4396,3.3752,3.3758,3.4235,3.3828,3.3629,3.3713,3.3694,3.3588,3.3383,3.3221,3.293,3.2271,3.1887,3.1134,3.0222,2.971,2.9563,2.9697,2.9653,2.9681,2.981,2.9405,2.954,2.9854,2.9636,2.9727,2.9982,3.0182,3.0205,3.0065,3.0092,2.9648,2.8747,2.7704,2.6751,2.5963,2.5853,2.5518,2.5217,2.4918,2.4799,2.4683,2.4477,2.4348,2.4256,2.4162,2.3994,2.3824,2.3867,2.3824,2.3696,2.3684,2.3584,2.3526,2.3422,2.3403,2.3283,2.2999,2.3002,2.3184,2.3259,2.3246,2.3334,2.3541,2.3792,2.4,2.4252,2.4562,2.4949,2.5721,2.6243,2.6627,2.7123,2.7703,4.0319,4.0302,4.0302,4.0319,4.0269,4.0187,3.9814,3.9489,3.9799,3.9831,3.972,4.0195,4.0417,4.0485,4.0353,4.038,4.0054,4.0065,4.0085,4.0087,4.0138,4.0337,4.05,4.0901,4.1029,4.1059,4.1071,4.11,4.0995,4.0474,4.0377,4.0311,3.9404,3.8584,3.7946,3.6649,3.54,3.4906,3.4233,3.4046,3.4147,3.3973,3.3942,3.4137,3.3968,3.3649,3.3575,3.3555,3.361,3.3591,3.3658,3.2985,3.1883,3.174,3.1134,3.0147,2.9874,2.9681,2.9614,2.963,2.9563,2.9665,2.9722,2.9766,2.975,2.9772,2.9772,2.9772,2.9908,2.9946,2.9835,2.9758,2.9343,2.8672,2.7881,2.7214,2.6429,2.6118,2.5799,2.5052,2.4682,2.4474,2.4307,2.4107,2.384,2.349,2.3492,2.3348,2.3187,2.3187,2.3054,2.2889,2.29,2.2999,2.2976,2.2951,2.3036,2.3019,2.2554,2.2471,2.2838,2.294,2.2956,2.3047,2.3198,2.3515,2.3865,2.4182,2.4601,2.5159,2.5771,2.6321,2.6781,2.7255,2.7813,3.952,3.9556,3.9661,3.9625,3.9556,3.9642,3.9542,3.9306,3.9542,3.9647,3.9682,3.9919,4.0087,4.0137,3.9729,3.9478,3.9698,3.9463,3.9228,3.9642,3.9659,3.9694,3.9867,4.0254,4.0531,4.058,4.0563,4.0577,4.0443,4.024,4.0297,4.0182,3.9595,3.9259,3.8484,3.7619,3.7186,3.6421,3.5102,3.4578,3.4628,3.3909,3.3663,3.4036,3.3797,3.3503,3.3414,3.3346,3.3309,3.3203,3.3314,3.3264,3.2732,3.232,3.1847,3.1291,3.045,3.0116,3.0114,2.9683,2.9412,2.9518,2.9486,2.9441,2.9547,2.9605,2.9621,2.9605,2.9722,2.9754,2.9714,2.9624,2.9154,2.8538,2.8128,2.7352,2.6078,2.5462,2.5091,2.4564,2.4138,2.381,2.3389,2.3195,2.2978,2.2745,2.2711,2.2634,2.2629,2.2591,2.255,2.2502,2.2482,2.2672,2.295,2.287,2.2775,2.2756,2.2277,2.206,2.2501,2.2525,2.2478,2.2568,2.2749,2.3168,2.3703,2.4332,2.4807,2.5326,2.5842,2.6287,2.6792,2.7323,2.7557,3.9288,3.9325,3.9395,3.9395,3.9325,3.9379,3.9232,3.9016,3.9315,3.9373,3.9378,3.9631,3.9833,3.9901,3.9631,3.9547,3.9406,3.9137,3.9085,3.9276,3.9255,3.9272,3.9255,3.954,3.9765,4.0087,4.0254,4.0101,3.9778,3.9391,3.9123,3.9345,3.8925,3.8438,3.827,3.7779,3.6966,3.6305,3.5413,3.487,3.4657,3.4293,3.3639,3.3781,3.3607,3.3414,3.315,3.3256,3.3081,3.292,3.3134,3.3171,3.2767,3.2455,3.2064,3.1257,3.075,3.0022,2.9799,2.9497,2.9213,2.9337,2.9305,2.9305,2.9321,2.935,2.935,2.9366,2.9396,2.9441,2.9412,2.9305,2.8914,2.8449,2.7936,2.7117,2.6031,2.5388,2.4684,2.3997,2.3465,2.3112,2.2789,2.2419,2.2493,2.2482,2.2414,2.2376,2.2574,2.2555,2.24,2.2353,2.2272,2.2409,2.2842,2.2857,2.2605,2.2459,2.2088,2.2057,2.2284,2.2154,2.199,2.2315,2.277,2.31,2.3664,2.4326,2.4975,2.5455,2.5944,2.6303,2.663,2.7018,2.7096,3.9218,3.9272,3.9218,3.9218,3.9218,3.9218,3.8994,3.8667,3.9027,3.9116,3.9009,3.9426,3.9556,3.9609,3.9799,3.9677,3.9362,3.9255,3.9169,3.9023,3.9023,3.9023,3.9023,3.9023,3.9169,3.9729,3.9764,3.9496,3.8959,3.8285,3.8271,3.8201,3.7632,3.7593,3.7531,3.7192,3.6829,3.6405,3.587,3.5178,3.4678,3.4599,3.4165,3.3598,3.345,3.3256,3.3058,3.3096,3.3011,3.2453,3.2904,3.2751,3.2374,3.2242,3.2013,3.0763,3.0637,3.0227,2.9785,2.9343,2.9137,2.9137,2.9213,2.9229,2.9183,2.9213,2.9213,2.9121,2.9075,2.9091,2.8998,2.8826,2.8606,2.8229,2.7448,2.6681,2.6031,2.5373,2.4415,2.3393,2.2727,2.2282,2.1985,2.1704,2.1967,2.2146,2.212,2.2155,2.2369,2.2415,2.2271,2.214,2.2075,2.2219,2.2567,2.3011,2.2752,2.251,2.2193,2.2321,2.2444,2.2553,2.2585,2.2591,2.2921,2.3295,2.3647,2.4245,2.4861,2.5481,2.5755,2.5884,2.6246,2.6625,2.6616,3.8985,3.904,3.8914,3.886,3.8914,3.886,3.8832,3.8767,3.8849,3.8849,3.8842,3.9011,3.9082,3.9169,3.9292,3.9239,3.8962,3.8974,3.8969,3.886,3.8805,3.886,3.8805,3.8766,3.886,3.8914,3.9061,3.8945,3.8649,3.82,3.7791,3.7781,3.742,3.7308,3.753,3.7607,3.7504,3.7189,3.6773,3.6101,3.547,3.4787,3.4096,3.3388,3.3187,3.3043,3.2951,3.3005,3.2866,3.2358,3.2563,3.254,3.2455,3.2685,3.2604,3.2118,3.1287,3.071,3.0411,2.9659,2.9233,2.9137,2.92,2.9216,2.917,2.9107,2.9108,2.892,2.8858,2.881,2.8682,2.8317,2.7963,2.759,2.7054,2.625,2.5251,2.4474,2.3797,2.2671,2.2019,2.1537,2.1289,2.1184,2.143,2.1668,2.177,2.1873,2.2065,2.212,2.2035,2.1933,2.1886,2.2082,2.2306,2.2774,2.293,2.2841,2.2715,2.2903,2.3056,2.3313,2.3341,2.3067,2.316,2.3497,2.3886,2.4195,2.4565,2.498,2.5204,2.5356,2.5723,2.6044,2.6303,3.8931,3.8898,3.8805,3.8805,3.8805,3.8805,3.875,3.8694,3.875,3.875,3.8635,3.8515,3.8602,3.8635,3.8097,3.8064,3.8405,3.8799,3.8772,3.8694,3.8711,3.8655,3.86,3.86,3.8583,3.8583,3.8544,3.8372,3.8145,3.7458,3.7334,3.734,3.689,3.6892,3.748,3.7636,3.7711,3.76,3.7287,3.681,3.5991,3.4944,3.388,3.3146,3.2904,3.2757,3.2594,3.2648,3.2539,3.2247,3.2437,3.2437,3.2453,3.2547,3.2656,3.232,3.1748,3.1185,3.0842,3.0033,2.9673,2.9923,2.9657,2.9673,2.9767,2.9704,2.9186,2.8779,2.8494,2.8348,2.797,2.766,2.7246,2.6649,2.6144,2.5313,2.4324,2.3431,2.26,2.1879,2.157,2.1208,2.077,2.0813,2.0966,2.1141,2.1368,2.1596,2.1897,2.1977,2.2031,2.2229,2.2248,2.2272,2.243,2.2705,2.2932,2.2871,2.2957,2.321,2.3271,2.3292,2.3289,2.3186,2.338,2.341,2.3324,2.3363,2.3879,2.4412,2.467,2.4898,2.5163,2.5406,2.5742,3.875,3.8606,3.8421,3.83,3.8284,3.8066,3.7873,3.785,3.7913,3.7897,3.7897,3.7584,3.7758,3.8106,3.7752,3.7527,3.7981,3.857,3.8639,3.8504,3.8504,3.8448,3.8335,3.8335,3.8335,3.8278,3.8262,3.8028,3.7845,3.7053,3.6864,3.6789,3.6214,3.6213,3.6959,3.7097,3.7191,3.7314,3.7163,3.6786,3.5828,3.4632,3.3466,3.2686,3.2585,3.2582,3.2333,3.2502,3.2257,3.2083,3.2191,3.2327,3.2176,3.2358,3.2315,3.2011,3.1862,3.1457,3.1021,3.0382,3.0214,3.0541,3.012,3.0198,3.0117,2.9681,2.9133,2.8556,2.8207,2.7901,2.7388,2.7011,2.6414,2.5686,2.4966,2.4187,2.3372,2.2499,2.1644,2.1176,2.1098,2.0827,2.0374,2.0532,2.072,2.1134,2.1376,2.1663,2.1959,2.225,2.2358,2.2673,2.2758,2.2685,2.2699,2.2722,2.275,2.264,2.2811,2.303,2.3017,2.3005,2.2942,2.288,2.2742,2.2686,2.2602,2.2738,2.3386,2.3878,2.415,2.4469,2.4842,2.5121,2.5425,3.8189,3.7937,3.7042,3.6673,3.6642,3.5995,3.542,3.5394,3.5748,3.56,3.5989,3.5975,3.65,3.7148,3.8001,3.8274,3.8437,3.8463,3.8448,3.8278,3.8278,3.8164,3.7992,3.818,3.8049,3.7992,3.8107,3.8205,3.7778,3.699,3.6483,3.6374,3.6211,3.6056,3.6162,3.643,3.6815,3.7013,3.6631,3.5815,3.4708,3.3717,3.3001,3.2562,3.2597,3.2692,3.2403,3.2558,3.2372,3.1629,3.1913,3.1925,3.1724,3.2007,3.2272,3.2175,3.1944,3.1579,3.1409,3.0949,3.0721,3.0829,3.0285,2.9962,2.9909,2.9388,2.8781,2.8458,2.8039,2.7476,2.6862,2.6304,2.5646,2.4797,2.3936,2.3242,2.2421,2.1747,2.0854,2.0452,2.033,2.0175,1.9803,2.0236,2.06,2.0985,2.1396,2.167,2.1987,2.2185,2.2247,2.2408,2.258,2.2519,2.2494,2.2555,2.2469,2.2335,2.2555,2.2787,2.2653,2.2519,2.2433,2.236,2.2189,2.2165,2.2285,2.2563,2.3012,2.3301,2.3564,2.4073,2.4677,2.4932,2.5032,3.6625,3.6711,3.6119,3.611,3.6497,3.6022,3.5718,3.5598,3.5643,3.5763,3.5727,3.5112,3.5115,3.5737,3.6596,3.7221,3.752,3.7873,3.8107,3.8049,3.7992,3.786,3.7743,3.7817,3.7801,3.7669,3.7669,3.7669,3.7404,3.6996,3.6432,3.6435,3.5902,3.566,3.5568,3.5776,3.5961,3.6054,3.593,3.5457,3.4622,3.4061,3.3487,3.2632,3.2811,3.2751,3.2736,3.2555,3.2405,3.1931,3.2137,3.2254,3.2206,3.2368,3.245,3.2921,3.2391,3.2106,3.1983,3.148,3.1334,3.1343,3.0988,3.0575,3.0204,2.9514,2.8723,2.8229,2.7488,2.6814,2.6187,2.5522,2.4694,2.3859,2.3065,2.2211,2.1549,2.0944,2.0268,1.989,1.9607,1.9609,1.9657,2.005,2.0414,2.0894,2.1225,2.1479,2.1737,2.1975,2.1913,2.1839,2.2013,2.2125,2.2123,2.2085,2.2035,2.1987,2.2211,2.2297,2.2149,2.2013,2.1939,2.1753,2.1581,2.1717,2.1951,2.2185,2.2383,2.2665,2.2932,2.3522,2.4034,2.4197,2.4242,3.508,3.5338,3.5141,3.5431,3.5937,3.5597,3.5226,3.5145,3.5102,3.5152,3.5048,3.4408,3.4152,3.4519,3.554,3.6328,3.6562,3.7093,3.7445,3.7551,3.7567,3.7433,3.7389,3.7449,3.7433,3.7222,3.7282,3.7178,3.6933,3.6562,3.6364,3.6492,3.5722,3.5362,3.5409,3.535,3.5285,3.5234,3.5415,3.4976,3.439,3.4193,3.3587,3.304,3.284,3.2947,3.297,3.2928,3.2727,3.2134,3.2496,3.2602,3.2363,3.2581,3.2901,3.3172,3.2859,3.2563,3.2419,3.2081,3.1919,3.1793,3.1469,3.0691,3.0286,2.9684,2.8881,2.794,2.6884,2.6073,2.531,2.4744,2.3989,2.3138,2.227,2.14,2.0718,2.0401,2.0068,1.9793,1.954,1.9483,1.9597,1.9889,2.0331,2.0782,2.1031,2.1279,2.1499,2.1696,2.1795,2.1705,2.1859,2.1935,2.18,2.1765,2.1661,2.1568,2.1785,2.1737,2.1526,2.1463,2.1336,2.1146,2.1065,2.1094,2.1336,2.1504,2.1724,2.2145,2.2592,2.2874,2.3263,2.3457,2.3406,3.3962,3.3883,3.3967,3.4076,3.4135,3.3074,3.2672,3.2962,3.2937,3.2786,3.2691,3.3017,3.3877,3.4529,3.5122,3.5765,3.6137,3.6415,3.6569,3.6723,3.6784,3.6815,3.6831,3.6937,3.6997,3.6815,3.6738,3.6693,3.6477,3.6106,3.5761,3.5499,3.5364,3.5145,3.4971,3.4802,3.4581,3.4485,3.4626,3.4252,3.366,3.326,3.2977,3.2638,3.2782,3.3093,3.3044,3.3273,3.3112,3.22,3.2679,3.2606,3.225,3.2705,3.3201,3.3276,3.3167,3.2935,3.2661,3.2318,3.2104,3.1769,3.1207,3.0438,2.9873,2.8546,2.7769,2.7389,2.6327,2.5464,2.4731,2.4092,2.3292,2.264,2.19,2.1107,2.0604,2.0413,2.0104,1.9658,1.9452,1.9412,1.9261,1.9554,1.989,2.0313,2.0698,2.0896,2.1141,2.1408,2.1643,2.1721,2.1834,2.1834,2.162,2.1497,2.1363,2.1068,2.1058,2.1001,2.0828,2.0764,2.0828,2.0857,2.0783,2.0683,2.0815,2.1284,2.1695,2.1917,2.2169,2.2344,2.2633,2.2938,2.2657,3.2513,3.2796,3.2522,3.2982,3.3778,3.336,3.3058,3.2908,3.2865,3.2592,3.2074,3.2673,3.3267,3.3818,3.403,3.4688,3.5359,3.5548,3.5691,3.5834,3.5913,3.5976,3.5976,3.6054,3.5961,3.6133,3.6117,3.6039,3.5991,3.5389,3.5141,3.4984,3.4883,3.4654,3.4414,3.4163,3.3869,3.3595,3.3547,3.3221,3.2752,3.2806,3.2849,3.2601,3.3115,3.3571,3.3761,3.3557,3.3244,3.3071,3.3092,3.2693,3.2251,3.2897,3.3188,3.3359,3.3215,3.2946,3.2437,3.2161,3.194,3.1447,3.0755,3.0009,2.9388,2.7967,2.7256,2.6674,2.5734,2.4704,2.4641,2.3649,2.2641,2.2079,2.1549,2.0877,2.0523,2.0462,2.0247,1.9868,1.9622,1.9466,1.9287,1.9188,1.9484,1.9779,2.0122,2.0543,2.0797,2.1075,2.1349,2.1517,2.1647,2.1261,2.1048,2.1025,2.0967,2.0731,2.0435,2.0347,2.0292,2.0302,2.0335,2.0391,2.0643,2.0775,2.1028,2.1396,2.1607,2.1598,2.1545,2.1568,2.1964,2.2255,2.1697,3.1711,3.1903,3.1603,3.2241,3.3463,3.3254,3.3157,3.3115,3.2946,3.2779,3.2402,3.2469,3.2673,3.3029,3.3182,3.3585,3.4336,3.4595,3.481,3.4942,3.5073,3.5139,3.5198,3.5353,3.5603,3.5584,3.5415,3.527,3.5335,3.4386,3.4109,3.4047,3.3949,3.3595,3.3782,3.3382,3.3097,3.2673,3.2516,3.2336,3.198,3.2316,3.2656,3.2645,3.3057,3.3616,3.3848,3.3711,3.3561,3.3483,3.3405,3.3077,3.2948,3.2933,3.315,3.3226,3.3073,3.2724,3.2222,3.1589,3.138,3.0911,3.0352,2.9707,2.8978,2.7673,2.669,2.6485,2.5196,2.4077,2.4242,2.3145,2.236,2.192,2.155,2.103,2.0803,2.0594,2.0369,2.0063,1.989,1.99,1.9525,1.9384,1.9364,1.964,1.9827,2.0195,2.0586,2.0834,2.1021,2.1136,2.124,2.0813,2.0338,2.0582,2.0822,2.0149,1.9967,1.9918,1.9843,1.9943,2.0117,2.0366,2.0625,2.0942,2.1123,2.1301,2.1199,2.1085,2.111,2.1035,2.0434,2.0576,2.0327,3.1767,3.1509,3.1254,3.1804,3.2821,3.2375,3.2291,3.2496,3.2607,3.2552,3.2358,3.2083,3.218,3.2667,3.2807,3.3171,3.3451,3.3479,3.3756,3.4235,3.4297,3.4496,3.4902,3.5272,3.5297,3.4986,3.4808,3.48,3.4721,3.3579,3.3209,3.2961,3.2749,3.2487,3.3054,3.2434,3.2003,3.1763,3.1834,3.1613,3.158,3.1786,3.2052,3.2316,3.2793,3.3339,3.3632,3.3632,3.3554,3.3657,3.3604,3.3229,3.2787,3.3229,3.3468,3.3464,3.2948,3.2649,3.2499,3.1159,3.0499,3.0297,2.9722,2.9318,2.9016,2.768,2.6195,2.6047,2.4645,2.3571,2.3109,2.2718,2.2185,2.1902,2.1583,2.1219,2.0966,2.0961,2.0703,2.0325,2.05,2.0561,2.0036,1.9667,1.9521,1.9551,1.9561,1.9875,2.0406,2.0717,2.0868,2.0974,2.1084,2.0744,2.0386,2.0573,2.0535,1.9858,1.9569,1.9613,1.9693,1.9718,1.9991,2.027,2.052,2.0743,2.0903,2.1002,2.0652,2.0323,2.0545,2.0445,1.9604,1.8993,1.8846,3.0524,3.0653,3.0067,3.0411,3.1364,3.1268,3.1172,3.1239,3.1553,3.1623,3.1515,3.176,3.1952,3.2091,3.2341,3.2621,3.2804,3.2931,3.3199,3.3437,3.3578,3.4158,3.4611,3.4881,3.5039,3.4891,3.4718,3.4401,3.4332,3.3105,3.2881,3.2739,3.2132,3.1836,3.2106,3.2036,3.194,3.1676,3.1188,3.0709,3.0741,3.1124,3.1445,3.1718,3.2444,3.3044,3.3409,3.3409,3.3393,3.3536,3.3506,3.3044,3.2637,3.2933,3.2933,3.2863,3.2503,3.2634,3.1886,3.0614,2.9834,2.9624,2.917,2.8602,2.8042,2.672,2.5906,2.5444,2.4457,2.3677,2.3603,2.255,2.2037,2.2048,2.1771,2.1343,2.1155,2.1298,2.1237,2.0764,2.0673,2.0246,1.9826,1.984,1.9769,1.9555,1.9529,1.9905,2.0414,2.0705,2.0931,2.0951,2.0978,2.0711,2.0486,2.0452,2.0088,1.9367,1.9362,1.9544,1.9545,1.9622,2.005,2.0502,2.0542,2.0613,2.0793,2.0687,1.9872,1.9584,1.93,1.8897,1.798,1.7642,1.7693,2.9652,2.9688,2.9215,2.9347,2.9955,3.0254,3.0337,3.0446,3.0798,3.08,3.076,3.1303,3.1425,3.1305,3.1539,3.1815,3.1969,3.2189,3.2386,3.2624,3.3007,3.3362,3.3798,3.4273,3.448,3.4512,3.4257,3.3903,3.3944,3.2812,3.2263,3.1988,3.1878,3.1776,3.182,3.1681,3.1542,3.1252,3.0862,3.0637,3.0657,3.0908,3.1281,3.1709,3.225,3.2917,3.3058,3.3129,3.3129,3.3269,3.3129,3.2736,3.2583,3.2513,3.2483,3.2429,3.2305,3.2207,3.1072,3.0248,2.9594,2.9255,2.8443,2.789,2.7282,2.6347,2.5794,2.5178,2.4353,2.3874,2.3435,2.2365,2.2083,2.2074,2.185,2.1473,2.1425,2.1471,2.1461,2.1008,2.0717,2.0133,1.9717,1.9802,1.9918,1.9707,1.9522,1.9907,2.0265,2.0526,2.0682,2.0702,2.0692,2.0352,2.0148,2.009,1.9599,1.8924,1.9165,1.9502,1.9466,1.9544,2.0121,2.0622,2.0636,2.0657,2.0692,2.0384,1.8901,1.7746,1.7142,1.6674,1.622,1.6236,1.6285,2.9162,2.8858,2.8794,2.8784,2.8828,2.9479,2.9969,3.031,3.0364,3.0337,3.031,3.0378,3.05,3.0432,3.0459,3.0746,3.0993,3.1332,3.1678,3.2038,3.2585,3.2798,3.3176,3.3668,3.3949,3.3768,3.3489,3.3421,3.3587,3.2416,3.1443,3.1266,3.1681,3.1626,3.1446,3.1322,3.1268,3.1323,3.091,3.0839,3.0937,3.1185,3.1474,3.1889,3.2317,3.2648,3.286,3.2931,3.2988,3.3058,3.2903,3.2832,3.2818,3.2761,3.2547,3.2338,3.2109,3.1487,3.0719,3.0011,2.9322,2.8866,2.8039,2.7628,2.7168,2.6411,2.5851,2.5211,2.4408,2.3764,2.3094,2.261,2.2252,2.204,2.187,2.1694,2.1614,2.1578,2.1502,2.1237,2.0988,2.0495,2.0024,2.0003,1.9896,1.9459,1.9259,1.9391,1.9735,2.0072,2.0217,2.011,2.0101,1.9995,1.986,1.9782,1.9563,1.9042,1.9241,1.9525,1.9461,1.9556,2.0103,2.0482,2.0666,2.0512,1.9841,1.8638,1.7223,1.6175,1.5219,1.5118,1.4874,1.4809,1.4733,2.8972,2.8692,2.91,2.9277,2.9252,2.9467,2.9426,2.9315,2.9603,2.9617,2.9288,3.0038,3.0106,2.9808,3.0201,3.0664,3.1017,3.1317,3.1714,3.2126,3.255,3.301,3.3321,3.3477,3.3629,3.3508,3.3204,3.2955,3.2872,3.1917,3.1488,3.1502,3.1597,3.1455,3.1324,3.129,3.1588,3.1566,3.1103,3.1062,3.1199,3.1373,3.1623,3.1844,3.2214,3.2461,3.2503,3.2561,3.2632,3.2632,3.2561,3.2561,3.2561,3.2431,3.23,3.23,3.2082,3.1738,3.0926,3.0502,2.9837,2.8677,2.7928,2.7494,2.7075,2.6498,2.584,2.5259,2.4596,2.3979,2.3258,2.275,2.2252,2.1891,2.1725,2.1538,2.1436,2.1349,2.1272,2.1195,2.0964,2.0566,2.0138,1.9923,1.9731,1.9183,1.8929,1.9033,1.9193,1.9535,1.9936,1.9847,1.9828,1.9837,1.9719,1.965,1.9487,1.9297,1.9444,1.9589,1.9659,1.9745,2.0168,2.0264,2.0158,1.9315,1.827,1.6942,1.5521,1.4349,1.3446,1.3507,1.3534,1.3528,1.354,2.8579,2.8572,2.8839,2.9268,2.9605,2.9632,2.9551,2.9399,2.9263,2.8964,2.8838,2.9347,2.9604,2.9604,2.9889,3.0323,3.088,3.1192,3.1629,3.2173,3.2676,3.2709,3.2978,3.3106,3.301,3.3028,3.3083,3.3028,3.2781,3.2382,3.1954,3.1697,3.1541,3.1469,3.1505,3.1635,3.1842,3.1798,3.1585,3.1395,3.1463,3.1541,3.1684,3.1853,3.2177,3.2245,3.23,3.2345,3.2345,3.2359,3.2286,3.2359,3.2286,3.2241,3.2182,3.2109,3.2055,3.1748,3.1135,3.0599,2.9718,2.8679,2.7806,2.7164,2.6653,2.6158,2.579,2.5404,2.4791,2.4189,2.347,2.2794,2.2296,2.1721,2.1502,2.1282,2.1128,2.1041,2.0964,2.0974,2.0741,2.044,2.0127,1.992,1.9506,1.8905,1.8559,1.8443,1.8699,1.904,1.9478,1.9785,1.972,1.9743,1.9641,1.9608,1.939,1.9325,1.9464,1.9562,1.9645,1.9766,1.9984,1.9828,1.9552,1.8452,1.7037,1.5398,1.3908,1.2794,1.1934,1.192,1.2212,1.2548,1.2546,2.8063,2.8395,2.8434,2.9144,2.9847,2.9861,2.9961,3.02,2.9214,2.8698,2.8845,2.8804,2.9292,2.9849,3.0038,3.0432,3.1083,3.1585,3.206,3.2331,3.2643,3.2772,3.2654,3.2423,3.2782,3.2709,3.2804,3.3151,3.3104,3.2758,3.2413,3.1984,3.2017,3.1877,3.1636,3.1603,3.173,3.1723,3.1583,3.1516,3.1742,3.1923,3.2023,3.2232,3.2345,3.2359,3.2359,3.2359,3.2286,3.2241,3.2169,3.2241,3.2391,3.2258,3.2185,3.226,3.2293,3.191,3.1487,3.0948,2.9852,2.8771,2.7801,2.7151,2.6677,2.5996,2.5648,2.5448,2.4897,2.4177,2.347,2.2733,2.2134,2.1578,2.1205,2.1051,2.0964,2.0918,2.1046,2.1007,2.0866,2.0598,2.0188,1.9977,1.954,1.8816,1.8348,1.8177,1.8451,1.887,1.9125,1.9679,1.9795,1.9848,1.967,1.9561,1.9387,1.9384,1.9463,1.9478,1.9548,1.9627,1.9784,1.9152,1.8442,1.7212,1.5854,1.399,1.2318,1.1354,1.0646,1.0443,1.0799,1.1413,1.1929,2.8641,2.9008,2.9464,3.0045,3.0537,3.0085,2.9829,2.9909,2.9495,2.9535,2.9903,3.0025,3.0269,3.0647,3.0853,3.1341,3.215,3.2399,3.2969,3.3281,3.3355,3.3003,3.2915,3.2833,3.2894,3.2948,3.3125,3.3335,3.3504,3.3333,3.2925,3.2377,3.2195,3.1858,3.1378,3.1277,3.1286,3.136,3.1421,3.1508,3.1609,3.1817,3.195,3.2096,3.2169,3.2241,3.2241,3.2241,3.2241,3.2169,3.2169,3.2413,3.282,3.2495,3.2689,3.3024,3.2791,3.2336,3.1845,3.1289,3.0405,2.9187,2.8163,2.7533,2.687,2.6078,2.5513,2.536,2.485,2.4169,2.3356,2.2649,2.2025,2.1425,2.1023,2.0858,2.0771,2.0987,2.1201,2.1086,2.1058,2.0737,2.0386,1.995,1.948,1.9057,1.855,1.8425,1.8836,1.915,1.9062,1.9537,1.9934,1.9925,1.9823,1.9714,1.9553,1.9452,1.9496,1.9467,1.9399,1.9387,1.9255,1.8143,1.7122,1.5807,1.4183,1.2051,1.0588,0.9846,0.9832,0.9804,1.0071,1.0574,1.1176,2.838,2.8867,2.9514,3.0061,3.0329,3.001,2.9956,2.9954,2.9891,3.0137,3.0679,3.0757,3.0983,3.142,3.1793,3.2199,3.3046,3.3355,3.363,3.3981,3.3863,3.3513,3.3324,3.3243,3.2872,3.2947,3.3127,3.345,3.3842,3.3523,3.3048,3.2331,3.1928,3.1435,3.0906,3.0777,3.0786,3.0735,3.1075,3.1325,3.1501,3.1683,3.1963,3.2036,3.2109,3.2169,3.2169,3.2169,3.2169,3.2169,3.2109,3.2044,3.2226,3.2104,3.2328,3.2598,3.2667,3.2527,3.215,3.1668,3.0957,2.9605,2.8981,2.8411,2.6899,2.6089,2.5898,2.5595,2.4908,2.4143,2.3165,2.235,2.1766,2.1205,2.1007,2.0936,2.1012,2.1192,2.1318,2.1347,2.1189,2.096,2.0541,1.9994,1.968,1.949,1.8985,1.884,1.9221,1.9514,1.9376,1.9418,1.9938,2.0086,2.0004,1.9894,1.9832,1.966,1.9516,1.9362,1.9254,1.9082,1.8702,1.7406,1.5885,1.4241,1.2466,1.0524,0.9367,0.8685,0.8955,0.9225,0.9571,0.9984,1.0691,2.7851,2.8479,2.9225,2.9658,2.9739,2.9907,3.0061,3.0177,3.0114,3.0445,3.0842,3.1101,3.1249,3.1752,3.2382,3.2787,3.3159,3.3489,3.3993,3.4219,3.3939,3.3752,3.3672,3.3527,3.3472,3.3341,3.3422,3.3701,3.4032,3.3647,3.3025,3.2102,3.1373,3.0899,3.0303,3.0247,3.0484,3.0714,3.1046,3.1373,3.1519,3.1622,3.183,3.2036,3.2169,3.2169,3.2169,3.2169,3.2169,3.2258,3.2165,3.2085,3.207,3.2066,3.2362,3.2656,3.2896,3.2659,3.229,3.206,3.0893,2.9866,2.9689,2.8802,2.7138,2.6423,2.6148,2.5489,2.4751,2.3994,2.3014,2.2081,2.1568,2.1144,2.1002,2.0986,2.1142,2.136,2.1537,2.1611,2.141,2.1139,2.0675,2.0214,1.9817,1.9643,1.9592,1.9521,1.9579,1.9718,1.9815,1.9772,2.0009,2.0167,2.014,2.0112,2.0108,1.9849,1.9689,1.9406,1.9011,1.8528,1.7717,1.6372,1.4865,1.2698,1.1161,0.9545,0.854,0.7887,0.8371,0.8882,0.9186,0.9634,1.0372,2.7915,2.8809,2.9935,3.0175,2.9875,2.9745,2.9677,2.9671,2.9423,2.9638,3.0201,3.1002,3.1631,3.241,3.2675,3.2916,3.3199,3.3602,3.4005,3.4314,3.3983,3.4017,3.3898,3.3695,3.4485,3.4202,3.3783,3.3866,3.3571,3.3449,3.2772,3.1279,3.0959,3.0381,2.9729,2.9886,3.0278,3.0669,3.1318,3.1772,3.1853,3.188,3.1649,3.183,3.2036,3.2096,3.2169,3.2169,3.2467,3.2651,3.2603,3.2377,3.2216,3.2185,3.2515,3.2658,3.2969,3.2691,3.2342,3.2054,3.0991,2.9725,2.9377,2.896,2.7632,2.6589,2.605,2.5117,2.4396,2.3816,2.2898,2.2087,2.1426,2.1076,2.0828,2.0987,2.1135,2.1532,2.195,2.1892,2.1636,2.1355,2.0902,2.0351,1.9804,1.963,1.9536,1.9457,1.9552,1.9842,2.0082,2.0121,2.015,2.0236,2.0253,2.0369,2.0243,2.0086,1.9782,1.9466,1.8785,1.76,1.6566,1.5346,1.3117,1.0769,0.9366,0.8688,0.8113,0.7729,0.8158,0.8607,0.8911,0.9504,1.0377]},{"header":{"parameterUnit":"m.s-1","parameterCategory":1,"la1":31.0,"la2":29.5877,"lo1":-88.7671,"lo2":-86.6584,"dy":0.0162,"dx":0.0185,"nx":115,"ny":88,"refTime":"2023-07-30T18:00:00:Z","depth":0,"parameterNumber":3,"parameterNumberName":"V-component_of_WINDS"},"data":[0.0,0.0,0.0,0.0,0.0,0.0,0.0,0.0,0.0,0.0,0.0,0.0,0.0,0.0,0.0,0.0,0.0,0.0,0.0,0.0,0.0,0.0,0.0,0.0,0.0,0.0,0.0,0.0,0.0,0.0,0.0,0.0,0.0,0.0,0.0,0.0,0.0,0.0,0.0,0.0,0.0,0.0,0.0,0.0,0.0,0.0,0.0,0.0,0.0,0.0,0.0,0.0,0.0,0.0,0.0,0.0,0.0,0.0,0.0,0.0,0.0,0.0,0.0,0.0,0.0,0.0,0.0,0.0,0.0,0.0,0.0,0.0,0.0,0.0,0.0,0.0,0.0,0.0,0.0,0.0,0.0,0.0,0.0,0.0,0.0,0.0,0.0,0.0,0.0,0.0,0.0,0.0,0.0,0.0,0.0,0.0,0.0,0.0,0.0,0.0,0.0,0.0,0.0,0.0,0.0,0.0,0.0,0.0,0.0,0.0,0.0,0.0,0.0,0.0,0.0,0.0,0.0,0.0,0.0,0.0,0.0,0.0,0.0,0.0,0.0,0.0,0.0,0.0,0.0,0.0,0.0,0.0,0.0,0.0,0.0,0.0,0.0,0.0,0.0,0.0,0.0,0.0,0.0,0.0,0.0,0.0,0.0,0.0,0.0,0.0,0.0,0.0,0.0,0.0,0.0,0.0,0.0,0.0,0.0,0.0,0.0,0.0,0.0,0.0,0.0,0.0,0.0,0.0,0.0,0.0,0.0,0.0,0.0,0.0,0.0,0.0,0.0,0.0,0.0,0.0,0.0,0.0,0.0,0.0,0.0,0.0,0.0,0.0,0.0,0.0,0.0,0.0,0.0,0.0,0.0,0.0,0.0,0.0,0.0,0.0,0.0,0.0,0.0,0.0,0.0,0.0,0.0,0.0,0.0,0.0,0.0,0.0,0.0,0.0,0.0,0.0,0.0,0.0,0.0,0.0,0.0,0.0,0.0,0.0,0.0,0.0,0.0,0.0,0.0,0.0,0.0,0.0,0.0,0.0,0.0,0.0,0.0,0.0,0.0,0.0,0.0,0.0,0.0,0.0,0.0,0.0,0.0,0.0,0.0,0.0,0.0,0.0,0.0,0.0,0.0,0.0,0.0,0.0,0.0,0.0,0.0,0.0,0.0,0.0,0.0,0.0,0.0,0.0,0.0,0.0,0.0,0.0,0.0,0.0,0.0,0.0,0.0,0.0,0.0,0.0,0.0,0.0,0.0,0.0,0.0,0.0,0.0,0.0,0.0,0.0,0.0,0.0,0.0,0.0,0.0,0.0,0.0,0.0,0.0,0.0,0.0,0.0,0.0,0.0,0.0,0.0,0.0,0.0,0.0,0.0,0.0,0.0,0.0,0.0,0.0,0.0,0.0,0.0,0.0,0.0,0.0,0.0,0.0,0.0,0.0,0.0,0.0,0.0,0.0,0.0,0.0,0.0,0.0,0.0,0.0,0.0,0.0,0.0,0.0,0.0,0.0,0.0,0.0,0.0,0.0,0.0,0.0,0.0,0.0,0.0,0.0,0.0,0.0,0.0,0.0,0.0,0.0,0.0,0.0,0.0,0.0,0.0,0.0,0.0,0.0,0.0,0.0,0.0,0.0,0.0,0.0,0.0,0.0,0.0,0.0,0.0,0.0,0.0,0.0,0.0,0.0,0.0,0.0,0.0,0.0,0.0,0.0,0.0,0.0,0.0,0.0,0.0,0.0,0.0,0.0,0.0,0.0,0.0,0.0,0.0,0.0,0.0,0.0,0.0,0.0,0.0,0.0,0.0,0.0,0.0,0.0,0.0,0.0,0.0,0.0,0.0,0.0,0.0,0.0,0.0,0.0,0.0,0.0,0.0,0.0,0.0,0.0,0.0,0.0,0.0,0.0,0.0,0.0,0.0,0.0,0.0,0.0,0.0,0.0,0.0,0.0,0.0,0.0,0.0,0.0,0.0,0.0,0.0,0.0,0.0,0.0,0.0,0.0,0.0,0.0,0.0,0.0,0.0,0.0,0.0,0.0,0.0,0.0,0.0,0.0,0.0,0.0,0.0,0.0,0.0,0.0,0.0,0.0,0.0,0.0,0.0,0.0,0.0,0.0,0.0,0.0,0.0,0.0,0.0,0.0,0.0,0.0,0.0,0.0,0.0,0.0,0.0,0.0,0.0,0.0,0.0,0.0,0.0,0.0,0.0,0.0,0.0,0.0,0.0,0.0,0.0,0.0,0.0,0.0,0.0,0.0,0.0,0.0,0.0,0.0,0.0,0.0,0.0,0.0,0.0,0.0,0.0,0.0,0.0,0.0,0.0,0.0,0.0,0.0,0.0,0.0,0.0,0.0,0.0,0.0,0.0,0.0,0.0,0.0,0.0,0.0,0.0,0.0,0.0,0.0,0.0,0.0,0.0,0.0,0.0,0.0,0.0,0.0,0.0,0.0,0.0,0.0,0.0,0.0,0.0,0.0,0.0,0.0,0.0,0.0,0.0,0.0,0.0,0.0,0.0,0.0,0.0,0.0,0.0,0.0,0.0,0.0,0.0,0.0,0.0,0.0,0.0,0.0,0.0,0.0,0.0,0.0,0.0,0.0,0.0,0.0,0.0,0.0,0.0,0.0,0.0,0.0,0.0,0.0,0.0,0.0,0.0,0.0,0.0,0.0,0.0,0.0,0.0,0.0,0.0,0.0,0.0,0.0,0.0,0.0,0.0,0.0,0.0,0.0,0.0,0.0,0.0,0.0,0.0,0.0,0.0,0.0,0.0,0.0,0.0,0.0,0.0,0.0,0.0,0.0,0.0,0.0,0.0,0.0,0.0,0.0,0.0,0.0,0.0,0.0,0.0,0.0,0.0,0.0,0.0,0.0,0.0,0.0,0.0,0.0,0.0,0.0,0.0,0.0,0.0,0.0,0.0,0.0,0.0,0.0,0.0,0.0,0.0,0.0,0.0,0.0,0.0,0.0,0.0,0.0,0.0,0.0,0.0,0.0,0.0,0.0,0.0,0.0,0.0,0.0,0.0,0.0,0.0,0.0,0.0,0.0,0.0,0.0,0.0,0.0,0.0,0.0,0.0,0.0,0.0,0.0,0.0,0.0,0.0,0.0,0.0,0.0,0.0,0.0,0.0,0.0,0.0,0.0,0.0,0.0,0.0,0.0,0.0,0.0,0.0,0.0,0.0,0.0,0.0,0.0,0.0,0.0,0.0,0.0,0.0,0.0,0.0,0.0,0.0,0.0,0.0,0.0,0.0,0.0,0.0,0.0,0.0,0.0,0.0,0.0,0.0,0.0,0.0,0.0,0.0,0.0,0.0,0.0,0.0,0.0,0.0,0.0,0.0,0.0,0.0,0.0,0.0,0.0,0.0,0.0,0.0,0.0,0.0,0.0,0.0,0.0,0.0,0.0,0.0,0.0,0.0,0.0,0.0,0.0,0.0,0.0,0.0,0.0,0.0,0.0,0.0,0.0,0.0,0.0,0.0,0.0,0.0,0.0,0.0,0.0,0.0,0.0,0.0,0.0,0.0,0.0,0.0,0.0,0.0,0.0,0.0,0.0,0.0,0.0,0.0,0.0,0.0,0.0,0.0,0.0,0.0,0.0,0.0,0.0,0.0,0.0,0.0,0.0,0.0,0.0,0.0,0.0,0.0,0.0,0.0,0.0,0.0,0.0,0.0,0.0,0.0,0.0,0.0,0.0,0.0,0.0,0.0,0.0,0.0,0.0,0.0,0.0,0.0,0.0,0.0,0.0,0.0,0.0,0.0,0.0,0.0,0.0,0.0,0.0,0.0,0.0,0.0,0.0,0.0,0.0,0.0,0.0,0.0,0.0,0.0,0.0,0.0,0.0,0.0,0.0,0.0,0.0,0.0,0.0,0.0,0.0,0.0,0.0,0.0,0.0,0.0,0.0,0.0,0.0,0.0,0.0,0.0,0.0,0.0,0.0,0.0,0.0,0.0,0.0,0.0,0.0,0.0,0.0,0.0,0.0,0.0,0.0,0.0,0.0,0.0,0.0,0.0,0.0,0.0,0.0,0.0,0.0,0.0,0.0,0.0,0.0,0.0,0.0,0.0,0.0,0.0,0.0,0.0,0.0,0.0,0.0,0.0,0.0,0.0,0.0,0.0,0.0,0.0,0.0,0.0,0.0,0.0,0.0,0.0,0.0,0.0,0.0,0.0,0.0,0.0,0.0,0.0,0.0,0.0,0.0,0.0,0.0,0.0,0.0,0.0,0.0,0.0,0.0,0.0,0.0,0.0,-0.0855,0.0,0.0,0.0,0.0,0.0,0.0,0.0,0.0,0.0,0.0,0.0,0.0,0.0,0.0,0.0,0.0,0.0,0.0,0.0,0.0,0.0,0.0,0.0,0.0,0.0,0.0,0.0,0.0,0.0,0.0,0.0,0.0,0.0,0.0,0.0,0.0,0.0,0.0,0.0,0.0,0.0,0.0,0.0,0.0,0.0,0.0,0.0,0.0,0.0,0.0,0.0,0.0,0.0,0.0,0.0,0.0,0.0,0.0,0.0,0.0,0.0,0.0,0.0,0.0,0.0,0.0,0.0,0.0,0.0,0.0,0.0,0.0,0.0,0.0,0.0,0.0,0.0,0.0,0.0,0.0,0.0,0.0,0.0,0.0,0.0,0.0,0.0,0.0,0.0,0.0,0.0,0.0,0.0,0.0,0.0,0.0,0.0,0.0,0.0,0.0,0.0,0.0,0.0,0.0,0.0,0.0,0.0,0.0,0.0,0.0,-0.081,-0.0809,-0.081,-0.0855,-0.09,0.0,0.0,0.0,0.0,0.0,0.0,0.0,0.0,0.0,0.0,0.0,0.0,0.0,0.0,0.0,0.0,0.0,0.0,0.0,0.0,0.0,0.0,0.0,0.0,0.0,0.0,0.0,0.0,0.0,0.0,0.0,0.0,0.0,0.0,0.0,0.0,0.0,0.0,0.0,0.0,0.0,0.0,0.0,0.0,0.0,0.0,0.0,0.0,0.0,0.0,0.0,0.0,0.0,0.0,0.0,0.0,0.0,0.0,0.0,0.0,0.0,0.0,0.0,0.0,0.0,0.0,0.0,0.0,0.0,0.0,0.0,0.0,0.0,0.0,0.0,0.0,0.0,0.0,0.0,0.0,0.0,0.0,0.0,0.0,0.0,0.0,0.0,0.0,0.0,0.0,0.0,0.0,0.0,0.0,0.0,0.0,0.0,0.0,0.0,0.0,0.0,0.0,0.0,0.0,0.0,0.0,0.0,0.0,0.0,0.0,0.0,0.0,-0.0865,-0.0957,-0.1048,0.0,0.0,0.0,0.0,0.0,0.0,0.0,0.0,0.0,0.0,0.0,0.0,0.0,0.0,0.0,0.0,0.0,0.0,0.0,0.0,0.0,0.0,0.0,0.0,0.0,0.0,0.0,0.0,0.0,0.0,0.0,0.0,0.0,0.0,0.0,0.0,0.0,0.0,0.0,0.0,0.0,0.0,0.0,0.0,0.0,0.0,0.0,0.0,0.0,0.0,0.0,0.0,0.0,0.0,0.0,0.0,0.0,0.0,0.0,0.0,0.0,0.0,0.0,0.0,0.0,0.0,0.0,0.0,0.0,0.0,0.0,0.0,0.0,0.0,0.0,0.0,0.0,0.0,0.0,0.0,0.0,0.0,0.0,0.0,0.0,0.0,0.0,0.0,0.0,0.0,0.0,0.0,0.0,0.0,0.0,0.0,0.0,0.0,0.0,0.0,0.0,0.0,0.0,0.0,0.0,0.0,0.0,0.0,0.0,0.0,-0.0869,-0.1136,-0.1041,0.0,-0.1419,0.0,0.0,0.0,0.0,0.0,0.0,0.0,0.0,0.0,0.0,0.0,0.0,0.0,0.0,0.0,0.0,0.0,0.0,0.0,0.0,0.0,0.0,0.0,0.0,0.0,0.0,0.0,0.0,0.0,0.0,0.0,0.0,0.0,0.0,0.0,0.0,0.0,0.0,0.0,0.0,0.0,0.0,0.0,0.0,0.0,0.0,0.0,0.0,0.0,0.0,0.0,0.0,0.0,0.0,0.0,0.0,0.0,0.0,0.0,0.0,0.0,0.0,0.0,0.0,0.0,0.0,0.0,0.0,0.0,0.0,0.0,0.0,0.0,0.0,0.0,0.0,0.0,0.0,0.0,0.0,0.0,0.0,0.0,0.0,0.0,0.0,0.0,0.0,0.0,0.0,0.0,0.0,0.0,0.0,0.0,0.0,0.0,0.0,0.0,0.0,0.0,0.0,0.0,0.0,0.0,0.0,0.0,0.0,0.0,0.0,-0.0916,-0.1093,-0.1237,-0.146,0.0,0.0,0.0,0.0,0.0,0.0,0.0,0.0,0.0,0.0,0.0,0.0,0.0,0.0,0.0,0.0,0.0,0.0,0.0,0.0,0.0,0.0,0.0,0.0,0.0,0.0,0.0,0.0,0.0,0.0,0.0,0.0,0.0,0.0,0.0,0.0,0.0,0.0,0.0,0.0,0.0,0.0,0.0,0.0,0.0,0.0,0.0,0.0,0.0,0.0,0.0,0.0,0.0,0.0,0.0,0.0,0.0,0.0,0.0,0.0,0.0,0.0,0.0,0.0,0.0,0.0,0.0,0.0,0.0,0.0,0.0,0.0,0.0,0.0,0.0,0.0,0.0,0.0,0.0,0.0,0.0,0.0,0.0,0.0,0.0,0.0,0.0,0.0,0.0,0.0,0.0,0.0,0.0,0.0,0.0,0.0,0.0,0.0,0.0,0.0,0.0,0.0,0.0,0.0,0.0,0.0,0.0,0.0,0.0,0.0,-0.1043,-0.1036,-0.1062,-0.1246,-0.155,-0.2009,0.0,0.0,0.0,0.0,0.0,0.0,0.0,0.0,0.0,0.0,0.0,0.0,0.0,0.0,0.0,0.0,0.0,0.0,0.0,0.0,0.0,0.0,0.0,0.0,0.0,0.0,0.0,0.0,0.0,0.0,0.0,0.0,0.0,0.0,0.0,0.0,0.0,0.0,0.0,0.0,0.0,0.0,0.0,0.0,0.0,0.0,0.0,0.0,0.0,0.0,0.0,0.0,0.0,0.0,0.0,0.0,0.0,0.0,0.0,0.0,0.0,0.0,0.0,0.0,0.0,0.0,0.0,0.0,0.0,0.0,0.0,0.0,0.0,0.0,0.0,0.0,0.0,0.0,0.0,0.0,0.0,0.0,0.0,0.0,0.0,0.0,0.0,0.0,0.0,0.0,0.0,0.0,0.0,0.0,0.0,0.0,0.0,0.0,0.0,0.0,0.0,0.0,0.0,0.0,0.0,0.0,0.0,0.0,-0.1481,-0.1329,-0.1305,-0.1304,-0.1068,-0.1283,0.0,0.0,0.0,0.0,0.0,0.0,0.0,0.0,0.0,0.0,0.0,0.0,0.0,0.0,0.0,0.0,0.0,0.0,0.0,0.0,0.0,0.0,0.0,0.0,0.0,0.0,0.0,0.0,0.0,0.0,0.0,0.0,0.0,0.0,0.0,0.0,0.0,0.0,0.0,0.0,0.0,0.0,0.0,0.0,0.0,0.0,0.0,0.0,0.0,0.0,0.0,0.0,0.0,0.0,0.0,0.0,0.0,0.0,0.0,0.0,0.0,0.0,0.0,0.0,0.0,0.0,0.0,0.0,0.0,0.0,0.0,0.0,0.0,0.0,0.0,0.0,0.0,0.0,0.0,0.0,0.0,0.0,0.0,0.0,0.0,0.0,0.0,0.0,0.0,0.0,0.0,0.0,0.0,0.0,0.0,0.0,0.0,0.0,0.0,0.0,0.0,0.0,0.0,0.0,0.0,0.0,0.0,0.0,0.0,-0.144,-0.1422,-0.1396,-0.1414,-0.151,-0.1773,0.0,0.0,0.0,0.0,0.0,0.0,0.0,0.0,0.0,0.0,0.0,0.0,0.0,0.0,0.0,0.0,0.0,0.0,0.0,0.0,0.0,0.0,0.0,0.0,0.0,0.0,0.0,0.0,0.0,0.0,0.0,0.0,0.0,0.0,0.0,0.0,0.0,0.0,0.0,0.0,0.0,0.0,0.0,0.0,0.0,0.0,0.0,0.0,0.0,0.0,0.0,0.0,0.0,0.0,0.0,0.0,0.0,0.0,0.0,0.0,0.0,0.0,0.0,0.0,0.0,0.0,0.0,0.0,0.0,0.0,0.0,0.0,0.0,0.0,0.0,0.0,0.0,0.0,0.0,0.0,0.0,0.0,0.0,0.0,0.0,0.0,0.0,0.0,0.0,0.0,0.0,0.0,0.0,0.0,0.0,0.0,0.0,0.0,0.0,0.0,0.0,0.0,0.0,0.0,0.0,0.0,0.0,0.0,0.0,-0.149,0.0,-0.1489,-0.1489,-0.1715,-0.1991,0.0,0.0,0.0,0.0,0.0,0.0,0.0,0.0,0.0,0.0,0.0,0.0,0.0,0.0,0.0,0.0,0.0,0.0,0.0,0.0,0.0,0.0,0.0,0.0,0.0,0.0,0.0,0.0,0.0,0.0,0.0,0.0,0.0,0.0,0.0,0.0,0.0,0.0,0.0,0.0,0.0,0.0,0.0,0.0,0.0,0.0,0.0,0.0,0.0,0.0,0.0,0.0,0.0,0.0,0.0,0.0,0.0,0.0,0.0,0.0,0.0,0.0,0.0,0.0,0.0,0.0,0.0,0.0,0.0,0.0,0.0,0.0,0.0,0.0,0.0,0.0,0.0,0.0,0.0,0.0,0.0,0.0,0.0,0.0,0.0,0.0,0.0,0.0,0.0,0.0,0.0,0.0,0.0,0.0,0.0,0.0,0.0,0.0,0.0,0.0,0.0,0.0,0.0,0.0,0.0,0.0,0.0,0.0,-0.2022,-0.1704,-0.165,-0.1592,-0.1494,-0.1706,-0.1889,0.0,0.0,0.0,0.0,0.0,0.0,0.0,0.0,0.0,0.0,0.0,0.0,0.0,0.0,0.0,0.0,0.0,0.0,0.0,0.0,0.0,0.0,0.0,0.0,0.0,0.0,0.0,0.0,0.0,0.0,0.0,0.0,0.0,0.0,0.0,0.0,0.0,0.0,0.0,0.0,0.0,0.0,0.0,0.0,0.0,0.0,0.0,0.0,0.0,0.0,0.0,0.0,0.0,0.0,0.0,0.0,0.0,0.0,0.0,0.0,0.0,0.0,0.0,0.0,0.0,0.0,0.0,0.0,0.0,0.0,0.0,0.0,0.0,0.0,0.0,0.0,0.0,0.0,0.0,0.0,0.0,0.0,0.0,0.0,0.0,0.0,0.0,0.0,0.0,0.0,0.0,0.0,0.0,0.0,0.0,0.0,0.0,0.0,0.0,0.0,0.0,0.0,0.0,0.0,0.0,0.0,0.0,0.0,0.0,-0.1803,-0.2126,-0.2263,-0.2237,-0.2449,-0.2739,0.0,0.0,0.0,0.0,0.0,0.0,0.0,0.0,0.0,0.0,0.0,0.0,0.0,0.0,0.0,0.0,0.0,0.0,0.0,0.0,0.0,0.0,0.0,0.0,0.0,0.0,0.0,0.0,0.0,0.0,0.0,0.0,0.0,0.0,0.0,0.0,0.0,0.0,0.0,0.0,0.0,0.0,0.0,0.0,0.0,0.0,0.0,0.0,0.0,0.0,0.0,0.0,0.0,0.0,0.0,0.0,0.0,0.0,0.0,0.0,0.0,0.0,0.0,0.0,0.0,0.0,0.0,0.0,0.0,0.0,0.0,0.0,0.0,0.0,0.0,0.0,0.0,0.0,0.0,0.0,0.0,0.0,0.0,0.0,0.0,0.0,0.0,0.0,0.0,0.0,0.0,0.0,0.0,0.0,0.0,0.0,0.0,0.0,0.0,0.0,0.0,0.0,0.0,0.0,0.0,0.0,0.0,0.0,0.0,-0.1965,-0.2399,-0.2659,-0.2605,-0.2987,-0.3292,-0.3569,0.0,0.0,0.0,0.0,0.0,0.0,0.0,0.0,0.0,0.0,0.0,0.0,0.0,0.0,0.0,0.0,0.0,0.0,0.0,0.0,0.0,0.0,0.0,0.0,0.0,0.0,0.0,0.0,0.0,0.0,0.0,0.0,0.0,0.0,0.0,0.0,0.0,0.0,0.0,0.0,0.0,0.0,0.0,0.0,0.0,0.0,0.0,0.0,0.0,0.0,0.0,0.0,0.0,0.0,0.0,0.0,0.0,0.0,0.0,0.0,0.0,0.0,0.0,0.0,0.0,0.0,0.0,0.0,0.0,0.0,0.0,0.0,0.0,0.0,0.0,0.0,0.0,0.0,0.0,0.0,0.0,0.0,0.0,0.0,0.0,0.0,0.0,0.0,0.0,0.0,0.0,0.0,0.0,0.0,0.0,0.0,0.0,0.0,0.0,0.0,0.0,0.0,0.0,0.0,0.0,0.0,0.0,0.0,-0.2186,-0.2536,-0.2742,-0.28,-0.3297,-0.3624,0.0,0.0,0.0,0.0,0.0,0.0,0.0,0.0,0.0,0.0,0.0,0.0,0.0,0.0,0.0,0.0,0.0,0.0,0.0,0.0,0.0,0.0,0.0,0.0,0.0,0.0,0.0,0.0,0.0,0.0,0.0,0.0,0.0,0.0,0.0,0.0,0.0,0.0,0.0,0.0,0.0,0.0,0.0,0.0,0.0,0.0,0.0,0.0,0.0,0.0,0.0,0.0,0.0,0.0,0.0,0.0,0.0,0.0,0.0,0.0,0.0,0.0,0.0,0.0,0.0,0.0,0.0,0.0,0.0,0.0,0.0,0.0,0.0,0.0,0.0,0.0,0.0,0.0,0.0,0.0,0.0,0.0,0.0,0.0,0.0,0.0,0.0,0.0,0.0,0.0,0.0,0.0,0.0,0.0,0.0,0.0,0.0,0.0,0.0,0.0,0.0,0.0,0.0,0.0,0.0,0.0,0.0,0.0,0.0,-0.2211,-0.273,-0.3186,-0.3522,-0.3744,-0.4076,0.0,0.0,0.0,0.0,0.0,0.0,0.0,0.0,0.0,0.0,0.0,0.0,0.0,0.0,0.0,0.0,0.0,0.0,0.0,0.0,0.0,0.0,0.0,0.0,0.0,0.0,0.0,0.0,0.0,0.0,0.0,0.0,0.0,0.0,0.0,0.0,0.0,0.0,0.0,0.0,0.0,0.0,0.0,0.0,0.0,0.0,0.0,0.0,0.0,0.0,0.0,0.0,0.0,0.0,0.0,0.0,0.0,0.0,0.0,0.0,0.0,0.0,0.0,0.0,0.0,0.0,0.0,0.0,0.0,0.0,0.0,0.0,0.0,0.0,0.0,0.0,0.0,0.0,0.0,0.0,0.0,0.0,0.0,0.0,0.0,0.0,0.0,0.0,0.0,0.0,0.0,0.0,0.0,0.0,0.0,0.0,0.0,0.0,0.0,0.0,0.0,0.0,0.0,0.0,0.0,0.0,0.0,0.0,-0.2504,-0.2304,-0.283,-0.3352,-0.3852,-0.4076,-0.4405,0.0,0.0,0.0,0.0,0.0,0.0,0.0,0.0,0.0,0.0,0.0,0.0,0.0,0.0,0.0,0.0,0.0,0.0,0.0,0.0,0.0,0.0,0.0,0.0,0.0,0.0,0.0,0.0,0.0,0.0,0.0,0.0,0.0,0.0,0.0,0.0,0.0,0.0,0.0,0.0,0.0,0.0,0.0,0.0,0.0,0.0,0.0,0.0,0.0,0.0,0.0,0.0,0.0,0.0,0.0,0.0,0.0,0.0,0.0,0.0,0.0,0.0,0.0,0.0,0.0,0.0,0.0,0.0,0.0,0.0,0.0,0.0,0.0,0.0,0.0,0.0,0.0,0.0,0.0,0.0,0.0,0.0,0.0,0.0,0.0,0.0,0.0,0.0,0.0,0.0,0.0,0.0,0.0,0.0,0.0,0.0,0.0,0.0,0.0,0.0,0.0,0.0,0.0,0.0,0.0,0.0,0.0,0.0,-0.2591,-0.2422,-0.2879,-0.3434,-0.4005,-0.4314,-0.4625,0.0,0.0,0.0,0.0,0.0,0.0,0.0,0.0,0.0,0.0,0.0,0.0,0.0,0.0,0.0,0.0,0.0,0.0,0.0,0.0,0.0,0.0,0.0,0.0,0.0,0.0,0.0,0.0,0.0,0.0,0.0,0.0,0.0,0.0,0.0,0.0,0.0,0.0,0.0,0.0,0.0,0.0,0.0,0.0,0.0,0.0,0.0,0.0,0.0,0.0,0.0,0.0,0.0,0.0,0.0,0.0,0.0,0.0,0.0,0.0,0.0,0.0,0.0,0.0,0.0,0.0,0.0,0.0,0.0,0.0,0.0,0.0,0.0,0.0,0.0,0.0,0.0,0.0,0.0,0.0,0.0,0.0,0.0,0.0,0.0,0.0,0.0,0.0,0.0,0.0,0.0,0.0,0.0,0.0,0.0,0.0,0.0,0.0,0.0,0.0,0.0,0.0,0.0,0.0,0.0,0.0,0.0,0.0,-0.2479,-0.2533,-0.3074,-0.3645,-0.4329,-0.4472,-0.4739,0.0,0.0,0.0,0.0,0.0,0.0,0.0,0.0,0.0,0.0,0.0,0.0,0.0,0.0,0.0,0.0,0.0,0.0,0.0,0.0,0.0,0.0,0.0,0.0,0.0,0.0,0.0,0.0,0.0,0.0,0.0,0.0,0.0,0.0,0.0,0.0,0.0,0.0,0.0,0.0,0.0,0.0,0.0,0.0,0.0,0.0,0.0,0.0,-0.8572,0.0,0.0,0.0,0.0,0.0,0.0,0.0,0.0,0.0,0.0,0.0,0.0,0.0,0.0,0.0,0.0,0.0,0.0,0.0,0.0,0.0,0.0,0.0,0.0,0.0,0.0,0.0,0.0,0.0,0.0,0.0,0.0,0.0,0.0,0.0,0.0,0.0,0.0,0.0,0.0,0.0,0.0,0.0,0.0,0.0,0.0,0.0,0.0,0.0,0.0,0.0,0.0,0.0,0.0,0.0,0.0,0.0,0.0,0.0,-0.2609,-0.276,-0.3382,-0.3879,-0.4229,-0.4673,-0.5136,0.0,0.0,0.0,0.0,0.0,0.0,0.0,0.0,0.0,0.0,0.0,0.0,0.0,0.0,0.0,0.0,0.0,0.0,0.0,0.0,0.0,0.0,0.0,0.0,0.0,0.0,0.0,0.0,0.0,0.0,0.0,0.0,0.0,0.0,0.0,0.0,0.0,0.0,0.0,0.0,0.0,0.0,0.0,0.0,0.0,0.0,0.0,0.0,0.0,0.0,0.0,0.0,0.0,0.0,0.0,0.0,0.0,0.0,0.0,0.0,0.0,0.0,0.0,0.0,0.0,0.0,0.0,0.0,0.0,0.0,0.0,0.0,0.0,0.0,0.0,0.0,0.0,0.0,0.0,0.0,0.0,0.0,0.0,0.0,0.0,0.0,0.0,0.0,0.0,0.0,0.0,0.0,0.0,0.0,0.0,0.0,0.0,0.0,0.0,0.0,0.0,0.0,0.0,0.0,0.0,0.0,0.0,-0.3063,-0.274,-0.2938,-0.365,-0.4073,-0.4172,-0.4991,-0.5686,-0.6169,0.0,0.0,0.0,0.0,0.0,0.0,0.0,0.0,0.0,0.0,0.0,0.0,0.0,0.0,0.0,0.0,0.0,0.0,0.0,0.0,0.0,0.0,0.0,0.0,0.0,0.0,0.0,0.0,0.0,0.0,0.0,0.0,0.0,0.0,0.0,0.0,0.0,0.0,-0.8985,-0.9526,0.0,0.0,0.0,0.0,0.0,0.0,0.0,0.0,-0.8969,0.0,0.0,0.0,0.0,0.0,0.0,0.0,0.0,0.0,0.0,0.0,0.0,0.0,0.0,0.0,0.0,0.0,0.0,0.0,0.0,0.0,0.0,0.0,0.0,0.0,0.0,0.0,0.0,0.0,0.0,0.0,0.0,0.0,0.0,0.0,0.0,0.0,0.0,0.0,0.0,0.0,0.0,0.0,0.0,0.0,0.0,0.0,0.0,0.0,0.0,0.0,0.0,0.0,0.0,0.0,0.0,-0.3635,-0.2941,-0.2758,-0.2967,-0.3688,-0.4258,-0.4752,-0.5277,-0.5976,-0.6762,0.0,0.0,0.0,0.0,0.0,0.0,0.0,0.0,0.0,0.0,0.0,0.0,0.0,0.0,0.0,0.0,0.0,0.0,0.0,0.0,0.0,0.0,0.0,0.0,0.0,0.0,0.0,0.0,0.0,0.0,0.0,0.0,0.0,0.0,0.0,0.0,0.0,0.0,0.0,-0.9956,-0.9974,0.0,0.0,0.0,0.0,0.0,0.0,0.0,0.0,-0.8934,0.0,0.0,0.0,0.0,0.0,0.0,0.0,0.0,0.0,0.0,0.0,0.0,0.0,0.0,0.0,0.0,0.0,0.0,0.0,0.0,0.0,0.0,0.0,0.0,0.0,0.0,0.0,0.0,0.0,0.0,0.0,0.0,0.0,0.0,0.0,0.0,0.0,0.0,0.0,0.0,0.0,0.0,0.0,0.0,0.0,0.0,0.0,0.0,0.0,0.0,0.0,0.0,0.0,0.0,0.0,-0.3747,-0.3195,-0.3017,-0.3401,-0.3996,-0.4581,-0.4941,-0.5355,-0.5982,0.0,0.0,0.0,0.0,0.0,0.0,0.0,0.0,0.0,0.0,0.0,0.0,0.0,0.0,0.0,0.0,0.0,0.0,0.0,0.0,0.0,0.0,0.0,0.0,0.0,0.0,0.0,0.0,0.0,0.0,0.0,0.0,0.0,0.0,0.0,0.0,0.0,0.0,0.0,0.0,-0.998,-1.0126,-0.9717,0.0,0.0,0.0,0.0,0.0,0.0,-0.9573,-0.9659,0.0,0.0,0.0,0.0,0.0,0.0,0.0,0.0,0.0,0.0,0.0,0.0,0.0,0.0,0.0,0.0,0.0,0.0,0.0,0.0,0.0,0.0,0.0,0.0,0.0,0.0,0.0,0.0,0.0,0.0,0.0,0.0,0.0,0.0,0.0,0.0,0.0,0.0,0.0,0.0,0.0,0.0,0.0,0.0,0.0,0.0,0.0,0.0,0.0,0.0,0.0,0.0,0.0,0.0,0.0,-0.3802,-0.3465,-0.3465,-0.3765,-0.4458,-0.4859,-0.5078,-0.5495,-0.6003,0.0,0.0,0.0,0.0,0.0,0.0,0.0,0.0,0.0,0.0,0.0,0.0,0.0,0.0,0.0,0.0,0.0,0.0,0.0,0.0,0.0,0.0,0.0,0.0,0.0,0.0,0.0,0.0,0.0,0.0,0.0,0.0,0.0,0.0,0.0,0.0,0.0,0.0,0.0,0.0,0.0,-1.0191,-1.0377,-1.0639,0.0,0.0,0.0,0.0,-1.0115,-1.0145,0.0,0.0,0.0,0.0,0.0,0.0,0.0,0.0,0.0,0.0,0.0,0.0,0.0,0.0,0.0,0.0,0.0,0.0,0.0,0.0,0.0,0.0,0.0,0.0,0.0,0.0,0.0,0.0,0.0,0.0,0.0,0.0,0.0,0.0,0.0,0.0,0.0,0.0,0.0,0.0,0.0,0.0,0.0,0.0,0.0,0.0,0.0,0.0,0.0,0.0,0.0,0.0,0.0,0.0,0.0,0.0,-0.3246,-0.3697,-0.3876,-0.365,-0.461,-0.5178,-0.5357,-0.5811,-0.6352,0.0,0.0,0.0,0.0,0.0,0.0,0.0,0.0,0.0,0.0,0.0,0.0,0.0,0.0,0.0,0.0,0.0,0.0,0.0,0.0,0.0,0.0,0.0,0.0,0.0,0.0,0.0,0.0,0.0,0.0,0.0,0.0,0.0,0.0,0.0,0.0,0.0,0.0,0.0,0.0,0.0,-1.0005,-1.0069,-1.0626,-1.0871,0.0,0.0,-1.071,-1.0431,-1.0721,0.0,0.0,0.0,0.0,0.0,0.0,0.0,0.0,0.0,0.0,0.0,0.0,0.0,0.0,0.0,0.0,0.0,0.0,0.0,0.0,0.0,0.0,0.0,0.0,0.0,0.0,0.0,0.0,0.0,0.0,0.0,0.0,0.0,0.0,0.0,0.0,0.0,0.0,0.0,0.0,0.0,0.0,0.0,0.0,0.0,0.0,0.0,0.0,0.0,0.0,0.0,0.0,0.0,0.0,0.0,-0.3858,-0.3524,-0.3882,-0.4099,-0.4228,-0.5043,-0.5577,-0.5841,-0.593,-0.6324,0.0,0.0,0.0,0.0,0.0,0.0,0.0,0.0,0.0,0.0,0.0,0.0,0.0,0.0,0.0,0.0,0.0,0.0,0.0,0.0,0.0,0.0,0.0,0.0,0.0,0.0,0.0,0.0,0.0,0.0,0.0,0.0,0.0,0.0,0.0,0.0,0.0,0.0,0.0,0.0,0.0,0.0,-0.9961,-1.0241,0.0,0.0,0.0,-1.0812,-1.0897,0.0,0.0,0.0,0.0,0.0,0.0,0.0,0.0,0.0,0.0,0.0,0.0,0.0,0.0,0.0,0.0,0.0,0.0,0.0,0.0,0.0,0.0,0.0,0.0,0.0,0.0,0.0,0.0,0.0,0.0,0.0,0.0,0.0,0.0,0.0,0.0,0.0,0.0,0.0,0.0,0.0,0.0,0.0,0.0,0.0,0.0,0.0,0.0,0.0,0.0,0.0,0.0,0.0,0.0,0.0,0.0,0.0,-0.3633,-0.3932,-0.4302,-0.4674,-0.5392,-0.5881,-0.621,-0.6177,0.0,0.0,0.0,0.0,0.0,0.0,0.0,0.0,0.0,0.0,0.0,0.0,0.0,0.0,0.0,0.0,0.0,0.0,0.0,0.0,0.0,0.0,0.0,0.0,0.0,0.0,0.0,-0.7542,0.0,0.0,0.0,0.0,0.0,0.0,0.0,0.0,0.0,0.0,0.0,0.0,0.0,0.0,-0.8981,-0.9703,-0.9925,-1.0146,0.0,0.0,-1.0922,-1.1267,-1.181,-1.2393,0.0,0.0,0.0,0.0,0.0,0.0,0.0,0.0,0.0,0.0,0.0,0.0,0.0,0.0,0.0,0.0,0.0,0.0,0.0,0.0,0.0,0.0,0.0,0.0,0.0,0.0,0.0,0.0,0.0,0.0,0.0,0.0,0.0,0.0,0.0,0.0,0.0,0.0,0.0,0.0,0.0,0.0,0.0,0.0,0.0,0.0,0.0,0.0,0.0,0.0,0.0,0.0,0.0,0.0,-0.3849,-0.3193,-0.3988,-0.4485,-0.4549,-0.5585,-0.6214,-0.621,-0.6749,-0.6997,0.0,0.0,0.0,0.0,0.0,0.0,0.0,0.0,0.0,0.0,0.0,0.0,0.0,0.0,0.0,0.0,0.0,0.0,0.0,0.0,0.0,0.0,0.0,0.0,0.0,0.0,0.0,0.0,0.0,0.0,0.0,0.0,0.0,0.0,0.0,0.0,0.0,0.0,0.0,0.0,0.0,-0.8771,-0.9183,-0.9703,-1.0174,0.0,-1.0922,-1.1167,-1.136,-1.2138,-1.2967,-1.3621,0.0,0.0,0.0,0.0,0.0,0.0,0.0,0.0,0.0,0.0,0.0,0.0,0.0,0.0,0.0,0.0,0.0,0.0,0.0,0.0,0.0,0.0,0.0,0.0,0.0,0.0,0.0,0.0,0.0,0.0,0.0,0.0,0.0,0.0,0.0,0.0,0.0,0.0,0.0,0.0,0.0,0.0,0.0,0.0,0.0,0.0,0.0,0.0,0.0,0.0,0.0,0.0,0.0,-0.3893,-0.3571,-0.4207,-0.471,-0.4988,-0.5834,-0.6416,-0.6474,-0.7057,-0.737,0.0,0.0,0.0,0.0,0.0,0.0,0.0,0.0,0.0,0.0,0.0,0.0,0.0,0.0,0.0,0.0,0.0,0.0,0.0,0.0,0.0,0.0,0.0,0.0,0.0,0.0,0.0,0.0,-0.8206,-0.8287,-0.9103,0.0,0.0,0.0,0.0,0.0,0.0,0.0,0.0,0.0,0.0,-0.8672,-0.8928,-0.9503,0.0,0.0,-1.0972,-1.1267,-1.1769,-1.2255,-1.288,-1.3789,-1.4093,0.0,0.0,0.0,0.0,0.0,0.0,0.0,0.0,0.0,0.0,0.0,0.0,0.0,0.0,0.0,0.0,0.0,0.0,0.0,0.0,0.0,0.0,0.0,0.0,0.0,0.0,0.0,0.0,0.0,0.0,0.0,0.0,0.0,0.0,0.0,0.0,0.0,0.0,0.0,0.0,0.0,0.0,0.0,0.0,0.0,0.0,0.0,0.0,0.0,0.0,0.0,0.0,-0.3972,-0.3812,-0.4354,-0.4859,-0.5255,-0.6059,-0.6548,-0.6741,-0.7456,-0.7807,0.0,0.0,0.0,0.0,0.0,0.0,0.0,0.0,0.0,0.0,0.0,0.0,0.0,0.0,0.0,0.0,0.0,0.0,0.0,0.0,0.0,0.0,0.0,0.0,0.0,0.0,0.0,0.0,-0.8604,-0.8813,-0.934,0.0,0.0,0.0,0.0,0.0,0.0,0.0,0.0,0.0,0.0,-0.8296,-0.8461,-0.9138,-0.9925,-1.06,-1.0913,-1.1326,-1.1968,-1.2264,-1.2745,-1.3742,0.0,0.0,0.0,0.0,0.0,0.0,0.0,0.0,0.0,0.0,0.0,0.0,0.0,0.0,0.0,0.0,0.0,0.0,0.0,0.0,0.0,0.0,0.0,0.0,0.0,0.0,0.0,-0.2691,0.0,0.0,-0.2691,0.0,0.0,0.0,0.0,0.0,0.0,0.0,0.0,0.0,0.0,0.0,0.0,0.0,0.0,0.0,0.0,0.0,0.0,0.0,0.0,0.0,0.0,-0.4082,-0.3812,-0.4483,-0.4982,-0.5378,-0.625,-0.6741,-0.6876,-0.7907,-0.8371,-0.8135,0.0,0.0,0.0,0.0,0.0,0.0,0.0,0.0,0.0,0.0,0.0,0.0,0.0,0.0,0.0,0.0,0.0,0.0,0.0,0.0,0.0,0.0,0.0,0.0,0.0,0.0,-0.7753,-0.8343,-0.8974,0.0,0.0,0.0,0.0,0.0,0.0,0.0,0.0,0.0,-0.8324,-0.7741,-0.7522,-0.7717,-0.8679,-0.9614,-1.0167,-1.0744,-1.1318,-1.1977,-1.2264,-1.2706,0.0,0.0,0.0,0.0,0.0,0.0,0.0,0.0,0.0,0.0,0.0,0.0,0.0,0.0,0.0,0.0,0.0,0.0,0.0,0.0,0.0,0.0,0.0,0.0,0.0,0.0,0.0,-0.2631,-0.2965,0.0,0.0,0.0,0.0,0.0,0.0,0.0,0.0,0.0,0.0,0.0,-0.5242,-0.5677,0.0,0.0,0.0,0.0,0.0,0.0,0.0,0.0,0.0,0.0,0.0,0.0,-0.4059,-0.4041,-0.451,-0.5033,-0.5528,-0.631,-0.6806,-0.7073,-0.7777,-0.8259,-0.8555,0.0,0.0,0.0,0.0,0.0,0.0,0.0,0.0,0.0,0.0,0.0,0.0,0.0,0.0,0.0,0.0,0.0,0.0,0.0,0.0,0.0,0.0,0.0,0.0,0.0,-0.8063,0.0,0.0,0.0,0.0,0.0,0.0,0.0,0.0,0.0,0.0,-1.0015,-0.9537,-0.8712,-0.8,-0.7823,-0.8343,-0.9138,-0.9873,0.0,0.0,0.0,0.0,0.0,0.0,0.0,0.0,0.0,0.0,0.0,0.0,0.0,0.0,-1.5038,-1.4448,-1.4054,-1.3831,-1.3893,0.0,0.0,0.0,0.0,0.0,0.0,0.0,0.0,0.0,0.0,0.0,0.0,0.0,0.0,-0.2854,-0.3188,-0.3299,0.0,0.0,0.0,0.0,0.0,0.0,0.0,0.0,-0.5293,-0.5458,-0.5572,-0.595,-0.6164,-0.6164,-0.6376,-0.6485,0.0,0.0,0.0,0.0,0.0,0.0,0.0,0.0,-0.4053,-0.3977,-0.464,-0.5231,-0.5734,-0.6474,-0.7003,-0.7326,-0.7904,-0.8537,-0.906,-0.9623,-0.9834,0.0,0.0,0.0,0.0,0.0,0.0,0.0,0.0,0.0,0.0,0.0,0.0,0.0,0.0,0.0,0.0,0.0,0.0,0.0,0.0,0.0,0.0,0.0,-0.8321,0.0,0.0,0.0,0.0,0.0,0.0,0.0,0.0,0.0,-1.0431,-1.0319,-0.9903,-0.9051,-0.8391,-0.8138,-0.8652,0.0,0.0,0.0,0.0,0.0,0.0,0.0,-1.2813,-1.3621,-1.414,-1.4777,-1.5756,-1.6527,-1.6918,-1.6662,0.0,0.0,-1.5743,-1.5395,-1.5252,-1.5229,-1.4993,-1.4767,-1.4631,-1.4426,-1.4193,0.0,0.0,0.0,0.0,-0.3342,0.0,0.0,0.0,-0.2905,-0.313,0.0,-0.3741,0.0,0.0,0.0,0.0,-0.4021,-0.4353,0.0,0.0,-0.5572,-0.5732,-0.6014,-0.6282,-0.6381,-0.6436,-0.6869,-0.7095,-0.7095,-0.6668,-0.6232,0.0,0.0,0.0,0.0,0.0,-0.4172,-0.3763,-0.48,-0.5521,-0.5885,-0.6745,-0.7326,-0.7512,-0.849,-0.9134,-0.9447,-0.9992,-1.02,-0.994,-1.0075,0.0,0.0,0.0,0.0,0.0,0.0,0.0,0.0,0.0,0.0,0.0,0.0,0.0,0.0,0.0,0.0,0.0,0.0,0.0,0.0,-0.8474,0.0,0.0,0.0,0.0,0.0,0.0,0.0,0.0,0.0,-0.9888,-1.0493,-1.059,-1.0245,-0.938,0.0,0.0,0.0,0.0,-0.9917,-1.0218,-1.0846,-1.1528,-1.2026,-1.2224,-1.2608,-1.3478,0.0,0.0,-1.6355,-1.7293,-1.7923,-1.7936,-1.8017,-1.7572,-1.6228,-1.6328,-1.6489,-1.6164,-1.6102,-1.5947,-1.5513,-1.5496,-1.5445,-0.6251,0.0,0.0,0.0,0.0,-0.3698,-0.3429,-0.3302,-0.3463,-0.3796,-0.4184,-0.4563,0.0,0.0,0.0,0.0,0.0,0.0,-0.4916,-0.5474,-0.5571,-0.5695,-0.5875,-0.6133,-0.6277,-0.644,-0.6766,-0.7176,-0.7505,-0.7399,-0.6946,-0.6154,0.0,0.0,0.0,0.0,-0.4252,-0.4056,-0.4855,-0.546,-0.5888,-0.6618,-0.7265,-0.7939,-0.8601,-0.9063,-0.9154,-0.9959,-1.0234,-0.9864,-1.0249,0.0,0.0,0.0,0.0,0.0,0.0,0.0,0.0,0.0,0.0,0.0,0.0,0.0,0.0,0.0,0.0,0.0,0.0,0.0,-0.8626,-0.8844,-0.8995,0.0,0.0,0.0,0.0,0.0,0.0,0.0,0.0,0.0,-1.1023,-1.1411,-1.1046,0.0,0.0,-0.9535,-0.9467,-0.9821,-1.0241,-1.0753,-1.1418,0.0,-1.2076,-1.2608,-1.3084,-1.342,-1.4719,-1.6184,-1.7609,-1.8388,-1.89,-1.9087,-1.896,-1.8632,-1.8028,-1.758,-1.7393,-1.7338,-1.7131,-1.6866,-1.6659,-1.6441,-1.6132,-0.7338,-0.6844,-0.642,-0.5733,-0.4904,-0.4626,-0.4263,-0.3937,-0.4101,-0.4525,-0.5094,-0.5429,-0.5714,-0.5823,-0.5582,0.0,0.0,0.0,-0.5174,-0.567,-0.5789,-0.5867,-0.5958,-0.6124,-0.6325,-0.6563,-0.6899,-0.7341,-0.7955,-0.7982,-0.7794,-0.7355,0.0,-0.5808,-0.5078,-0.4756,-0.4552,-0.4358,-0.4967,-0.5524,-0.6013,-0.6811,-0.7495,-0.8094,-0.8816,-0.9308,-0.9484,-1.0328,-1.0664,-1.0378,-1.0989,-1.1265,0.0,0.0,0.0,0.0,0.0,0.0,0.0,0.0,0.0,0.0,0.0,-0.9732,-0.9218,0.0,0.0,0.0,-0.8738,-0.8685,-0.8626,-0.8995,0.0,0.0,0.0,0.0,0.0,0.0,0.0,-1.0922,-1.0939,-1.0947,-1.1086,-1.178,-1.1724,-1.0319,-1.0181,-1.0196,-1.0246,0.0,-1.0557,-1.0972,-1.1528,-1.1977,-1.2126,-1.2647,-1.324,-1.3897,-1.5319,-1.6669,-1.765,-1.8549,-1.9125,-1.9221,-1.9157,-1.8989,-1.8754,-1.8194,-1.7855,-1.8029,-1.7747,-1.7447,-1.7242,-1.6921,-1.6522,-0.7969,-0.8528,-0.8011,-0.7151,-0.6124,-0.5608,-0.5158,-0.4834,-0.4853,-0.5275,-0.6053,-0.6353,-0.6773,-0.7176,-0.6214,0.0,-0.5289,-0.5289,-0.5591,-0.6174,-0.6089,-0.6172,-0.6248,-0.6215,-0.6425,-0.6807,-0.7214,-0.7731,-0.8449,-0.85,-0.8743,-0.9029,-0.7532,-0.6478,-0.5767,-0.5268,-0.4988,-0.4751,-0.5335,-0.5811,-0.621,-0.7199,-0.7822,-0.8183,-0.9012,-0.9712,-1.0235,-1.0787,-1.118,-1.1259,-1.1986,-1.2365,-1.2131,0.0,0.0,0.0,0.0,0.0,0.0,0.0,0.0,0.0,0.0,0.0,0.0,0.0,0.0,0.0,-0.8956,0.0,-0.8712,-0.9218,0.0,0.0,0.0,-1.1023,-1.1276,-1.1578,-1.1619,-1.1318,0.0,0.0,-1.0833,-1.1742,-1.2273,-1.1792,-1.1106,-1.067,-1.0872,-1.0871,-1.082,-1.0972,-1.1418,-1.1918,-1.2332,-1.2715,-1.341,-1.4648,-1.5957,-1.6846,-1.7347,-1.8282,-1.8916,-1.906,-1.8915,-1.8845,-1.8805,-1.833,-1.8003,-1.8201,-1.8016,-1.7733,-1.7368,-1.7076,-1.6625,-0.8918,-0.9308,-0.926,-0.8497,-0.728,-0.6851,-0.6397,-0.6054,-0.592,-0.6117,-0.6584,-0.7066,-0.7364,-0.7483,-0.6894,-0.641,-0.6122,-0.6126,-0.6255,-0.6494,-0.6208,-0.6267,-0.6549,-0.6383,-0.6541,-0.7111,-0.7624,-0.8196,-0.8845,-0.8937,-0.9194,-0.9426,-0.836,-0.7507,-0.6862,-0.6185,-0.5797,-0.5704,-0.6039,-0.6482,-0.6937,-0.7466,-0.8021,-0.8803,-0.9111,-0.9712,-1.0483,-1.0535,-1.0768,-1.139,-1.1744,-1.2272,-1.2857,-1.3076,0.0,0.0,0.0,0.0,0.0,0.0,0.0,0.0,0.0,-1.0667,-1.0257,0.0,-0.9614,0.0,-0.9211,-0.9408,-0.9688,-1.0136,0.0,0.0,-1.0913,-1.1276,-1.1427,-1.1678,-1.1719,-1.1477,-1.171,-1.1715,-1.123,-1.1751,-1.215,-1.2017,-1.1849,-1.1556,-1.1124,-1.1377,-1.1578,-1.1477,-1.1977,-1.2471,-1.2656,-1.3392,-1.4152,-1.4877,-1.6129,-1.7381,-1.8366,-1.9029,-1.9623,-1.9992,-1.9475,-1.9155,-1.9314,-1.8601,-1.7963,-1.8042,-1.7814,-1.7638,-1.7678,-1.7293,-1.6667,-0.9058,-0.9525,-0.9609,-0.9249,-0.8635,-0.7648,-0.6931,-0.6437,-0.6457,-0.6742,-0.736,-0.8097,-0.8343,-0.8061,-0.7643,-0.7223,-0.6743,-0.6621,-0.6617,-0.6773,-0.6643,-0.6718,-0.6898,-0.6889,-0.7058,-0.7497,-0.8081,-0.8712,-0.9282,-0.9495,-0.9764,-1.018,-0.9244,-0.8567,-0.8274,-0.7135,-0.6639,-0.683,-0.6989,-0.7229,-0.7474,-0.7807,-0.8403,-0.9182,-0.9397,-0.9958,-1.094,-1.0824,-1.1005,-1.1511,-1.1876,-1.2331,-1.2838,-1.3263,-1.3528,0.0,0.0,0.0,0.0,0.0,0.0,0.0,0.0,0.0,0.0,0.0,-0.9777,-0.9226,-0.9468,-0.9933,-1.0505,-1.0854,-1.105,-1.1102,-1.137,-1.1619,-1.1678,-1.1877,-1.1927,-1.1719,-1.1927,-1.2026,-1.1769,-1.1968,-1.2126,-1.2184,-1.2382,-1.2323,-1.1819,-1.1828,-1.1877,-1.1828,-1.2283,-1.2851,-1.3155,-1.4053,-1.481,-1.5206,-1.6479,-1.7661,-1.8119,-1.9004,-1.9673,-1.9406,-1.9046,-1.8774,-1.875,-1.8054,-1.7515,-1.7666,-1.7529,-1.7528,-1.7785,-1.74,-1.6693,-0.9079,-0.9709,-0.9716,-0.9712,-0.9697,-0.8317,-0.7335,-0.674,-0.6841,-0.7302,-0.8158,-0.9057,-0.9267,-0.8834,-0.8436,-0.7928,-0.7365,-0.6981,-0.6904,-0.6958,-0.7149,-0.7279,-0.7312,-0.7483,-0.7626,-0.7922,-0.8581,-0.9184,-0.963,-1.0,-1.0423,-1.0778,-0.9995,-0.9586,-0.9602,-0.8191,-0.7599,-0.7887,-0.796,-0.799,-0.7923,-0.8258,-0.8799,-0.9522,-0.9728,-1.0341,-1.143,-1.1347,-1.1385,-1.163,-1.2155,-1.2542,-1.2714,-1.3408,-1.383,0.0,-1.4118,0.0,0.0,0.0,0.0,0.0,0.0,0.0,0.0,-1.0892,-1.009,-0.9445,-0.9854,-1.045,-1.136,-1.1509,-1.1547,-1.1648,-1.1885,-1.2013,-1.1968,-1.21,-1.2149,-1.2,-1.2054,-1.2175,-1.2175,-1.2126,-1.2126,-1.2252,-1.2591,-1.2874,-1.2838,-1.2501,-1.2287,-1.2273,-1.2622,-1.3193,-1.3852,-1.4646,-1.5353,-1.5656,-1.6721,-1.7637,-1.7356,-1.843,-1.912,-1.8202,-1.8176,-1.8226,-1.7753,-1.7273,-1.6973,-1.7225,-1.717,-1.7251,-1.7646,-1.7287,-1.665,-0.9904,-1.0591,-1.0591,-1.0137,-0.9328,-0.8826,-0.8631,-0.866,-0.8028,-0.8115,-0.873,-0.9186,-0.9466,-0.9519,-0.8807,-0.8461,-0.8384,-0.7855,-0.7499,-0.7409,-0.7621,-0.7697,-0.7664,-0.7702,-0.7919,-0.8327,-0.8881,-0.9324,-0.9623,-1.0227,-1.0647,-1.0943,-1.0613,-1.0467,-1.0381,0.0,0.0,0.0,-0.8656,-0.8687,-0.8471,-0.8929,-0.9388,-0.9838,-1.0058,0.0,-1.1248,-1.1211,-1.1503,-1.2242,-1.2242,0.0,0.0,0.0,0.0,0.0,0.0,0.0,0.0,0.0,0.0,0.0,-1.3965,-1.3349,-1.2976,-1.1894,-1.1207,-1.1105,-1.0917,-1.1282,-1.2447,-1.2335,-1.2104,-1.199,-1.2476,-1.2769,-1.2452,-1.2604,-1.2707,-1.2553,-1.241,-1.2206,-1.2017,-1.1918,-1.1918,-1.2122,-1.2331,-1.2992,-1.4246,-1.3896,-1.3552,-1.3349,-1.3499,-1.3827,-1.4184,-1.5008,-1.5775,-1.6342,-1.6866,-1.7484,-1.7676,-1.7716,-1.8032,-1.7809,-1.7582,-1.7422,-1.7543,-1.7042,-1.6607,-1.665,-1.665,-1.6842,-1.7418,-1.7033,-1.6405,-1.0137,-1.0604,-1.0604,-1.0257,0.0,-0.93,-0.9176,-0.916,-0.8361,-0.8383,-0.8985,-0.9124,-0.9481,-0.998,-0.9059,-0.888,-0.9212,-0.8317,-0.7947,-0.8117,-0.8226,-0.8264,-0.8226,-0.8341,-0.8422,-0.8543,-0.9102,-0.9483,-0.9623,-1.0444,-1.0805,-1.0738,-1.0947,-1.0885,-1.056,-1.0317,-0.989,-0.9427,-0.9335,-0.9264,-0.9427,-0.9645,-0.9971,-1.0441,-1.0741,0.0,0.0,0.0,0.0,0.0,0.0,0.0,0.0,-1.37,-1.4121,-1.4893,-1.4984,-1.5145,-1.5522,-1.5563,-1.5649,-1.5911,-1.541,-1.457,-1.3232,-1.2584,-1.2003,-1.1521,-1.153,-1.2083,-1.3041,-1.2879,-1.2707,-1.2793,-1.294,-1.2978,-1.2904,-1.3028,-1.3007,-1.2742,-1.2582,-1.2388,-1.2144,-1.1819,-1.1787,-1.2068,-1.2366,-1.303,-1.4317,-1.4377,-1.4141,-1.4131,-1.398,-1.4235,-1.4787,-1.5309,-1.5964,-1.6656,-1.7276,-1.7634,-1.7636,-1.7787,-1.78,-1.7445,-1.7066,-1.6925,-1.6853,-1.6579,-1.6405,-1.6479,-1.6466,-1.6516,-1.6896,-1.6647,-1.6163,-1.0289,-1.0472,-1.052,-1.0373,-1.0055,-0.9777,-0.9531,-0.9184,-0.8467,0.0,0.0,-0.9175,-0.9554,-1.0189,-0.9409,-0.931,-0.9718,-0.8726,-0.8424,-0.8786,-0.8867,-0.8855,-0.8882,-0.9069,-0.9052,-0.8927,-0.9422,-0.967,-0.9659,-1.0556,-1.0935,-1.0698,-1.1177,-1.1257,-1.0672,-1.0651,-1.058,-1.0434,-0.9997,-0.9975,-1.037,-1.0431,-1.0701,-1.1228,-1.1461,-1.1831,-1.2431,-1.2189,-1.2086,-1.2143,-1.2553,-1.2948,-1.3369,-1.3857,-1.4409,-1.5134,-1.5527,-1.5894,-1.6353,-1.6581,-1.6797,-1.7067,-1.6729,-1.5618,-1.3562,-1.3341,-1.2898,-1.1917,-1.2252,-1.2771,-1.3449,-1.322,-1.3139,-1.3473,-1.3307,-1.3248,-1.3406,-1.3378,-1.323,-1.2963,-1.2846,-1.2633,-1.2382,-1.1981,-1.1722,-1.2016,-1.2352,-1.3213,-1.4308,-1.4676,-1.4592,-1.4649,-1.446,-1.4536,-1.5195,-1.5675,-1.6124,-1.6935,-1.7512,-1.7721,-1.7497,-1.7725,-1.7581,-1.663,-1.6638,-1.6633,-1.6357,-1.6296,-1.6279,-1.6442,-1.6312,-1.6175,-1.6274,-1.6162,-1.58,-1.0586,-1.1243,-1.1338,-1.0773,-0.9974,-1.0273,-1.0007,-0.9295,-0.8917,-0.8998,-0.9259,-0.9586,-0.9986,-1.0415,-1.0107,-0.9962,-0.988,-0.9515,-0.9232,-0.903,-0.9408,-0.9529,-0.9559,-0.9589,-0.9658,-0.9685,-0.9933,-0.9976,-0.9914,-1.0814,-1.123,-1.119,-1.1644,-1.1713,-1.1321,-1.1243,-1.1279,-1.1205,-1.0977,-1.0948,-1.1156,-1.1469,-1.1682,-1.1695,-1.175,-1.1912,-1.2305,-1.219,-1.2173,-1.2251,-1.2892,-1.3441,-1.3748,-1.4249,-1.4921,-1.5756,-1.5851,-1.6046,-1.6513,-1.6976,-1.7267,-1.7412,-1.7357,-1.6789,-1.5578,-1.4762,-1.4232,-1.4043,-1.3502,-1.3218,-1.3484,-1.3408,-1.3348,-1.3348,-1.3623,-1.3826,-1.3789,-1.3746,-1.3644,-1.3663,-1.32,-1.2805,-1.2577,-1.2393,-1.2131,-1.1963,-1.2529,-1.3341,-1.511,-1.5733,-1.5391,-1.4978,-1.4891,-1.4996,-1.5361,-1.57,-1.6385,-1.7291,-1.7278,-1.7251,-1.7217,-1.6938,-1.6622,-1.6047,-1.6414,-1.6616,-1.6556,-1.6452,-1.6452,-1.6462,-1.614,-1.5718,-1.5686,-1.5596,-1.5437,-1.1603,-1.1933,-1.154,-1.0988,-1.0449,-1.0148,-0.9793,-0.9327,-0.9573,-0.9526,-0.928,-0.9432,-0.9796,-1.0284,-0.984,-0.988,-1.0199,-0.9772,-0.9638,-0.9737,-0.9953,-1.0037,-0.9992,-0.9992,-0.9936,-0.9911,-1.0501,-1.0703,-1.0742,-1.1778,-1.2208,-1.1959,-1.2344,-1.2619,-1.2536,-1.2312,-1.2472,-1.2849,-1.1787,-1.1345,-1.1655,-1.1951,-1.2087,-1.2229,-1.2457,-1.2617,-1.2704,-1.2572,-1.2585,-1.2892,-1.3235,-1.3725,-1.4367,-1.4714,-1.5187,-1.5831,-1.5939,-1.6087,-1.6296,-1.6581,-1.6818,-1.6864,-1.6853,-1.657,-1.5836,-1.5468,-1.4961,-1.4285,-1.3899,-1.3761,-1.3838,-1.358,-1.3562,-1.3988,-1.3972,-1.3999,-1.4191,-1.4248,-1.4156,-1.3912,-1.3808,-1.3556,-1.3118,-1.2791,-1.2534,-1.2289,-1.3387,-1.4877,-1.5568,-1.6038,-1.6162,-1.5825,-1.5538,-1.5538,-1.5941,-1.6449,-1.6927,-1.7357,-1.74,-1.75,-1.752,-1.7105,-1.6858,-1.6943,-1.6824,-1.6727,-1.6919,-1.6991,-1.6944,-1.6908,-1.6397,-1.5916,-1.5614,-1.5869,-1.5986,-1.2368,-1.245,-1.1903,-1.1432,-1.1083,-1.0236,-0.9806,-0.9664,-1.0216,-1.0148,-0.9611,-0.9488,-0.9668,-1.0064,-0.9724,-0.9873,-1.0327,-1.0099,-1.0122,-1.0423,-1.0449,-1.0493,-1.0526,-1.0505,-1.0361,-1.0319,-1.1025,-1.1358,-1.1502,-1.2634,-1.308,-1.2795,-1.3138,-1.3416,-1.3416,-1.3326,-1.3491,-1.3867,-1.2662,-1.2098,-1.2385,-1.2408,-1.2511,-1.2712,-1.3027,-1.317,-1.3112,-1.2983,-1.3122,-1.3574,-1.3768,-1.4267,-1.5138,-1.5435,-1.5689,-1.6014,-1.6049,-1.6068,-1.6175,-1.6331,-1.6508,-1.6555,-1.6555,-1.6335,-1.5918,-1.5876,-1.5468,-1.4419,-1.4249,-1.4249,-1.4181,-1.3761,-1.3752,-1.4478,-1.4001,-1.389,-1.4428,-1.4523,-1.4461,-1.4153,-1.4214,-1.4042,-1.3727,-1.3485,-1.3303,-1.3478,-1.5031,-1.6012,-1.5716,-1.6156,-1.6492,-1.6507,-1.5961,-1.5731,-1.6528,-1.6731,-1.6961,-1.7235,-1.7579,-1.7784,-1.7794,-1.7592,-1.7452,-1.7659,-1.7411,-1.7255,-1.752,-1.7531,-1.7434,-1.7253,-1.6716,-1.612,-1.5646,-1.6261,-1.65,-1.2327,-1.2337,-1.2679,-1.2468,-1.1834,-1.1106,-1.0724,-1.0487,-1.0837,-1.0799,-1.0407,-1.0293,-1.0073,-1.0014,-1.0472,-1.0589,-1.035,-1.0846,-1.0978,-1.0885,-1.0918,-1.1052,-1.1155,-1.0979,-1.1002,-1.1081,-1.1479,-1.1611,-1.1694,-1.2511,-1.318,-1.3502,-1.3975,-1.3902,-1.3412,-1.4024,-1.4104,-1.3344,-1.3747,-1.3817,-1.3547,-1.3093,-1.2945,-1.3119,-1.3035,-1.3134,-1.3423,-1.3323,-1.3587,-1.4279,-1.4889,-1.5498,-1.5954,-1.6372,-1.6685,-1.6843,-1.6494,-1.6307,-1.6331,-1.6688,-1.6992,-1.7248,-1.7227,-1.6971,-1.6417,-1.6115,-1.5652,-1.502,-1.4911,-1.4725,-1.4469,-1.4061,-1.395,-1.424,-1.3649,-1.3467,-1.4382,-1.4197,-1.4163,-1.4827,-1.4307,-1.3841,-1.4175,-1.4611,-1.4955,-1.4645,-1.5618,-1.64,-1.629,-1.6249,-1.6415,-1.6616,-1.6105,-1.5829,-1.6364,-1.6019,-1.6449,-1.7236,-1.7523,-1.7664,-1.7774,-1.7815,-1.7757,-1.784,-1.7994,-1.8053,-1.8022,-1.8008,-1.7763,-1.7399,-1.6865,-1.6232,-1.5778,-1.6243,-1.6367,-1.3389,-1.3446,-1.3173,-1.2455,-1.1624,-1.1421,-1.1101,-1.0681,-1.1036,-1.0993,-1.067,-1.0681,-1.0562,-1.0353,-1.0608,-1.0652,-1.0514,-1.0903,-1.1056,-1.1009,-1.1268,-1.1456,-1.1548,-1.1607,-1.1904,-1.2313,-1.2522,-1.2918,-1.3484,-1.4008,-1.4288,-1.4465,-1.4674,-1.4578,-1.4384,-1.466,-1.4743,-1.4533,-1.4422,-1.4504,-1.458,-1.3889,-1.3467,-1.3404,-1.3446,-1.3553,-1.3662,-1.3557,-1.3814,-1.4504,-1.4874,-1.5386,-1.6154,-1.6506,-1.6735,-1.6873,-1.6543,-1.6227,-1.6178,-1.6285,-1.6351,-1.6399,-1.6644,-1.6566,-1.6088,-1.6227,-1.6047,-1.5371,-1.5001,-1.4883,-1.4843,-1.4703,-1.4533,-1.4428,-1.3941,-1.3821,-1.4172,-1.4458,-1.4557,-1.4501,-1.4754,-1.4836,-1.4811,-1.5249,-1.5726,-1.593,-1.6446,-1.6612,-1.6454,-1.6493,-1.6714,-1.6798,-1.6512,-1.6587,-1.6949,-1.6664,-1.6837,-1.7476,-1.77,-1.7664,-1.7917,-1.7792,-1.7733,-1.8009,-1.8214,-1.8334,-1.8272,-1.8412,-1.8318,-1.7734,-1.7201,-1.6635,-1.5917,-1.6439,-1.6534,-1.4357,-1.4261,-1.3616,-1.2795,-1.2074,-1.1927,-1.1566,-1.1123,-1.1288,-1.1234,-1.0952,-1.1182,-1.116,-1.1002,-1.0762,-1.0729,-1.0762,-1.0977,-1.1117,-1.1209,-1.1542,-1.1787,-1.1976,-1.213,-1.2626,-1.3165,-1.3411,-1.3976,-1.4902,-1.517,-1.5303,-1.5303,-1.5303,-1.5259,-1.5111,-1.5245,-1.542,-1.5394,-1.5078,-1.5168,-1.5283,-1.4869,-1.4343,-1.3859,-1.3866,-1.3902,-1.4026,-1.3945,-1.4263,-1.5154,-1.5308,-1.5774,-1.6802,-1.7028,-1.7116,-1.711,-1.685,-1.6614,-1.6444,-1.6437,-1.6397,-1.6287,-1.6576,-1.6554,-1.6305,-1.6461,-1.636,-1.5879,-1.537,-1.5186,-1.5059,-1.5155,-1.5046,-1.4793,-1.4369,-1.4121,-1.4488,-1.4902,-1.4893,-1.4666,-1.5061,-1.5525,-1.5468,-1.5826,-1.6296,-1.6793,-1.6903,-1.6906,-1.6677,-1.6927,-1.7114,-1.7111,-1.705,-1.7171,-1.7598,-1.7241,-1.7359,-1.7739,-1.792,-1.792,-1.8193,-1.7996,-1.795,-1.8377,-1.8362,-1.8374,-1.8425,-1.8566,-1.8483,-1.7938,-1.7321,-1.6688,-1.6137,-1.6624,-1.6607,-1.4738,-1.4295,-1.4095,-1.4015,-1.3931,-1.2838,-1.2334,-1.2281,-1.1935,-1.1671,-1.1718,-1.1912,-1.1929,-1.1872,-1.1394,-1.1055,-1.1004,-1.1225,-1.144,-1.1618,-1.1782,-1.2048,-1.2651,-1.2657,-1.2919,-1.3534,-1.3741,-1.4309,-1.5217,-1.5454,-1.572,-1.5884,-1.5848,-1.5624,-1.5329,-1.5764,-1.5863,-1.559,-1.5786,-1.5904,-1.571,-1.5936,-1.556,-1.4659,-1.4283,-1.4314,-1.4522,-1.4522,-1.5147,-1.6437,-1.6618,-1.712,-1.8056,-1.8279,-1.8215,-1.7871,-1.7835,-1.7624,-1.7365,-1.7536,-1.76,-1.7511,-1.7546,-1.7656,-1.715,-1.6842,-1.6542,-1.6602,-1.6168,-1.5742,-1.5118,-1.5273,-1.5233,-1.4921,-1.4529,-1.4697,-1.5439,-1.5254,-1.542,-1.5459,-1.5129,-1.5262,-1.6156,-1.6503,-1.6804,-1.714,-1.7253,-1.7233,-1.7224,-1.7401,-1.7534,-1.7641,-1.7402,-1.71,-1.7716,-1.7554,-1.7603,-1.7955,-1.8139,-1.8139,-1.8398,-1.859,-1.8614,-1.8667,-1.8626,-1.8614,-1.8578,-1.8387,-1.8093,-1.7519,-1.6707,-1.6115,-1.6267,-1.6339,-1.6379,-1.514,-1.512,-1.4867,-1.4592,-1.4302,-1.3711,-1.33,-1.3045,-1.2887,-1.2802,-1.2802,-1.2887,-1.2887,-1.2881,-1.2614,-1.2149,-1.1582,-1.2157,-1.2317,-1.2071,-1.2831,-1.3267,-1.3177,-1.344,-1.4033,-1.4691,-1.4628,-1.4946,-1.5886,-1.6181,-1.6249,-1.6297,-1.6124,-1.5951,-1.5884,-1.6111,-1.6262,-1.6072,-1.6484,-1.6748,-1.6782,-1.6812,-1.653,-1.5902,-1.5454,-1.5082,-1.4999,-1.5141,-1.5497,-1.6272,-1.6533,-1.7088,-1.7852,-1.8269,-1.8422,-1.8298,-1.8102,-1.7934,-1.7708,-1.7714,-1.7663,-1.742,-1.768,-1.772,-1.7288,-1.7159,-1.6933,-1.649,-1.6951,-1.6827,-1.6069,-1.5831,-1.5488,-1.4852,-1.4824,-1.4883,-1.4893,-1.5196,-1.5488,-1.5352,-1.5264,-1.5773,-1.6415,-1.6797,-1.7054,-1.7422,-1.7501,-1.7523,-1.7557,-1.7645,-1.7854,-1.8007,-1.8009,-1.8077,-1.837,-1.7949,-1.7722,-1.8135,-1.8302,-1.8193,-1.8302,-1.829,-1.8344,-1.8398,-1.8518,-1.8518,-1.8344,-1.8035,-1.7752,-1.7319,-1.6446,-1.6331,-1.6373,-1.6469,-1.6436,-1.5691,-1.5908,-1.5616,-1.5347,-1.514,-1.4599,-1.4314,-1.3984,-1.3815,-1.373,-1.3808,-1.3893,-1.3939,-1.4005,-1.4024,-1.3592,-1.2859,-1.3163,-1.3203,-1.3171,-1.3727,-1.4046,-1.4218,-1.4488,-1.5066,-1.5812,-1.5833,-1.617,-1.6684,-1.6843,-1.6866,-1.6743,-1.6415,-1.6194,-1.6268,-1.6402,-1.6558,-1.664,-1.7049,-1.7375,-1.7674,-1.78,-1.7631,-1.7403,-1.7133,-1.6396,-1.5468,-1.5488,-1.585,-1.6342,-1.6751,-1.7364,-1.825,-1.8805,-1.9028,-1.8865,-1.8598,-1.8404,-1.8383,-1.8202,-1.7994,-1.7728,-1.7991,-1.7956,-1.7437,-1.7516,-1.7233,-1.6943,-1.7042,-1.7264,-1.6769,-1.6286,-1.5808,-1.5137,-1.5294,-1.542,-1.501,-1.5556,-1.571,-1.5633,-1.5921,-1.6477,-1.7051,-1.711,-1.7289,-1.7612,-1.769,-1.7711,-1.7822,-1.7975,-1.8127,-1.8302,-1.8375,-1.8555,-1.8667,-1.8366,-1.816,-1.8466,-1.8464,-1.8302,-1.8205,-1.8139,-1.8139,-1.8127,-1.8182,-1.8182,-1.8027,-1.7718,-1.7452,-1.7207,-1.6977,-1.673,-1.6699,-1.6616,-1.6539,-1.6536,-1.669,-1.6369,-1.6335,-1.6365,-1.5555,-1.5228,-1.53,-1.4769,-1.4685,-1.4943,-1.5097,-1.529,-1.5319,-1.5261,-1.5176,-1.5014,-1.4256,-1.4164,-1.4747,-1.4282,-1.4654,-1.5418,-1.5575,-1.5825,-1.6394,-1.7122,-1.7575,-1.7575,-1.7596,-1.7428,-1.7136,-1.6877,-1.6622,-1.6402,-1.664,-1.6894,-1.7139,-1.7538,-1.7934,-1.8336,-1.8683,-1.8852,-1.8974,-1.9033,-1.8138,-1.6112,-1.5964,-1.6377,-1.6945,-1.748,-1.8337,-1.9389,-1.9896,-2.0027,-1.9557,-1.9253,-1.9253,-1.9441,-1.9058,-1.8731,-1.8655,-1.8736,-1.8465,-1.8071,-1.78,-1.7775,-1.7807,-1.7372,-1.7002,-1.703,-1.6787,-1.6236,-1.5788,-1.5836,-1.6066,-1.6192,-1.6316,-1.64,-1.6358,-1.656,-1.7164,-1.7712,-1.759,-1.7445,-1.7734,-1.7822,-1.7909,-1.8084,-1.8259,-1.8464,-1.8625,-1.8655,-1.8709,-1.8815,-1.8869,-1.8815,-1.8786,-1.8679,-1.8518,-1.841,-1.8302,-1.8236,-1.829,-1.8247,-1.8247,-1.805,-1.7795,-1.7739,-1.7483,-1.7339,-1.7156,-1.7016,-1.6866,-1.6726,-1.6951,-1.7257,-1.6726,-1.6873,-1.7412,-1.6415,-1.6392,-1.7056,-1.6599,-1.6392,-1.6523,-1.6908,-1.6947,-1.6792,-1.6939,-1.7083,-1.7265,-1.6718,-1.5999,-1.5376,-1.5993,-1.6206,-1.6278,-1.6558,-1.6868,-1.7234,-1.7902,-1.831,-1.8438,-1.834,-1.8225,-1.7874,-1.7693,-1.7322,-1.6926,-1.7212,-1.7538,-1.7789,-1.8273,-1.8825,-1.9177,-1.9338,-1.9516,-1.9657,-1.9629,-1.9102,-1.851,-1.8081,-1.8008,-1.8428,-1.8913,-1.9472,-1.9991,-2.0232,-2.0094,-1.969,-1.9539,-1.9483,-1.9539,-1.9407,-1.9208,-1.9013,-1.873,-1.8522,-1.8275,-1.794,-1.789,-1.8292,-1.791,-1.7585,-1.7736,-1.774,-1.7049,-1.5673,-1.5961,-1.629,-1.6222,-1.6498,-1.6662,-1.6722,-1.6944,-1.7345,-1.7668,-1.7623,-1.7656,-1.781,-1.7909,-1.8018,-1.8259,-1.8476,-1.8572,-1.8732,-1.8762,-1.8804,-1.8869,-1.8934,-1.8934,-1.8893,-1.8786,-1.8691,-1.8572,-1.8464,-1.8398,-1.8398,-1.8356,-1.829,-1.8093,-1.8004,-1.8001,-1.7872,-1.773,-1.7544,-1.729,-1.7175,-1.7123,-1.7756,-1.8151,-1.7619,-1.7715,-1.8305,-1.76,-1.7782,-1.8415,-1.814,-1.8118,-1.8253,-1.8452,-1.8432,-1.8263,-1.844,-1.8666,-1.8856,-1.8668,-1.7974,-1.6916,-1.7184,-1.755,-1.7357,-1.7548,-1.7974,-1.8297,-1.874,-1.8936,-1.9104,-1.9076,-1.8872,-1.8688,-1.8316,-1.8129,-1.7845,-1.8002,-1.8184,-1.8514,-1.9143,-1.9696,-2.0032,-2.0216,-2.046,-2.0712,-2.0714,-2.0728,-2.074,-2.0268,-1.9809,-1.9727,-2.0081,-2.046,-2.0586,-2.073,-2.05,-2.0018,-1.9802,-1.9747,-1.9747,-1.9681,-1.9473,-1.9145,-1.8871,-1.8633,-1.8532,-1.8151,-1.8318,-1.8395,-1.823,-1.8102,-1.8404,-1.8249,-1.7584,-1.6636,-1.6773,-1.6846,-1.6653,-1.6937,-1.7038,-1.7032,-1.7146,-1.7545,-1.7789,-1.7888,-1.792,-1.8018,-1.8127,-1.8224,-1.8464,-1.8625,-1.8732,-1.8839,-1.8881,-1.8934,-1.8987,-1.904,-1.904,-1.8999,-1.8893,-1.8798,-1.8691,-1.8572,-1.8494,-1.856,-1.8518,-1.8625,-1.8494,-1.8536,-1.8501,-1.8367,-1.832,-1.8326,-1.8194,-1.7787,-1.7647,-1.9096,-1.9231,-1.897,-1.8993,-1.9187,-1.9022,-1.9247,-1.9685,-1.9444,-1.9521,-1.9795,-1.9729,-1.9696,-1.9747,-1.954,-1.9703,-1.9988,-1.9838,-1.9766,-1.9331,-1.8888,-1.8563,-1.8694,-1.8702,-1.8946,-1.9405,-1.9479,-1.9587,-1.9579,-1.9629,-1.957,-1.9323,-1.8995,-1.8727,-1.8837,-1.8797,-1.8949,-1.9231,-1.9894,-2.0411,-2.0837,-2.111,-2.1552,-2.1941,-2.2104,-2.2211,-2.2413,-2.208,-2.1405,-2.0452,-2.1093,-2.1424,-2.1268,-2.1501,-2.1191,-2.0511,-2.0172,-2.0009,-2.0009,-1.9878,-1.9605,-1.9407,-1.9312,-1.9131,-1.8757,-1.8767,-1.8781,-1.8613,-1.8455,-1.8498,-1.8817,-1.8617,-1.8175,-1.8233,-1.7888,-1.7666,-1.7547,-1.7662,-1.7516,-1.7134,-1.7368,-1.7833,-1.8075,-1.8173,-1.8259,-1.8367,-1.8464,-1.8572,-1.8732,-1.8786,-1.8851,-1.8946,-1.9052,-1.9105,-1.9146,-1.9291,-1.9344,-1.9396,-1.9303,-1.9198,-1.9105,-1.8987,-1.891,-1.8922,-1.8917,-1.897,-1.9047,-1.9059,-1.9172,-1.9215,-1.9202,-1.9253,-1.9044,-1.8645,-1.8192,-2.0782,-2.1025,-2.0466,-2.0642,-2.1049,-2.0463,-2.0765,-2.1466,-2.1053,-2.0857,-2.0843,-2.095,-2.0677,-2.0351,-2.0254,-2.0545,-2.098,-2.0783,-2.1056,-2.1523,-2.1246,-2.0366,-1.9678,-1.943,-1.9472,-1.9671,-1.9671,-1.9671,-1.9845,-2.0002,-2.0005,-1.9735,-1.9861,-1.9582,-1.9191,-1.9553,-1.9657,-1.9599,-2.0148,-2.0655,-2.1044,-2.0997,-2.1366,-2.2253,-2.2242,-2.2475,-2.3095,-2.3176,-2.2743,-2.1811,-2.2049,-2.2254,-2.2114,-2.2018,-2.1618,-2.103,-2.0642,-2.0335,-2.0151,-2.014,-2.0074,-1.977,-1.9544,-1.9383,-1.9309,-1.908,-1.9091,-1.9128,-1.9052,-1.9,-1.9293,-1.9177,-1.9009,-1.8951,-1.8423,-1.7841,-1.7535,-1.7487,-1.7567,-1.7534,-1.7776,-1.8096,-1.8348,-1.8433,-1.8506,-1.8625,-1.8732,-1.8774,-1.904,-1.9105,-1.9146,-1.9158,-1.9263,-1.9263,-1.9356,-1.9552,-1.9695,-1.9786,-1.985,-1.9862,-1.9759,-1.9708,-1.9695,-1.9695,-1.9676,-1.9726,-1.9707,-1.9703,-1.9842,-2.0147,-2.0281,-2.0378,-1.9876,-1.9366,-1.8888,-2.1845,-2.1933,-2.1604,-2.1729,-2.2064,-2.172,-2.1796,-2.21,-2.2187,-2.1776,-2.1506,-2.1646,-2.1612,-2.1313,-2.104,-2.1484,-2.2189,-2.1748,-2.1942,-2.2541,-2.2403,-2.1784,-2.0997,-2.0572,-2.0408,-2.0309,-2.0209,-2.0283,-2.0339,-2.0407,-2.0456,-2.0704,-2.0611,-2.0377,-2.0375,-2.0344,-2.0339,-2.0159,-2.0567,-2.1046,-2.1285,-2.1502,-2.1818,-2.2446,-2.2496,-2.2897,-2.3497,-2.3593,-2.3301,-2.2944,-2.2939,-2.2844,-2.2492,-2.2224,-2.18,-2.1162,-2.0803,-2.0604,-2.041,-2.0475,-2.0399,-2.0107,-1.9834,-1.9738,-1.976,-1.9523,-1.949,-1.9564,-1.9507,-1.9615,-1.99,-1.9823,-1.9717,-1.9482,-1.8863,-1.8214,-1.7844,-1.7935,-1.7868,-1.7822,-1.7938,-1.8267,-1.8684,-1.8697,-1.8768,-1.8951,-1.9133,-1.9344,-1.9552,-1.95,-1.9552,-1.9708,-1.9874,-2.0054,-2.0271,-2.045,-2.0797,-2.0873,-2.0983,-2.0893,-2.0602,-2.0488,-2.0296,-2.0284,-2.0374,-2.0501,-2.0589,-2.0805,-2.1164,-2.1402,-2.1487,-2.1346,-2.0897,-2.0346,-1.9852,-2.258,-2.257,-2.257,-2.258,-2.2668,-2.2853,-2.264,-2.2342,-2.2862,-2.265,-2.213,-2.228,-2.2403,-2.2441,-2.191,-2.2268,-2.3125,-2.2553,-2.2795,-2.3028,-2.3057,-2.2706,-2.2334,-2.1633,-2.1472,-2.1374,-2.1266,-2.1168,-2.1114,-2.0846,-2.1244,-2.166,-2.1284,-2.1278,-2.1578,-2.1481,-2.1061,-2.0974,-2.1288,-2.1586,-2.1754,-2.2168,-2.2466,-2.2702,-2.3128,-2.3452,-2.3728,-2.3824,-2.3644,-2.374,-2.3677,-2.3311,-2.2637,-2.2432,-2.2004,-2.1404,-2.1113,-2.0879,-2.0736,-2.0747,-2.0604,-2.0388,-2.0237,-2.0172,-2.0161,-1.9987,-1.9987,-1.9987,-1.989,-2.0009,-2.0314,-2.0357,-2.0167,-1.9798,-1.9432,-1.9056,-1.8678,-1.8544,-1.8318,-1.7952,-1.8097,-1.8442,-1.8821,-1.8919,-1.8879,-1.971,-1.9799,-2.0029,-2.0245,-2.0245,-2.0396,-2.061,-2.0801,-2.0983,-2.1239,-2.1496,-2.1861,-2.2133,-2.2358,-2.2275,-2.1672,-2.1392,-2.0943,-2.0843,-2.1257,-2.1548,-2.1773,-2.2062,-2.2444,-2.2554,-2.2601,-2.2382,-2.2076,-2.1583,-2.1054,-2.41,-2.4003,-2.3831,-2.3927,-2.4003,-2.3937,-2.3877,-2.3851,-2.3877,-2.3587,-2.3374,-2.328,-2.3144,-2.294,-2.2592,-2.2793,-2.3501,-2.313,-2.3222,-2.3937,-2.3947,-2.3851,-2.3484,-2.2775,-2.2236,-2.2148,-2.2138,-2.2031,-2.2073,-2.2077,-2.2337,-2.2503,-2.263,-2.2666,-2.2443,-2.2828,-2.29,-2.2429,-2.2255,-2.2348,-2.2488,-2.255,-2.2706,-2.2957,-2.3446,-2.3897,-2.4055,-2.4116,-2.42,-2.4345,-2.4093,-2.3727,-2.3564,-2.3267,-2.2821,-2.2423,-2.1921,-2.1481,-2.1282,-2.0978,-2.0786,-2.0669,-2.0646,-2.0711,-2.0593,-2.0442,-2.0453,-2.0442,-2.0237,-2.0259,-2.0422,-2.0551,-2.0508,-2.0262,-2.0064,-1.9872,-1.9297,-1.8585,-1.8398,-1.8679,-1.8689,-1.8855,-1.98,-1.9636,-1.9799,-2.039,-2.072,-2.0832,-2.101,-2.1251,-2.1493,-2.1825,-2.1901,-2.2183,-2.2652,-2.287,-2.3075,-2.3258,-2.3475,-2.376,-2.3098,-2.2525,-2.2185,-2.2177,-2.2355,-2.2569,-2.269,-2.3191,-2.3541,-2.3617,-2.3576,-2.3256,-2.2883,-2.2524,-2.2018,-2.455,-2.4454,-2.4378,-2.4378,-2.4454,-2.4368,-2.4159,-2.4026,-2.4211,-2.3892,-2.3428,-2.3461,-2.358,-2.3387,-2.2997,-2.3295,-2.3912,-2.3866,-2.3951,-2.4423,-2.4529,-2.454,-2.4529,-2.3993,-2.3541,-2.3028,-2.2775,-2.2688,-2.2505,-2.2514,-2.2588,-2.3061,-2.3273,-2.3324,-2.3337,-2.3722,-2.3437,-2.3129,-2.3107,-2.308,-2.3048,-2.324,-2.3227,-2.3434,-2.3751,-2.4055,-2.4418,-2.4273,-2.4478,-2.4694,-2.4406,-2.399,-2.3916,-2.358,-2.3189,-2.2605,-2.2239,-2.1712,-2.1354,-2.1138,-2.1031,-2.0926,-2.0903,-2.0903,-2.0914,-2.0839,-2.0839,-2.085,-2.0775,-2.0711,-2.0786,-2.0903,-2.0911,-2.1051,-2.0956,-2.0902,-2.0706,-1.9658,-1.8941,-1.9433,-1.9343,-2.0003,-2.0429,-2.0633,-2.1722,-2.2679,-2.321,-2.3273,-2.2972,-2.3154,-2.3196,-2.335,-2.3265,-2.3512,-2.407,-2.4298,-2.4347,-2.4402,-2.4423,-2.4713,-2.4641,-2.4072,-2.3478,-2.3413,-2.3272,-2.3303,-2.3458,-2.401,-2.4436,-2.4475,-2.43,-2.3997,-2.3664,-2.328,-2.2736,-2.4625,-2.454,-2.4625,-2.4625,-2.4625,-2.4625,-2.4248,-2.3811,-2.4268,-2.4088,-2.3208,-2.369,-2.4003,-2.3917,-2.356,-2.3841,-2.4358,-2.4529,-2.4594,-2.4861,-2.4861,-2.4861,-2.4861,-2.4861,-2.4594,-2.3754,-2.3657,-2.3381,-2.3063,-2.2552,-2.3109,-2.3524,-2.3515,-2.3834,-2.4257,-2.4384,-2.4261,-2.3982,-2.4081,-2.3952,-2.3611,-2.4002,-2.4145,-2.3965,-2.397,-2.4273,-2.4574,-2.449,-2.4539,-2.5241,-2.4683,-2.4234,-2.3956,-2.3641,-2.3259,-2.2453,-2.2361,-2.2062,-2.174,-2.1417,-2.1169,-2.1169,-2.1031,-2.1042,-2.1106,-2.1031,-2.1031,-2.1158,-2.1221,-2.1233,-2.136,-2.1526,-2.1753,-2.1956,-2.203,-2.2289,-2.2331,-2.1385,-2.0945,-2.0335,-2.0644,-2.1237,-2.1794,-2.2183,-2.366,-2.4922,-2.5335,-2.5486,-2.5063,-2.4785,-2.4626,-2.4481,-2.4303,-2.4568,-2.5174,-2.5668,-2.5716,-2.5668,-2.553,-2.5678,-2.5933,-2.5604,-2.4974,-2.4226,-2.4049,-2.4123,-2.4381,-2.4889,-2.5188,-2.5259,-2.498,-2.4563,-2.4262,-2.4079,-2.3444,-2.4956,-2.4871,-2.5031,-2.5115,-2.5031,-2.5115,-2.4978,-2.4935,-2.4988,-2.4988,-2.4745,-2.4734,-2.4659,-2.4594,-2.4433,-2.4519,-2.4702,-2.4829,-2.4946,-2.5115,-2.52,-2.5115,-2.52,-2.5295,-2.5115,-2.5031,-2.4765,-2.4692,-2.4503,-2.4336,-2.396,-2.4302,-2.4534,-2.4811,-2.5077,-2.5486,-2.5776,-2.544,-2.5392,-2.5161,-2.4836,-2.4585,-2.4545,-2.4258,-2.4334,-2.4562,-2.4718,-2.4646,-2.4766,-2.5394,-2.5099,-2.4969,-2.4791,-2.4518,-2.4236,-2.3875,-2.3257,-2.2724,-2.2503,-2.1747,-2.1337,-2.1169,-2.1215,-2.1227,-2.129,-2.1244,-2.1343,-2.14,-2.1549,-2.171,-2.2008,-2.2223,-2.2543,-2.2845,-2.3208,-2.3532,-2.3754,-2.3635,-2.3182,-2.2572,-2.2504,-2.24,-2.293,-2.3424,-2.4329,-2.5595,-2.6527,-2.6417,-2.5949,-2.5671,-2.5461,-2.5342,-2.5177,-2.5627,-2.6232,-2.6783,-2.7086,-2.6981,-2.6832,-2.6698,-2.6876,-2.6937,-2.6498,-2.5618,-2.5164,-2.5197,-2.5502,-2.5721,-2.5774,-2.5755,-2.5425,-2.5135,-2.4732,-2.4393,-2.3997,-2.5041,-2.502,-2.52,-2.52,-2.52,-2.52,-2.5285,-2.5369,-2.5285,-2.5285,-2.521,-2.4893,-2.483,-2.4851,-2.4388,-2.4366,-2.4703,-2.4957,-2.5179,-2.5369,-2.538,-2.5464,-2.5549,-2.5549,-2.5538,-2.5538,-2.5633,-2.5398,-2.489,-2.4442,-2.4594,-2.4832,-2.5117,-2.5355,-2.588,-2.6476,-2.6775,-2.6696,-2.6597,-2.6256,-2.5791,-2.5272,-2.4842,-2.4751,-2.4683,-2.4909,-2.5123,-2.5052,-2.5194,-2.5535,-2.5229,-2.5229,-2.5241,-2.5087,-2.472,-2.4355,-2.3815,-2.3393,-2.3136,-2.2325,-2.2057,-2.2243,-2.2045,-2.2057,-2.2127,-2.208,-2.1794,-2.1686,-2.1963,-2.2247,-2.2751,-2.3005,-2.3374,-2.3995,-2.4486,-2.4984,-2.541,-2.5683,-2.5433,-2.4949,-2.4596,-2.429,-2.3998,-2.4476,-2.4986,-2.6107,-2.7473,-2.7394,-2.6801,-2.666,-2.6489,-2.6374,-2.6281,-2.6542,-2.6969,-2.73,-2.7695,-2.7745,-2.7725,-2.7539,-2.7488,-2.7393,-2.7268,-2.679,-2.6542,-2.6229,-2.6017,-2.6061,-2.6174,-2.6293,-2.5997,-2.5671,-2.5163,-2.475,-2.4428,-2.5285,-2.5432,-2.543,-2.5471,-2.546,-2.5435,-2.5546,-2.565,-2.5452,-2.5441,-2.5441,-2.4995,-2.4873,-2.4984,-2.4634,-2.437,-2.4783,-2.5167,-2.5454,-2.5728,-2.5728,-2.5812,-2.5979,-2.5979,-2.5979,-2.6063,-2.6052,-2.5771,-2.5168,-2.4875,-2.4982,-2.5403,-2.5475,-2.595,-2.6852,-2.7325,-2.7395,-2.736,-2.7499,-2.722,-2.6511,-2.5861,-2.5333,-2.5195,-2.523,-2.5456,-2.5489,-2.5622,-2.5773,-2.5865,-2.5606,-2.537,-2.5594,-2.5394,-2.4908,-2.4342,-2.4119,-2.3812,-2.3482,-2.2999,-2.2768,-2.3015,-2.2697,-2.2756,-2.2798,-2.2468,-2.2254,-2.2011,-2.2237,-2.2898,-2.3599,-2.3793,-2.431,-2.5022,-2.5741,-2.6395,-2.6886,-2.7293,-2.7703,-2.7226,-2.6642,-2.6184,-2.5845,-2.6044,-2.6641,-2.6688,-2.7984,-2.8232,-2.773,-2.7722,-2.761,-2.7504,-2.7485,-2.7519,-2.7659,-2.7564,-2.7845,-2.7834,-2.7795,-2.769,-2.7675,-2.766,-2.7585,-2.751,-2.7345,-2.7036,-2.6698,-2.6505,-2.6667,-2.6753,-2.6587,-2.624,-2.5725,-2.5452,-2.5204,-2.6124,-2.6318,-2.63,-2.628,-2.6257,-2.6152,-2.6209,-2.631,-2.6092,-2.5865,-2.6027,-2.5307,-2.5203,-2.5293,-2.5391,-2.5333,-2.5441,-2.5579,-2.5812,-2.6063,-2.6063,-2.6229,-2.6479,-2.624,-2.6396,-2.6479,-2.6313,-2.6135,-2.5964,-2.5901,-2.6143,-2.6427,-2.6551,-2.6925,-2.7498,-2.808,-2.7995,-2.7765,-2.8235,-2.8108,-2.7239,-2.6699,-2.625,-2.6017,-2.6162,-2.6355,-2.6122,-2.6365,-2.6685,-2.654,-2.6074,-2.5968,-2.6151,-2.5804,-2.5441,-2.5025,-2.4622,-2.4232,-2.4101,-2.3641,-2.3361,-2.3443,-2.3029,-2.268,-2.2847,-2.2755,-2.2486,-2.2234,-2.2604,-2.3466,-2.44,-2.4744,-2.5203,-2.5903,-2.6701,-2.7333,-2.7936,-2.8341,-2.8835,-2.9074,-2.837,-2.8025,-2.7763,-2.7981,-2.8223,-2.8231,-2.8264,-2.8497,-2.8525,-2.8396,-2.8348,-2.8171,-2.8008,-2.8057,-2.8152,-2.8103,-2.8122,-2.8079,-2.7978,-2.789,-2.7974,-2.8057,-2.8076,-2.7984,-2.7896,-2.7865,-2.7643,-2.7493,-2.7425,-2.7282,-2.7108,-2.6736,-2.6233,-2.6045,-2.5921,-2.6978,-2.6794,-2.6971,-2.7211,-2.7378,-2.7392,-2.7532,-2.7687,-2.7598,-2.7442,-2.7167,-2.6459,-2.5866,-2.5608,-2.5984,-2.6183,-2.6028,-2.6273,-2.6313,-2.6396,-2.6479,-2.6633,-2.6798,-2.6727,-2.6715,-2.6869,-2.6869,-2.6869,-2.6803,-2.6634,-2.6713,-2.7331,-2.7549,-2.7861,-2.8419,-2.8971,-2.8991,-2.8937,-2.8966,-2.8713,-2.8161,-2.7829,-2.7605,-2.7381,-2.7654,-2.7603,-2.7469,-2.7804,-2.7799,-2.7392,-2.6847,-2.6706,-2.6549,-2.5978,-2.5467,-2.5721,-2.5193,-2.4859,-2.4764,-2.4265,-2.4261,-2.4378,-2.4102,-2.3996,-2.4025,-2.3793,-2.3156,-2.2555,-2.3271,-2.4249,-2.5179,-2.5522,-2.6136,-2.6849,-2.761,-2.8301,-2.8858,-2.9227,-2.9629,-2.9908,-3.0048,-2.9485,-2.9006,-2.8902,-2.8885,-2.8758,-2.8684,-2.8764,-2.8716,-2.851,-2.8558,-2.859,-2.8431,-2.8319,-2.8444,-2.8523,-2.8587,-2.8525,-2.8301,-2.8284,-2.835,-2.8431,-2.8463,-2.8606,-2.8639,-2.856,-2.8479,-2.8396,-2.8266,-2.7989,-2.7695,-2.7299,-2.6928,-2.6756,-2.6688,-2.8029,-2.7734,-2.7952,-2.8183,-2.8458,-2.857,-2.8781,-2.8971,-2.8808,-2.8593,-2.8255,-2.7492,-2.6683,-2.6368,-2.7025,-2.7375,-2.6931,-2.7198,-2.708,-2.7033,-2.7044,-2.7196,-2.729,-2.7208,-2.7196,-2.7418,-2.7336,-2.751,-2.7579,-2.7552,-2.7652,-2.8255,-2.8414,-2.8892,-2.9449,-2.9793,-2.9871,-2.996,-2.9716,-2.9479,-2.9113,-2.9074,-2.8941,-2.8975,-2.9054,-2.9021,-2.8787,-2.9132,-2.8828,-2.7934,-2.7632,-2.7477,-2.7276,-2.6739,-2.6406,-2.6505,-2.602,-2.5671,-2.5443,-2.5177,-2.5163,-2.529,-2.5257,-2.4853,-2.4855,-2.4908,-2.4558,-2.3341,-2.3995,-2.4959,-2.5869,-2.6304,-2.6759,-2.7575,-2.8504,-2.9186,-2.9865,-3.0389,-3.0609,-3.0625,-3.0672,-3.029,-2.9891,-2.9626,-2.9444,-2.9271,-2.9213,-2.9154,-2.9187,-2.9187,-2.9454,-2.9738,-2.9406,-2.9374,-2.9596,-2.9548,-2.9407,-2.9014,-2.8778,-2.8716,-2.8826,-2.8873,-2.8967,-2.9106,-2.9261,-2.9167,-2.8967,-2.9061,-2.9092,-2.8601,-2.8149,-2.7996,-2.7724,-2.7586,-2.7527,-2.9523,-2.9584,-2.9397,-2.9361,-2.9412,-2.9261,-2.9418,-2.968,-2.9269,-2.8879,-2.8543,-2.8075,-2.8175,-2.8337,-2.8568,-2.8704,-2.8488,-2.8323,-2.8187,-2.8051,-2.7971,-2.7995,-2.8007,-2.7834,-2.7753,-2.7995,-2.8063,-2.8155,-2.8371,-2.8464,-2.8959,-2.9524,-2.9412,-2.9884,-3.0266,-3.052,-3.0594,-3.0644,-3.0366,-3.017,-3.0043,-3.0079,-2.9954,-2.9776,-2.9908,-2.9797,-2.8852,-2.9567,-2.9424,-2.8363,-2.8408,-2.8344,-2.8158,-2.7809,-2.7613,-2.7431,-2.6978,-2.6551,-2.6331,-2.5822,-2.5652,-2.5726,-2.5611,-2.5315,-2.529,-2.5034,-2.4676,-2.4661,-2.5202,-2.58,-2.6637,-2.7112,-2.7393,-2.8335,-2.9327,-3.0284,-3.0981,-3.1736,-3.1863,-3.1613,-3.1281,-3.0915,-3.0824,-3.0547,-2.9908,-2.9694,-3.0116,-3.0122,-3.0617,-3.0717,-3.1053,-3.1166,-3.0752,-3.0752,-3.1165,-3.0988,-3.0368,-2.9811,-2.9386,-2.9307,-2.9335,-2.938,-2.9335,-2.9649,-2.982,-2.9675,-2.9726,-3.0256,-3.0275,-2.9217,-2.8632,-2.847,-2.8839,-2.9097,-2.887,-2.9274,-2.966,-2.9932,-3.0355,-3.0816,-3.0838,-3.0962,-3.1092,-3.1052,-3.0659,-3.0041,-2.994,-2.9691,-2.9658,-2.9712,-2.9757,-2.9539,-2.9434,-2.9291,-2.9147,-2.9081,-2.9003,-2.9003,-2.8937,-2.8991,-2.887,-2.8858,-2.8924,-2.9015,-2.9043,-2.9617,-3.0012,-3.019,-3.0659,-3.0986,-3.1031,-3.1035,-3.0784,-3.0605,-3.0441,-3.0143,-3.0459,-3.0498,-3.0535,-3.1015,-3.0897,-3.0398,-3.0884,-3.0329,-2.9647,-2.9535,-2.9308,-2.9039,-2.8723,-2.8596,-2.8366,-2.7871,-2.7523,-2.7218,-2.6511,-2.598,-2.6271,-2.6152,-2.5972,-2.6,-2.5853,-2.6321,-2.6442,-2.6302,-2.6608,-2.7852,-2.7935,-2.8084,-2.9168,-3.0211,-3.1245,-3.206,-3.2746,-3.2719,-3.2264,-3.1865,-3.1456,-3.1474,-3.1466,-3.0731,-3.0168,-3.0691,-3.1185,-3.172,-3.2145,-3.2409,-3.2508,-3.2093,-3.167,-3.1952,-3.1616,-3.1232,-3.059,-3.0012,-2.9883,-2.9802,-2.9677,-2.9726,-3.0089,-3.0461,-3.0513,-3.0884,-3.172,-3.1292,-2.9864,-2.925,-2.9014,-2.9547,-3.0352,-3.0418,-2.9313,-2.988,-3.0254,-3.0999,-3.1756,-3.1834,-3.2019,-3.2259,-3.2376,-3.2212,-3.1703,-3.1355,-3.1141,-3.0935,-3.0943,-3.091,-3.0781,-3.0607,-3.0393,-3.0241,-3.0088,-3.0012,-3.0062,-3.0061,-3.0007,-2.9727,-2.9716,-2.9858,-2.9781,-2.9239,-2.9651,-3.0255,-3.0568,-3.0784,-3.0956,-3.1129,-3.0863,-3.0601,-3.0455,-3.0418,-3.0084,-3.0667,-3.0989,-3.1114,-3.1645,-3.1623,-3.1288,-3.1436,-3.1023,-3.0414,-3.021,-3.0309,-2.9928,-2.9653,-2.9587,-2.9267,-2.8877,-2.8446,-2.8011,-2.7339,-2.6683,-2.6989,-2.709,-2.7221,-2.726,-2.6958,-2.7279,-2.791,-2.7377,-2.7334,-2.8636,-2.8455,-2.8879,-2.9895,-3.1355,-3.2384,-3.297,-3.3606,-3.324,-3.29,-3.2617,-3.2474,-3.2336,-3.242,-3.2227,-3.1739,-3.2197,-3.2636,-3.2945,-3.3342,-3.364,-3.366,-3.3502,-3.2987,-3.2547,-3.2463,-3.2216,-3.1325,-3.0746,-3.0381,-3.0266,-3.0131,-3.025,-3.0624,-3.1014,-3.1342,-3.1762,-3.2183,-3.1429,-3.0252,-2.9733,-2.9354,-3.0437,-3.1234,-3.1907,-2.9883,-3.0295,-3.0446,-3.1253,-3.2113,-3.1815,-3.2011,-3.2496,-3.2607,-3.2552,-3.2358,-3.1943,-3.204,-3.2242,-3.2099,-3.2033,-3.1882,-3.1909,-3.1616,-3.1097,-3.129,-3.0924,-3.0879,-3.0933,-3.1228,-3.0547,-3.0661,-3.0788,-3.0583,-2.9839,-2.9902,-3.0204,-3.0405,-3.0428,-3.0421,-3.0113,-2.9974,-3.0142,-3.021,-3.0131,-3.0363,-3.0964,-3.1223,-3.1344,-3.1946,-3.2055,-3.1776,-3.1776,-3.1289,-3.0572,-3.1063,-3.1122,-3.0708,-3.1122,-3.1209,-3.107,-2.9928,-2.9269,-2.8879,-2.8179,-2.7947,-2.7762,-2.7838,-2.8066,-2.8266,-2.8168,-2.7969,-2.8425,-2.7979,-2.772,-2.8283,-2.8947,-2.9845,-3.0847,-3.2301,-3.3307,-3.3881,-3.4205,-3.3951,-3.3495,-3.3617,-3.3717,-3.351,-3.3388,-3.3474,-3.3524,-3.388,-3.4081,-3.413,-3.4308,-3.4559,-3.4564,-3.4405,-3.4018,-3.3595,-3.3573,-3.3184,-3.2247,-3.1622,-3.1388,-3.1061,-3.0952,-3.1079,-3.1363,-3.1597,-3.1941,-3.2187,-3.2495,-3.1954,-3.1445,-3.0174,-2.9887,-3.1071,-3.2244,-3.3141,-2.9348,-2.986,-2.9676,-3.0411,-3.1502,-3.1405,-3.1582,-3.1928,-3.2249,-3.218,-3.193,-3.2319,-3.2514,-3.2514,-3.2624,-3.2621,-3.2519,-3.2503,-3.22,-3.2009,-3.2426,-3.2414,-3.2275,-3.2385,-3.2532,-3.1972,-3.1813,-3.1523,-3.1048,-3.0336,-3.0262,-3.053,-3.0492,-3.0744,-3.114,-3.1072,-3.1114,-3.0993,-3.0515,-2.9915,-3.0078,-3.0719,-3.1172,-3.1034,-3.2022,-3.2331,-3.1982,-3.1982,-3.1688,-3.1136,-3.1796,-3.1771,-3.1517,-3.1942,-3.2082,-3.1874,-3.098,-3.0699,-3.0127,-2.9564,-2.919,-2.8733,-2.8416,-2.8602,-2.8661,-2.828,-2.8396,-2.8759,-2.8889,-2.8979,-2.9541,-3.0474,-3.1326,-3.208,-3.3206,-3.3991,-3.4522,-3.4755,-3.4655,-3.4051,-3.3901,-3.3862,-3.3657,-3.4192,-3.4414,-3.4041,-3.4168,-3.4651,-3.4829,-3.4975,-3.5182,-3.5215,-3.5086,-3.4813,-3.4606,-3.4376,-3.3933,-3.3043,-3.2706,-3.2689,-3.2369,-3.1865,-3.2243,-3.2652,-3.2557,-3.2512,-3.3115,-3.3594,-3.3403,-3.2756,-3.165,-3.1141,-3.2105,-3.3533,-3.4913,-2.9012,-2.9559,-2.9342,-2.9734,-3.0615,-3.0787,-3.1142,-3.1527,-3.1893,-3.1755,-3.1576,-3.2274,-3.24,-3.2136,-3.2235,-3.2375,-3.225,-3.2471,-3.2386,-3.2341,-3.3007,-3.2928,-3.3069,-3.3533,-3.3152,-3.2751,-3.2509,-3.2314,-3.2072,-3.1137,-3.0751,-3.0756,-3.0785,-3.1226,-3.1543,-3.1544,-3.1268,-3.1116,-3.0594,-3.0239,-3.0524,-3.0908,-3.1281,-3.1433,-3.1969,-3.2489,-3.2345,-3.2273,-3.2273,-3.2128,-3.2132,-3.2311,-3.216,-3.2231,-3.2483,-3.2288,-3.1885,-3.1512,-3.0937,-3.038,-2.9984,-2.977,-2.9198,-2.9134,-2.9385,-2.9261,-2.9283,-2.961,-2.994,-3.0149,-3.0541,-3.15,-3.2434,-3.3193,-3.3807,-3.4532,-3.4792,-3.5038,-3.5021,-3.4451,-3.4308,-3.4179,-3.415,-3.4822,-3.5385,-3.4831,-3.433,-3.483,-3.5277,-3.5374,-3.5464,-3.5498,-3.5481,-3.525,-3.5074,-3.4972,-3.4465,-3.3792,-3.3701,-3.3778,-3.3212,-3.2689,-3.3322,-3.3818,-3.3511,-3.3544,-3.4437,-3.4779,-3.4631,-3.4272,-3.3462,-3.3261,-3.3442,-3.4818,-3.6577,-2.9035,-2.9366,-2.9429,-2.9547,-2.9722,-3.0261,-3.0765,-3.1387,-3.1443,-3.1415,-3.1387,-3.1457,-3.1583,-3.1513,-3.1541,-3.1562,-3.1676,-3.2164,-3.2236,-3.2319,-3.3014,-3.2941,-3.3032,-3.323,-3.3362,-3.3184,-3.291,-3.27,-3.3006,-3.1717,-3.1035,-3.113,-3.1406,-3.1765,-3.1861,-3.1873,-3.1542,-3.146,-3.1045,-3.0839,-3.1072,-3.1596,-3.175,-3.1889,-3.2317,-3.2648,-3.2574,-3.2503,-3.2417,-3.2345,-3.2475,-3.2547,-3.2533,-3.2618,-3.2832,-3.2764,-3.2249,-3.1902,-3.1534,-3.1078,-3.0899,-3.082,-3.0733,-3.0684,-3.044,-3.0249,-3.0268,-3.0448,-3.0823,-3.083,-3.1068,-3.2141,-3.3145,-3.3777,-3.4329,-3.4717,-3.4927,-3.5041,-3.5088,-3.4998,-3.5103,-3.5144,-3.5213,-3.5718,-3.571,-3.4925,-3.4389,-3.4449,-3.4882,-3.5297,-3.5372,-3.5545,-3.5528,-3.5521,-3.5462,-3.5505,-3.5292,-3.4709,-3.4711,-3.4687,-3.405,-3.3702,-3.4129,-3.4427,-3.4225,-3.4477,-3.5069,-3.5613,-3.5907,-3.5492,-3.5211,-3.4978,-3.504,-3.6653,-3.8132,-2.9226,-2.9582,-3.0003,-3.0185,-3.0291,-3.0381,-3.0339,-3.0093,-3.0521,-3.0535,-3.0065,-3.1106,-3.1176,-3.0867,-3.1274,-3.1615,-3.1979,-3.2288,-3.2555,-3.2835,-3.3268,-3.3445,-3.3467,-3.3477,-3.3629,-3.3363,-3.3059,-3.2811,-3.2729,-3.1778,-3.1626,-3.1778,-3.2013,-3.2289,-3.2579,-3.2829,-3.2568,-3.2263,-3.165,-3.1609,-3.1748,-3.2206,-3.218,-3.2264,-3.2639,-3.2889,-3.2931,-3.2846,-3.2775,-3.2775,-3.2846,-3.2846,-3.2846,-3.3002,-3.3157,-3.3157,-3.2933,-3.2723,-3.2447,-3.2283,-3.1997,-3.171,-3.1567,-3.1351,-3.1146,-3.1025,-3.1069,-3.1192,-3.1766,-3.1967,-3.2159,-3.2948,-3.3779,-3.4362,-3.4767,-3.4975,-3.5152,-3.5182,-3.5228,-3.5274,-3.5412,-3.5622,-3.5776,-3.5941,-3.5779,-3.4966,-3.4504,-3.4514,-3.4626,-3.5062,-3.5598,-3.5805,-3.577,-3.5788,-3.5942,-3.6002,-3.5891,-3.5727,-3.5625,-3.5523,-3.5284,-3.5078,-3.5108,-3.5098,-3.5091,-3.5206,-3.5474,-3.6127,-3.7014,-3.738,-3.7195,-3.6861,-3.6934,-3.8203,-3.9047,-2.9854,-3.0372,-3.0791,-3.0977,-3.1061,-3.109,-3.0735,-3.0311,-3.0171,-2.9862,-2.9603,-3.0389,-3.0656,-3.0656,-3.0951,-3.1401,-3.1977,-3.23,-3.261,-3.3171,-3.369,-3.3577,-3.3559,-3.3542,-3.3445,-3.3318,-3.3373,-3.3318,-3.3068,-3.2666,-3.2375,-3.268,-3.2804,-3.2873,-3.3055,-3.3336,-3.3408,-3.3072,-3.2707,-3.2511,-3.2581,-3.2804,-3.2666,-3.2556,-3.3031,-3.3101,-3.3157,-3.3058,-3.3058,-3.3072,-3.3143,-3.3072,-3.3143,-3.3241,-3.3326,-3.3396,-3.3339,-3.3309,-3.3243,-3.3102,-3.2717,-3.2416,-3.227,-3.1946,-3.1764,-3.1592,-3.1566,-3.1652,-3.2602,-3.3293,-3.3518,-3.3793,-3.4333,-3.493,-3.5088,-3.5245,-3.5337,-3.5367,-3.5412,-3.5429,-3.5566,-3.5762,-3.5939,-3.6122,-3.5925,-3.5184,-3.4904,-3.5054,-3.4984,-3.5067,-3.5874,-3.644,-3.632,-3.6174,-3.6363,-3.6492,-3.6276,-3.6155,-3.6036,-3.6028,-3.6182,-3.6028,-3.5684,-3.577,-3.6011,-3.6214,-3.6535,-3.7404,-3.8212,-3.8517,-3.873,-3.8387,-3.8152,-3.8618,-3.9193,-3.0895,-3.1675,-3.1718,-3.1945,-3.2148,-3.2162,-3.1989,-3.1547,-3.0517,-2.9848,-2.9869,-2.9827,-3.0333,-3.0909,-3.1106,-3.1513,-3.2188,-3.2707,-3.3199,-3.348,-3.3803,-3.3788,-3.3521,-3.3283,-3.3505,-3.3577,-3.3675,-3.3882,-3.3982,-3.3774,-3.3564,-3.3704,-3.3592,-3.3591,-3.363,-3.3742,-3.373,-3.3575,-3.3573,-3.3502,-3.3449,-3.3493,-3.3452,-3.3087,-3.3058,-3.3072,-3.3072,-3.3072,-3.3143,-3.3241,-3.3312,-3.3241,-3.3395,-3.3551,-3.3621,-3.3847,-3.403,-3.407,-3.4063,-3.3922,-3.3594,-3.3243,-3.284,-3.2646,-3.2506,-3.2103,-3.1957,-3.1992,-3.2742,-3.3277,-3.3518,-3.4022,-3.4577,-3.5041,-3.5291,-3.5383,-3.5412,-3.5689,-3.6089,-3.6202,-3.6508,-3.6593,-3.642,-3.6602,-3.6749,-3.5762,-3.5434,-3.5675,-3.6018,-3.5866,-3.635,-3.7206,-3.7034,-3.6939,-3.7189,-3.718,-3.6654,-3.6456,-3.6414,-3.6251,-3.6191,-3.6148,-3.6062,-3.6402,-3.6788,-3.7337,-3.7807,-3.8701,-3.9368,-3.9596,-3.9731,-3.9664,-3.9609,-3.9477,-3.9324,-3.1531,-3.2358,-3.2867,-3.3369,-3.3767,-3.3412,-3.3274,-3.3071,-3.2048,-3.1397,-3.1101,-3.1092,-3.1345,-3.1875,-3.1949,-3.2455,-3.3438,-3.355,-3.414,-3.4464,-3.4691,-3.4325,-3.4084,-3.4,-3.3914,-3.397,-3.4153,-3.452,-3.4846,-3.482,-3.4696,-3.4569,-3.4525,-3.4464,-3.4243,-3.4283,-3.4142,-3.4074,-3.3991,-3.3937,-3.3896,-3.3675,-3.3521,-3.3382,-3.3312,-3.3241,-3.3241,-3.3241,-3.3241,-3.3312,-3.3312,-3.3564,-3.3986,-3.4243,-3.4597,-3.4952,-3.5011,-3.4981,-3.5059,-3.4903,-3.467,-3.4174,-3.3862,-3.3698,-3.333,-3.2638,-3.2364,-3.2459,-3.268,-3.3114,-3.3668,-3.4219,-3.4739,-3.5135,-3.5513,-3.5588,-3.5616,-3.6168,-3.6721,-3.708,-3.741,-3.741,-3.7158,-3.7128,-3.7222,-3.7002,-3.6603,-3.6753,-3.7574,-3.7788,-3.7614,-3.8138,-3.7888,-3.7871,-3.8079,-3.7871,-3.7361,-3.6972,-3.6861,-3.6611,-3.6293,-3.6654,-3.6988,-3.7198,-3.7571,-3.8397,-3.9234,-4.0042,-4.0575,-4.0621,-4.0564,-4.045,-4.0022,-3.9811,-3.9626,-3.2936,-3.365,-3.4253,-3.4581,-3.4736,-3.4522,-3.4309,-3.4156,-3.3638,-3.347,-3.3188,-3.2553,-3.2365,-3.3109,-3.3212,-3.3931,-3.4824,-3.4691,-3.5131,-3.5497,-3.5529,-3.5161,-3.4963,-3.4879,-3.4639,-3.4568,-3.4909,-3.5249,-3.5818,-3.5636,-3.5439,-3.5594,-3.5616,-3.5375,-3.5087,-3.494,-3.4645,-3.4587,-3.4361,-3.4185,-3.4077,-3.3827,-3.3536,-3.3466,-3.3396,-3.3312,-3.3312,-3.3312,-3.3312,-3.3312,-3.3396,-3.362,-3.3959,-3.4128,-3.4668,-3.511,-3.5339,-3.5653,-3.5863,-3.5952,-3.5769,-3.5126,-3.5314,-3.5399,-3.4429,-3.3847,-3.3599,-3.3659,-3.2905,-3.323,-3.3705,-3.4252,-3.4833,-3.5291,-3.6021,-3.6446,-3.6763,-3.7267,-3.7488,-3.7539,-3.803,-3.8603,-3.8429,-3.8408,-3.8417,-3.8251,-3.7871,-3.8205,-3.8975,-3.9353,-3.9291,-3.9161,-3.8921,-3.8999,-3.926,-3.8834,-3.8096,-3.7767,-3.749,-3.6997,-3.679,-3.745,-3.7924,-3.8193,-3.8829,-3.9939,-4.0774,-4.1438,-4.1395,-4.1304,-4.1246,-4.1186,-4.0646,-4.0044,-3.9901,-3.4547,-3.5169,-3.577,-3.5819,-3.5599,-3.5484,-3.5353,-3.5177,-3.5103,-3.5333,-3.5636,-3.3941,-3.3805,-3.435,-3.4725,-3.5468,-3.6028,-3.6228,-3.6453,-3.6376,-3.6237,-3.6037,-3.5951,-3.5953,-3.5738,-3.5753,-3.5998,-3.6458,-3.6977,-3.672,-3.6678,-3.6766,-3.6571,-3.6179,-3.6274,-3.5887,-3.5222,-3.5177,-3.4937,-3.4539,-3.4246,-3.3911,-3.3689,-3.3466,-3.3312,-3.3312,-3.3312,-3.3312,-3.3312,-3.3551,-3.3748,-3.3959,-3.4241,-3.4538,-3.5009,-3.5482,-3.6057,-3.6272,-3.6497,-3.688,-3.6492,-3.623,-3.6827,-3.6536,-3.5528,-3.5065,-3.4857,-3.4762,-3.4067,-3.3794,-3.428,-3.4495,-3.5024,-3.5896,-3.6746,-3.7473,-3.7945,-3.8338,-3.8261,-3.8197,-3.8824,-3.9549,-3.9507,-3.946,-3.953,-3.9398,-3.9511,-4.0024,-4.0366,-4.0428,-4.0403,-4.0315,-4.0132,-4.0228,-4.0394,-3.9687,-3.8833,-3.8747,-3.8434,-3.7679,-3.7311,-3.7988,-3.8652,-3.9283,-4.0024,-4.1213,-4.2019,-4.2616,-4.245,-4.204,-4.1608,-4.1342,-4.0595,-4.0129,-4.0106,-3.5569,-3.6056,-3.7132,-3.7263,-3.6728,-3.6732,-3.6812,-3.6641,-3.6012,-3.6114,-3.6637,-3.6783,-3.6709,-3.7119,-3.7095,-3.7533,-3.7856,-3.7813,-3.7767,-3.7777,-3.7577,-3.7123,-3.6993,-3.7258,-3.7143,-3.7325,-3.752,-3.7944,-3.7945,-3.7974,-3.7866,-3.7443,-3.7556,-3.702,-3.6064,-3.5934,-3.6244,-3.6067,-3.5869,-3.5598,-3.4761,-3.4337,-3.3939,-3.3689,-3.3466,-3.3382,-3.3312,-3.3312,-3.3621,-3.3959,-3.4356,-3.4569,-3.4852,-3.5278,-3.5796,-3.643,-3.6938,-3.695,-3.7205,-3.753,-3.7098,-3.622,-3.6603,-3.6735,-3.6011,-3.577,-3.602,-3.689,-3.634,-3.5812,-3.5943,-3.5346,-3.5659,-3.7063,-3.8163,-3.8654,-3.9129,-3.9247,-3.9194,-3.9494,-4.0057,-4.0164,-3.9939,-4.0157,-4.0604,-4.0471,-4.0278,-4.0793,-4.1223,-4.1366,-4.1402,-4.1253,-4.1086,-4.1262,-4.1297,-4.0411,-3.973,-3.9634,-3.946,-3.8831,-3.8515,-3.862,-3.9265,-4.0239,-4.1287,-4.2404,-4.3135,-4.3675,-4.3249,-4.2744,-4.1968,-4.138,-4.0616,-4.0361,-4.0488]}]]